[[{"header":{"parameterUnit":"m.s-1","parameterCategory":1,"la1":30.6,"la2":28.766,"lo1":-90.7593,"lo2":-88.6598,"dy":0.0162,"dx":0.0183,"nx":116,"ny":114,"refTime":"2023-08-19T18:00:00:Z","depth":0,"parameterNumber":2,"parameterNumberName":"U-component_of_WINDS"},"data":[0.0,0.0,0.0,0.0,0.0,0.0,0.0,0.0,0.0,0.0,0.0,0.0,0.0,0.0,0.0,0.0,0.0,0.0,0.0,0.0,0.0,0.0,0.0,0.0,0.0,0.0,0.0,0.0,0.0,0.0,0.0,0.0,0.0,0.0,0.0,0.0,0.0,0.0,0.0,0.0,0.0,0.0,0.0,0.0,0.0,0.0,0.0,0.0,0.0,0.0,0.0,0.0,0.0,0.0,0.0,0.0,0.0,0.0,0.0,0.0,0.0,0.0,0.0,0.0,0.0,0.0,0.0,0.0,0.0,0.0,0.0,0.0,0.0,0.0,0.0,0.0,0.0,0.0,0.0,0.0,0.0,0.0,0.0,0.0,0.0,0.0,0.0,0.0,0.0,0.0,0.0,0.0,0.0,0.0,0.0,0.0,0.0,0.0,0.0,0.0,0.0,0.0,0.0,0.0,0.0,0.0,0.0,0.0,0.0,0.0,0.0,0.0,0.0,0.0,0.0,0.0,0.0,0.0,0.0,0.0,0.0,0.0,0.0,0.0,0.0,0.0,0.0,0.0,0.0,0.0,0.0,0.0,0.0,0.0,0.0,0.0,0.0,0.0,0.0,0.0,0.0,0.0,0.0,0.0,0.0,0.0,0.0,0.0,0.0,0.0,0.0,0.0,0.0,0.0,0.0,0.0,0.0,0.0,0.0,0.0,0.0,0.0,0.0,0.0,0.0,0.0,0.0,0.0,0.0,0.0,0.0,0.0,0.0,0.0,0.0,0.0,0.0,0.0,0.0,0.0,0.0,0.0,0.0,0.0,0.0,0.0,0.0,0.0,0.0,0.0,0.0,0.0,0.0,0.0,0.0,0.0,0.0,0.0,0.0,0.0,0.0,0.0,0.0,0.0,0.0,0.0,0.0,0.0,0.0,0.0,0.0,0.0,0.0,0.0,0.0,0.0,0.0,0.0,0.0,0.0,0.0,0.0,0.0,0.0,0.0,0.0,0.0,0.0,0.0,0.0,0.0,0.0,0.0,0.0,0.0,0.0,0.0,0.0,0.0,0.0,0.0,0.0,0.0,0.0,0.0,0.0,0.0,0.0,0.0,0.0,0.0,0.0,0.0,0.0,0.0,0.0,0.0,0.0,0.0,0.0,0.0,0.0,0.0,0.0,0.0,0.0,0.0,0.0,0.0,0.0,0.0,0.0,0.0,0.0,0.0,0.0,0.0,0.0,0.0,0.0,0.0,0.0,0.0,0.0,0.0,0.0,0.0,0.0,0.0,0.0,0.0,0.0,0.0,0.0,0.0,0.0,0.0,0.0,0.0,0.0,0.0,0.0,0.0,0.0,0.0,0.0,0.0,0.0,0.0,0.0,0.0,0.0,0.0,0.0,0.0,0.0,0.0,0.0,0.0,0.0,0.0,0.0,0.0,0.0,0.0,0.0,0.0,0.0,0.0,0.0,0.0,0.0,0.0,0.0,0.0,0.0,0.0,0.0,0.0,0.0,0.0,0.0,0.0,0.0,0.0,0.0,0.0,0.0,0.0,0.0,0.0,0.0,0.0,0.0,0.0,0.0,0.0,0.0,0.0,0.0,0.0,0.0,0.0,0.0,0.0,0.0,0.0,0.0,0.0,0.0,0.0,0.0,0.0,0.0,0.0,0.0,0.0,0.0,0.0,0.0,0.0,0.0,0.0,0.0,0.0,0.0,0.0,0.0,0.0,0.0,0.0,0.0,0.0,0.0,0.0,0.0,0.0,0.0,0.0,0.0,0.0,0.0,0.0,0.0,0.0,0.0,0.0,0.0,0.0,0.0,0.0,0.0,0.0,0.0,0.0,0.0,0.0,0.0,0.0,0.0,0.0,0.0,0.0,0.0,0.0,0.0,0.0,0.0,0.0,0.0,0.0,0.0,0.0,0.0,0.0,0.0,0.0,0.0,0.0,0.0,0.0,0.0,0.0,0.0,0.0,0.0,0.0,0.0,0.0,0.0,0.0,0.0,0.0,0.0,0.0,0.0,0.0,0.0,0.0,0.0,0.0,0.0,0.0,0.0,0.0,0.0,0.0,0.0,0.0,0.0,0.0,0.0,0.0,0.0,0.0,0.0,0.0,0.0,0.0,0.0,0.0,0.0,0.0,0.0,0.0,0.0,0.0,0.0,0.0,0.0,0.0,0.0,0.0,0.0,0.0,0.0,0.0,0.0,0.0,0.0,0.0,0.0,0.0,0.0,0.0,0.0,0.0,0.0,0.0,0.0,0.0,0.0,0.0,0.0,0.0,0.0,0.0,0.0,0.0,0.0,0.0,0.0,0.0,0.0,0.0,0.0,0.0,0.0,0.0,0.0,0.0,0.0,0.0,0.0,0.0,0.0,0.0,0.0,0.0,0.0,0.0,0.0,0.0,0.0,0.0,0.0,0.0,0.0,0.0,0.0,0.0,0.0,0.0,0.0,0.0,0.0,0.0,0.0,0.0,0.0,0.0,0.0,0.0,0.0,0.0,0.0,0.0,0.0,0.0,0.0,0.0,0.0,0.0,0.0,0.0,0.0,0.0,0.0,0.0,0.0,0.0,0.0,0.0,0.0,0.0,0.0,0.0,0.0,0.0,0.0,0.0,0.0,0.0,0.0,0.0,0.0,0.0,0.0,0.0,0.0,0.0,0.0,0.0,0.0,0.0,0.0,0.0,0.0,0.0,0.0,0.0,0.0,0.0,0.0,0.0,0.0,0.0,0.0,0.0,0.0,0.0,0.0,0.0,0.0,0.0,0.0,0.0,0.0,0.0,0.0,0.0,0.0,0.0,0.0,0.0,0.0,0.0,0.0,0.0,0.0,0.0,0.0,0.0,0.0,0.0,0.0,0.0,0.0,0.0,0.0,0.0,0.0,0.0,0.0,0.0,0.0,0.0,0.0,0.0,0.0,0.0,0.0,0.0,0.0,0.0,0.0,0.0,0.0,0.0,0.0,0.0,0.0,0.0,0.0,0.0,0.0,0.0,0.0,0.0,0.0,0.0,0.0,0.0,0.0,0.0,0.0,0.0,0.0,0.0,0.0,0.0,0.0,0.0,0.0,0.0,0.0,0.0,0.0,0.0,0.0,0.0,0.0,0.0,0.0,0.0,0.0,0.0,0.0,0.0,0.0,0.0,0.0,0.0,0.0,0.0,0.0,0.0,0.0,0.0,0.0,0.0,0.0,0.0,0.0,0.0,0.0,0.0,0.0,0.0,0.0,0.0,0.0,0.0,0.0,0.0,0.0,0.0,0.0,0.0,0.0,0.0,0.0,0.0,0.0,0.0,0.0,0.0,0.0,0.0,0.0,0.0,0.0,0.0,0.0,0.0,0.0,0.0,0.0,0.0,0.0,0.0,0.0,0.0,0.0,0.0,0.0,0.0,0.0,0.0,0.0,0.0,0.0,0.0,0.0,0.0,0.0,0.0,0.0,0.0,0.0,0.0,0.0,0.0,0.0,0.0,0.0,0.0,0.0,0.0,0.0,0.0,0.0,0.0,0.0,0.0,0.0,0.0,0.0,0.0,0.0,0.0,0.0,0.0,0.0,0.0,0.0,0.0,0.0,0.0,0.0,0.0,0.0,0.0,0.0,0.0,0.0,0.0,0.0,0.0,0.0,0.0,0.0,0.0,0.0,0.0,0.0,0.0,0.0,0.0,0.0,0.0,0.0,0.0,0.0,0.0,0.0,0.0,0.0,0.0,0.0,0.0,0.0,0.0,0.0,0.0,0.0,0.0,0.0,0.0,0.0,0.0,0.0,0.0,0.0,0.0,0.0,0.0,0.0,0.0,0.0,0.0,0.0,0.0,0.0,0.0,0.0,0.0,0.0,0.0,0.0,0.0,0.0,0.0,0.0,0.0,0.0,0.0,0.0,0.0,0.0,0.0,0.0,0.0,0.0,0.0,0.0,0.0,0.0,0.0,0.0,0.0,0.0,0.0,0.0,0.0,0.0,0.0,0.0,0.0,0.0,0.0,0.0,0.0,0.0,0.0,0.0,0.0,0.0,0.0,0.0,0.0,0.0,0.0,0.0,0.0,0.0,0.0,0.0,0.0,0.0,0.0,0.0,0.0,0.0,0.0,0.0,0.0,0.0,0.0,0.0,0.0,0.0,0.0,0.0,0.0,0.0,0.0,0.0,0.0,0.0,0.0,0.0,0.0,0.0,0.0,0.0,0.0,0.0,0.0,0.0,0.0,0.0,0.0,0.0,0.0,0.0,0.0,0.0,0.0,0.0,0.0,0.0,0.0,0.0,0.0,0.0,0.0,0.0,0.0,0.0,0.0,0.0,0.0,0.0,0.0,0.0,0.0,0.0,0.0,0.0,0.0,0.0,0.0,0.0,0.0,0.0,0.0,0.0,0.0,0.0,0.0,0.0,0.0,0.0,0.0,0.0,0.0,0.0,0.0,0.0,0.0,0.0,0.0,0.0,0.0,0.0,0.0,0.0,0.0,0.0,0.0,0.0,0.0,0.0,0.0,0.0,0.0,0.0,0.0,0.0,0.0,0.0,0.0,0.0,0.0,0.0,0.0,0.0,0.0,0.0,0.0,0.0,0.0,0.0,0.0,0.0,0.0,0.0,0.0,0.0,0.0,0.0,0.0,0.0,0.0,0.0,0.0,0.0,0.0,0.0,0.0,0.0,0.0,0.0,0.0,0.0,0.0,0.0,0.0,0.0,0.0,0.0,0.0,0.0,0.0,0.0,0.0,0.0,0.0,0.0,0.0,0.0,0.0,0.0,0.0,0.0,0.0,0.0,0.0,0.0,0.0,0.0,0.0,0.0,0.0,0.0,0.0,0.0,0.0,0.0,0.0,0.0,0.0,0.0,0.0,0.0,0.0,0.0,0.0,0.0,0.0,0.0,0.0,0.0,0.0,0.0,0.0,0.0,0.0,0.0,0.0,0.0,0.0,0.0,0.0,0.0,0.0,0.0,0.0,0.0,0.0,0.0,0.0,0.0,0.0,0.0,0.0,0.0,0.0,0.0,0.0,0.0,0.0,0.0,0.0,0.0,0.0,0.0,0.0,0.0,0.0,0.0,0.0,0.0,0.0,0.0,0.0,0.0,0.0,0.0,0.0,0.0,0.0,0.0,0.0,0.0,0.0,0.0,0.0,0.0,0.0,0.0,0.0,0.0,0.0,0.0,0.0,0.0,0.0,0.0,0.0,0.0,0.0,0.0,0.0,0.0,0.0,0.0,0.0,0.0,0.0,0.0,0.0,0.0,0.0,0.0,0.0,0.0,0.0,0.0,0.0,0.0,0.0,0.0,0.0,0.0,0.0,0.0,0.0,0.0,0.0,0.0,0.0,0.0,0.0,0.0,0.0,0.0,0.0,0.0,0.0,0.0,0.0,0.0,0.0,0.0,0.0,0.0,0.0,0.0,0.0,0.0,0.0,0.0,0.0,0.0,0.0,0.0,0.0,0.0,0.0,0.0,0.0,0.0,0.0,0.0,0.0,0.0,0.0,0.0,0.0,0.0,0.0,0.0,0.0,0.0,0.0,0.0,0.0,0.0,0.0,0.0,0.0,0.0,0.0,0.0,0.0,0.0,0.0,0.0,0.0,0.0,0.0,0.0,0.0,0.0,0.0,0.0,0.0,0.0,0.0,0.0,0.0,0.0,0.0,0.0,0.0,0.0,0.0,0.0,0.0,0.0,0.0,0.0,0.0,0.0,0.0,0.0,0.0,0.0,0.0,0.0,0.0,0.0,0.0,0.0,0.0,0.0,0.0,0.0,0.0,0.0,0.0,0.0,0.0,0.0,0.0,0.0,0.0,0.0,0.0,0.0,0.0,0.0,0.0,0.0,0.0,0.0,0.0,0.0,0.0,0.0,0.0,0.0,0.0,0.0,0.0,0.0,0.0,0.0,0.0,0.0,0.0,0.0,0.0,0.0,0.0,0.0,0.0,0.0,0.0,0.0,0.0,0.0,0.0,0.0,0.0,0.0,0.0,0.0,0.0,0.0,0.0,0.0,0.0,0.0,0.0,0.0,0.0,0.0,0.0,0.0,0.0,0.0,0.0,0.0,0.0,0.0,0.0,0.0,0.0,0.0,0.0,0.0,0.0,0.0,0.0,0.0,0.0,0.0,-4.0614,0.0,0.0,0.0,0.0,0.0,0.0,0.0,0.0,0.0,0.0,0.0,0.0,0.0,0.0,0.0,0.0,0.0,0.0,0.0,0.0,0.0,0.0,0.0,0.0,0.0,0.0,0.0,0.0,0.0,0.0,0.0,0.0,0.0,0.0,0.0,0.0,0.0,0.0,-3.622,-3.7081,-3.8185,-3.9501,-3.9112,-3.8853,-3.8705,0.0,0.0,0.0,0.0,0.0,0.0,0.0,0.0,0.0,0.0,0.0,0.0,0.0,0.0,0.0,0.0,0.0,0.0,0.0,0.0,0.0,0.0,0.0,0.0,0.0,0.0,0.0,0.0,0.0,0.0,0.0,0.0,0.0,0.0,0.0,0.0,0.0,0.0,0.0,0.0,0.0,0.0,0.0,0.0,0.0,0.0,0.0,0.0,0.0,0.0,0.0,0.0,0.0,0.0,0.0,0.0,0.0,0.0,0.0,0.0,0.0,0.0,0.0,0.0,0.0,0.0,0.0,0.0,0.0,0.0,0.0,-4.0659,0.0,0.0,0.0,0.0,0.0,0.0,0.0,0.0,0.0,0.0,0.0,0.0,0.0,0.0,0.0,0.0,0.0,0.0,0.0,0.0,0.0,0.0,0.0,-3.1191,-3.1632,-3.2071,-3.2385,-3.2665,0.0,0.0,0.0,0.0,0.0,0.0,0.0,-3.4684,-3.5283,-3.6288,-3.7561,-3.9202,-4.1044,-4.1086,-4.1281,-4.1525,-4.0509,0.0,0.0,0.0,0.0,0.0,0.0,0.0,0.0,0.0,0.0,0.0,0.0,0.0,0.0,0.0,0.0,0.0,0.0,0.0,0.0,0.0,0.0,0.0,0.0,0.0,0.0,0.0,0.0,0.0,0.0,0.0,0.0,0.0,0.0,0.0,0.0,0.0,0.0,0.0,0.0,0.0,0.0,0.0,0.0,0.0,0.0,0.0,0.0,0.0,0.0,0.0,0.0,0.0,0.0,0.0,0.0,0.0,0.0,0.0,0.0,0.0,0.0,0.0,-4.4024,-4.3901,-4.3919,-4.324,-4.3277,-4.3828,-4.2359,-4.1889,-4.2043,-4.0623,0.0,0.0,0.0,0.0,0.0,0.0,0.0,0.0,0.0,0.0,0.0,0.0,0.0,0.0,0.0,0.0,0.0,0.0,0.0,0.0,0.0,-3.0945,-3.1584,-3.2449,-3.3001,-3.3397,-3.3726,0.0,0.0,0.0,0.0,0.0,-3.3403,-3.4368,-3.5305,-3.6149,-3.9166,-4.1626,-4.3546,-4.3518,-4.4103,-4.5009,-4.2189,-4.1054,-4.1227,0.0,0.0,0.0,0.0,0.0,0.0,0.0,0.0,0.0,0.0,0.0,0.0,0.0,0.0,0.0,0.0,0.0,0.0,0.0,0.0,0.0,0.0,0.0,0.0,0.0,0.0,0.0,0.0,0.0,0.0,0.0,0.0,0.0,0.0,0.0,0.0,0.0,0.0,0.0,0.0,0.0,-3.918,-3.8663,0.0,0.0,0.0,0.0,0.0,0.0,0.0,0.0,0.0,0.0,0.0,0.0,0.0,-4.5492,-4.6137,-4.5971,-4.5838,-4.5787,-4.5644,-4.559,-4.559,-4.548,-4.548,-4.5516,-4.4635,0.0,-4.1992,-4.1773,0.0,0.0,0.0,0.0,0.0,0.0,0.0,0.0,0.0,0.0,0.0,0.0,0.0,0.0,0.0,0.0,0.0,0.0,0.0,0.0,0.0,-3.0804,-3.1739,-3.2326,-3.3128,-3.3547,-3.349,-3.3539,0.0,0.0,0.0,-3.3132,-3.3298,-3.4372,-3.619,-3.8836,-4.0806,-4.2731,-4.4511,-4.4636,-4.5017,-4.552,-4.4463,-4.357,-4.2874,-4.1951,0.0,0.0,0.0,0.0,0.0,0.0,0.0,0.0,0.0,0.0,0.0,0.0,0.0,0.0,0.0,0.0,0.0,0.0,0.0,0.0,0.0,0.0,0.0,0.0,0.0,0.0,0.0,0.0,0.0,0.0,0.0,0.0,0.0,0.0,0.0,0.0,0.0,0.0,0.0,-3.8118,-3.9023,-3.8661,-3.8986,-3.8867,0.0,0.0,0.0,0.0,0.0,0.0,0.0,0.0,0.0,-4.5508,-4.6101,-4.6652,-4.7276,-4.7453,-4.7535,-4.7463,-4.7316,-4.7241,-4.7241,-4.6801,-4.6562,-4.6544,-4.5736,-4.4601,-4.3269,-4.2376,-4.1361,-4.0253,0.0,0.0,0.0,0.0,-3.609,-3.6302,0.0,0.0,0.0,0.0,0.0,0.0,0.0,0.0,0.0,0.0,0.0,0.0,-2.9398,-3.0858,-3.1962,-3.2483,-3.336,-3.3747,-3.347,-3.3665,-3.3443,-3.261,-3.2796,-3.3004,-3.3268,-3.4874,-3.7435,-4.0992,-4.2011,-4.3327,-4.4948,-4.5146,-4.5408,-4.5701,-4.6081,-4.5652,-4.4551,-4.3432,-4.2608,-4.1928,0.0,0.0,0.0,0.0,0.0,0.0,0.0,0.0,0.0,0.0,0.0,0.0,0.0,0.0,0.0,0.0,0.0,0.0,0.0,0.0,0.0,0.0,0.0,0.0,0.0,0.0,0.0,0.0,0.0,0.0,0.0,0.0,0.0,0.0,0.0,0.0,0.0,-3.8549,-3.9335,-3.9559,-4.0073,-4.0178,0.0,0.0,0.0,0.0,0.0,0.0,-4.5065,-4.494,-4.5399,-4.6695,-4.7457,-4.8038,-4.8431,-4.8972,-4.9196,-4.912,-4.8785,-4.8636,-4.86,-4.7792,-4.7406,-4.7369,-4.6581,-4.5645,-4.4656,-4.3196,-4.2123,-4.126,-3.9921,-3.8986,-3.8313,-3.7575,-3.7472,-3.7763,0.0,0.0,0.0,0.0,0.0,0.0,0.0,0.0,0.0,0.0,0.0,-2.8361,-3.0086,-3.1301,-3.2376,-3.3346,-3.4039,-3.4344,-3.4068,-3.3832,-3.3516,-3.3062,-3.2972,-3.2901,-3.2932,-3.617,-3.89,-4.0992,-4.2365,-4.3713,-4.5005,-4.5179,-4.5739,-4.6523,-4.6353,-4.6218,-4.6066,-4.5128,-4.4319,-4.3458,-4.1773,0.0,0.0,0.0,0.0,0.0,0.0,0.0,0.0,0.0,0.0,0.0,0.0,0.0,0.0,0.0,0.0,0.0,0.0,0.0,0.0,0.0,0.0,0.0,0.0,0.0,0.0,0.0,0.0,0.0,0.0,0.0,0.0,0.0,0.0,0.0,0.0,0.0,0.0,-4.2096,-4.218,0.0,0.0,0.0,0.0,-4.4106,-4.4253,-4.5325,-4.7673,-4.7608,-4.7805,-4.8464,-4.974,-5.0322,-5.0182,-5.0713,-5.0912,-5.0777,-4.9907,-4.9537,-4.95,-4.8636,-4.8233,-4.8196,-4.7369,-4.6562,-4.5663,-4.4693,-4.3139,-4.1367,-4.1082,-4.0278,-3.9259,-3.9477,-3.9433,-3.9334,0.0,0.0,0.0,0.0,0.0,0.0,0.0,0.0,-2.4374,-2.5473,-2.6863,-2.8218,-2.9383,-3.1643,-3.325,-3.358,-3.4725,-3.5211,-3.4708,-3.4266,-3.3676,-3.2786,-3.2748,-3.3372,-3.4784,-3.7243,-3.9535,-4.1623,-4.2542,-4.3883,-4.5565,-4.5788,-4.635,-4.7167,-4.7016,-4.6953,-4.6872,-4.606,-4.5029,-4.3844,-4.3124,-4.1641,0.0,0.0,0.0,0.0,0.0,0.0,0.0,0.0,0.0,0.0,0.0,0.0,0.0,0.0,0.0,0.0,0.0,0.0,0.0,0.0,0.0,0.0,0.0,0.0,0.0,0.0,0.0,0.0,0.0,0.0,0.0,0.0,0.0,0.0,0.0,0.0,0.0,-4.2376,-4.2856,0.0,-4.3843,-4.4311,-4.5021,-4.6005,-4.6552,-4.7403,-4.8708,-4.9098,-4.9581,-5.0169,-5.0998,-5.1312,-5.1076,-5.1083,-5.1022,-5.0888,-5.0017,-4.961,-4.9574,-4.871,-4.8306,-4.8269,-4.8012,-4.7075,-4.5772,-4.535,-4.4048,-4.2255,-4.198,-4.1413,-4.0788,-4.0643,-4.0397,-4.0144,0.0,0.0,0.0,0.0,0.0,0.0,0.0,0.0,-2.3847,-2.5112,-2.6683,-2.8108,-2.944,-3.1963,-3.3622,-3.3751,-3.4881,-3.5284,-3.4533,-3.4109,-3.3451,-3.24,-3.2722,-3.405,-3.6428,-3.8018,-3.9845,-4.1912,-4.29,-4.4118,-4.5471,-4.5959,-4.6532,-4.72,-4.7265,-4.7178,-4.7007,-4.6713,-4.5722,-4.4374,-4.3951,-4.2671,-4.0798,0.0,0.0,0.0,0.0,0.0,0.0,0.0,0.0,0.0,0.0,0.0,0.0,0.0,0.0,0.0,0.0,0.0,0.0,0.0,0.0,0.0,0.0,0.0,0.0,0.0,0.0,0.0,0.0,0.0,0.0,0.0,0.0,0.0,0.0,0.0,-4.3042,-4.3669,-4.4426,-4.5234,-4.6048,-4.6546,-4.7139,-4.7844,-4.8613,-4.9345,-5.0002,-5.0711,-5.1256,-5.1551,-5.2092,-5.2273,-5.2001,-5.2011,-5.1931,-5.1758,-5.0591,-5.0034,-4.9958,-4.882,-4.8306,-4.8306,-4.8306,-4.7351,-4.5828,-4.5716,-4.4579,-4.2878,-4.249,-4.2044,-4.167,-4.1267,-4.0918,-4.0573,0.0,0.0,0.0,0.0,0.0,0.0,0.0,-2.2703,-2.3601,-2.5267,-2.6522,-2.8096,-3.0213,-3.2059,-3.3385,-3.3853,-3.451,-3.4493,-3.3558,-3.337,-3.2871,-3.1934,-3.3037,-3.4901,-3.7491,-3.8437,-3.9818,-4.1676,-4.3418,-4.4398,-4.467,-4.5698,-4.6355,-4.6665,-4.7029,-4.6966,-4.6567,-4.7066,-4.6491,-4.5145,-4.4344,-4.326,-4.1849,0.0,0.0,0.0,0.0,0.0,0.0,0.0,0.0,0.0,0.0,0.0,0.0,0.0,0.0,0.0,0.0,0.0,0.0,0.0,0.0,0.0,0.0,0.0,0.0,0.0,0.0,0.0,0.0,0.0,0.0,0.0,0.0,0.0,-4.2153,-4.3192,-4.4442,-4.6132,-4.7048,-4.7858,-4.866,-4.8655,-4.8891,-4.9621,-5.0413,-5.1145,-5.1738,-5.2514,-5.283,-5.2544,-5.315,-5.3317,-5.3035,-5.3535,-5.3698,-5.3464,-5.1721,-5.0829,-5.0692,-4.904,-4.8306,-4.8306,-4.8269,-4.7352,-4.5883,-4.5792,-4.471,-4.3067,-4.2609,-4.219,-4.1852,-4.1391,-4.1071,-4.0744,0.0,0.0,0.0,0.0,0.0,0.0,-2.1949,-2.2176,-2.299,-2.4846,-2.6114,-2.7657,-2.9779,-3.1615,-3.2848,-3.3365,-3.3853,-3.3987,-3.3462,-3.2802,-3.2306,-3.2046,-3.388,-3.5432,-3.6626,-3.8387,-3.9849,-4.0966,-4.2602,-4.398,-4.5117,-4.5902,-4.6766,-4.7596,-4.7385,-4.729,-4.7252,-4.6684,-4.6103,-4.5527,-4.5049,-4.4108,-4.2829,0.0,0.0,0.0,0.0,0.0,0.0,0.0,0.0,0.0,0.0,0.0,0.0,0.0,0.0,0.0,0.0,0.0,0.0,0.0,0.0,0.0,0.0,0.0,0.0,0.0,0.0,0.0,0.0,0.0,0.0,0.0,0.0,-4.1849,-4.2233,-4.4685,-4.6646,-4.7106,-4.7924,-4.8747,-4.9577,-5.0096,-5.0707,-5.1486,-5.2224,-5.2647,-5.2787,-5.3441,-5.3709,-5.3449,-5.4042,-5.4264,-5.4037,-5.3943,-5.3535,-5.2808,-5.1541,-5.0574,-4.9965,-4.8802,-4.8306,-4.8269,-4.7663,-4.6874,-4.5847,-4.5187,-4.4236,-4.3123,-4.2727,-4.2348,-4.198,-4.1648,-4.1244,-4.0698,0.0,0.0,0.0,0.0,0.0,0.0,-2.1797,-2.2025,-2.2938,-2.4964,-2.6083,-2.7538,-2.9906,-3.1445,-3.2557,-3.3167,-3.3344,-3.3319,-3.3039,-3.222,-3.2016,-3.2686,-3.4191,-3.5519,-3.677,-3.831,-3.9774,-4.1083,-4.2537,-4.3974,-4.5302,-4.6169,-4.7019,-4.7837,-4.7528,-4.7402,-4.7313,-4.6607,-4.6081,-4.5634,-4.5147,-4.4399,-4.3436,-4.2128,-4.1144,-4.0417,-3.971,-3.9204,-3.866,-3.7236,0.0,0.0,0.0,0.0,0.0,0.0,0.0,0.0,0.0,0.0,0.0,0.0,0.0,0.0,0.0,0.0,0.0,0.0,0.0,0.0,0.0,0.0,0.0,0.0,-4.2473,-4.3838,-4.4302,-4.6173,-4.7767,-4.8506,-4.9374,-5.0207,-5.1015,-5.1775,-5.2394,-5.2824,-5.3489,-5.383,-5.3723,-5.4414,-5.4712,-5.4432,-5.471,-5.4602,-5.4011,-5.3706,-5.3104,-5.214,-5.1065,-5.0304,-4.973,-4.8826,-4.8401,-4.8326,-4.7518,-4.6691,-4.5847,-4.4967,-4.4126,0.0,0.0,0.0,0.0,0.0,-4.1448,-4.0874,0.0,0.0,0.0,0.0,0.0,0.0,-2.1835,-2.2176,-2.3199,-2.5415,-2.626,-2.7651,-3.03,-3.1496,-3.2325,-3.3068,-3.2816,-3.2529,-3.2398,-3.1731,-3.204,-3.3517,-3.4225,-3.5484,-3.7385,-3.8281,-3.9633,-4.1527,-4.2866,-4.4139,-4.5288,-4.6343,-4.7106,-4.7538,-4.7538,-4.7365,-4.7042,-4.6661,-4.6186,-4.5657,-4.4883,-4.4275,-4.3716,-4.2064,-4.1238,-4.0788,-3.9792,-3.9174,-3.871,-3.8173,0.0,0.0,0.0,0.0,0.0,0.0,0.0,0.0,0.0,0.0,0.0,0.0,0.0,0.0,0.0,0.0,0.0,0.0,0.0,0.0,0.0,0.0,0.0,0.0,-4.4715,-4.6303,-4.7287,-4.7618,-4.8343,-4.9907,-5.0976,-5.1821,-5.2517,-5.3416,-5.3902,-5.3772,-5.4452,-5.4782,-5.4601,0.0,0.0,0.0,0.0,-5.451,-5.3505,-5.316,-5.2486,-5.1409,-5.0522,-4.997,-4.9658,-4.8956,-4.8532,-4.8329,-4.7519,-4.6617,-4.5718,-4.4892,-4.4105,-4.3376,-4.305,-4.2804,-4.255,-4.2037,-4.1622,-4.1076,0.0,0.0,0.0,0.0,0.0,0.0,-2.2289,-2.2365,-2.3277,-2.5622,-2.6385,-2.7671,-3.03,-3.13,-3.1995,-3.2504,-3.2247,-3.1955,-3.1628,-3.2076,-3.2673,-3.342,-3.4762,-3.6035,-3.7069,-3.8274,-3.9588,-4.1041,-4.2366,-4.37,-4.4996,-4.6153,-4.68,-4.7062,-4.7236,-4.7392,-4.7395,-4.6241,-4.6031,-4.6234,-4.4439,-4.3823,-4.3868,-4.3491,-4.2452,-4.1149,-4.1366,-4.0866,-3.9956,-3.8848,-3.8759,-3.8878,-3.7505,-3.672,0.0,0.0,0.0,0.0,0.0,0.0,0.0,0.0,0.0,0.0,0.0,0.0,0.0,0.0,0.0,0.0,0.0,0.0,0.0,-4.2824,-4.514,-4.7108,-4.8115,-4.8953,-4.9602,-5.0059,-5.1474,-5.2499,-5.2594,-5.3972,-5.4816,-5.4729,-5.5411,-5.5805,-5.5689,-5.5681,-5.566,-5.557,-5.4739,-5.4076,-5.3666,-5.2794,-5.1864,-5.0853,0.0,0.0,-4.908,-4.8879,-4.8345,-4.759,-4.6778,-4.5877,-4.4961,-4.4135,-4.3644,-4.3376,-4.305,-4.2804,-4.257,-4.2308,-4.1668,-4.0764,0.0,0.0,0.0,0.0,0.0,0.0,-2.2703,-2.2777,-2.3525,-2.5472,-2.5971,-2.7157,-2.9683,-3.0257,-3.0846,-3.1692,-3.1697,-3.1564,-3.1411,-3.2315,-3.3148,-3.3792,-3.5237,-3.634,-3.7011,-3.844,-3.9843,-4.1214,-4.2547,-4.3889,-4.5194,-4.6167,-4.6712,-4.6931,-4.7149,-4.7352,-4.7392,-4.6135,-4.5808,-4.598,-4.4603,-4.3722,-4.3231,-4.3421,-4.2483,-4.1128,-4.1549,-4.1096,-4.0201,-3.9727,-3.9824,-3.9997,-3.9097,-3.8199,-3.7113,0.0,0.0,0.0,0.0,0.0,0.0,0.0,0.0,0.0,0.0,0.0,0.0,0.0,0.0,-3.8001,0.0,0.0,-4.2876,-4.4607,-4.6458,-4.799,-4.8938,-4.9918,-5.0544,-5.0664,-5.2284,-5.3359,-5.3309,-5.483,-5.5779,-5.5696,-5.6026,-5.6156,-5.6046,-5.5932,-5.5807,-5.5671,-5.4703,-5.3886,-5.3263,-5.224,-5.1249,-5.0237,-5.0115,-4.9717,-4.9094,-4.8634,-4.8124,-4.7522,-4.6248,-4.5403,-4.4895,-4.3982,-4.3566,-4.3463,-4.3251,-4.2994,-4.271,-4.2554,-4.1832,-4.0821,0.0,0.0,0.0,0.0,0.0,0.0,0.0,-2.3372,-2.3951,-2.5324,-2.5754,-2.6714,-2.8898,-2.9229,-2.9724,-3.0776,-3.1204,-3.1386,-3.1386,-3.2583,-3.3644,-3.4331,-3.5635,-3.6658,-3.7168,-3.8739,-4.021,-4.1471,-4.2887,-4.4237,-4.5504,-4.6225,-4.6712,-4.6931,-4.7149,-4.7309,-4.7219,-4.601,-4.5563,-4.5524,-4.4586,-4.3536,-4.252,-4.2624,-4.1884,-4.0776,-4.1152,-4.0754,-4.0062,-4.0337,-4.0645,-4.0886,-4.0472,-3.9567,-3.8241,-3.6184,-3.5166,0.0,0.0,0.0,0.0,0.0,0.0,0.0,0.0,0.0,-3.6657,-3.7425,-3.8697,-4.0333,-4.2508,-4.3168,-4.4067,-4.6195,-4.7486,-4.8514,-4.9336,-5.0382,-5.1142,-5.1261,-5.2737,-5.3744,-5.3747,-5.529,-5.6224,-5.6152,-5.6246,-5.6272,-5.6133,-5.6062,-5.5873,-5.5507,-5.4566,-5.3601,-5.2635,-5.1611,-5.0709,-4.9862,-4.9792,-4.9596,-4.9368,-4.8527,-4.7985,-4.7564,-4.5791,-4.4973,-4.4823,-4.4009,-4.3651,-4.36,-4.3463,-4.3251,-4.2957,-4.2806,-4.2001,-4.0851,0.0,0.0,0.0,0.0,0.0,0.0,0.0,0.0,-2.4545,-2.5784,-2.6268,-2.6999,-2.8371,-2.9032,-2.9553,-2.9916,-3.0834,-3.1386,-3.1386,-3.3131,-3.4426,-3.4984,-3.6045,-3.702,-3.7789,-3.9181,-4.0394,-4.1471,-4.3069,-4.4402,-4.5504,-4.6225,-4.6712,-4.6931,-4.7149,-4.7309,-4.7219,-4.5915,-4.544,-4.5453,-4.3633,-4.2765,-4.2417,-4.1545,-4.0766,-4.0182,-4.0746,-4.0426,-3.9781,-4.0062,-4.0485,-4.0803,-4.0158,-3.9656,-3.8894,-3.6734,-3.5824,-3.5475,-3.5437,-3.6167,-3.6918,-3.7059,-3.6638,-3.6219,0.0,0.0,-3.9038,-3.9202,-4.1267,-4.3185,-4.3605,-4.4429,-4.5148,-4.5477,-4.7011,-4.8197,-4.8438,-4.9913,-5.1043,-5.1211,-5.2126,-5.2774,-5.2845,-5.4412,-5.5407,-5.5327,-5.6,-5.6358,-5.6284,-5.6156,-5.5697,-5.4817,-5.3841,-5.2864,-5.1935,-5.0926,-5.0302,-5.0089,-4.9986,-4.9876,-4.9625,-4.8744,-4.7903,-4.699,-4.5133,-4.4236,-4.4119,-4.3934,-4.3767,-4.3617,-4.36,-4.348,-4.3323,-4.2976,-4.1922,-4.051,0.0,0.0,0.0,0.0,0.0,0.0,0.0,0.0,0.0,-2.5525,-2.5755,-2.6298,-2.7457,-2.8225,-2.8812,-2.9214,-3.0306,-3.11,-3.159,-3.3571,-3.499,-3.5506,-3.6696,-3.7658,-3.8258,-3.9481,-4.0477,-4.1356,-4.3037,-4.4293,-4.5181,-4.6138,-4.6712,-4.6901,-4.6761,-4.6741,-4.6651,-4.5304,-4.4777,-4.4708,-4.3305,-4.2478,-4.2059,-4.1067,-4.0245,-3.9532,-3.9486,-3.8898,0.0,-3.8505,-3.8546,-3.8584,-3.902,-3.8499,-3.7606,-3.6914,-3.6434,-3.623,-3.7051,-3.8004,0.0,0.0,-3.9074,-3.9239,-3.9283,-4.0014,-4.0859,-4.1523,-4.2648,-4.3718,-4.4332,-4.4908,-4.5451,0.0,-4.7185,-4.8324,-4.8904,-5.0109,-5.1002,-5.1125,-5.1536,-5.2022,-5.2645,-5.3828,-5.4524,-5.4491,-5.524,-5.5658,-5.5618,-5.5488,-5.5239,-5.4777,-5.337,-5.2357,-5.1854,-5.0947,-5.0418,-5.0286,-5.0226,-4.981,-4.9148,-4.8274,-4.7057,-4.5622,-4.4768,-4.434,-4.4237,-4.4039,-4.3929,-4.3795,-4.3684,-4.3566,-4.348,-4.3269,-4.2104,-4.0599,0.0,0.0,0.0,0.0,0.0,0.0,0.0,0.0,0.0,0.0,-2.55,-2.5893,-2.6781,-2.7358,-2.7943,-2.8497,-2.9618,-3.0669,-3.1578,-3.3675,-3.5197,-3.5903,-3.7224,-3.8235,-3.8845,-3.9979,-4.0818,-4.1483,-4.3085,-4.4132,-4.4778,-4.5683,-4.6267,-4.6453,-4.6147,-4.6022,-4.5963,-4.4796,-4.4197,-4.3928,-4.2797,-4.1934,-4.1182,-4.0235,-3.9323,-3.8498,-3.8331,-3.7715,-3.696,-3.7061,-3.6807,-3.6616,-3.7261,-3.6891,-3.6261,-3.6576,-3.6873,-3.7255,-3.8065,0.0,0.0,-4.0182,-4.0682,-4.1256,-4.1541,-4.177,-4.221,-4.322,-4.3595,-4.3982,-4.4701,-4.5033,-4.5393,-4.602,-4.7001,-4.7952,-4.868,-4.9804,-5.0588,-5.0746,-5.0998,-5.1511,-5.2241,-5.312,-5.3632,-5.3656,-5.4418,-5.4853,-5.4753,-5.4728,-5.4529,-5.4132,-5.2903,-5.2017,-5.1626,-5.0924,-5.0566,-5.044,-5.0133,-4.9622,-4.8829,-4.7717,-4.629,-4.4789,-4.4659,-4.4565,-4.4468,-4.4252,-4.4079,-4.4002,-4.3779,-4.3701,-4.3634,-4.3497,-4.2335,-4.0739,0.0,0.0,0.0,0.0,0.0,0.0,0.0,0.0,0.0,0.0,0.0,0.0,0.0,-2.6662,-2.6958,-2.7601,-2.8788,-3.0023,-3.1163,-3.3238,-3.4946,-3.614,-3.7359,-3.8492,-3.9546,-4.0664,-4.1483,-4.1964,-4.3243,-4.4065,-4.4323,-4.482,-4.5156,-4.5364,-4.5334,-4.5334,-4.5274,-4.4616,-4.3917,-4.32,-4.1953,-4.0785,-3.9677,-3.8656,-3.7674,-3.6878,-3.7658,-3.7353,-3.658,-3.6158,-3.5894,-3.5599,-3.4854,-3.4916,-3.5275,-3.5481,-3.7116,-3.8726,-3.8323,-3.947,-4.0788,-4.0853,-4.1038,-4.1388,-4.2198,-4.2591,-4.2983,-4.3816,-4.4244,-4.4524,-4.4592,-4.4789,-4.4986,-4.5208,-4.6025,-4.6722,-4.6962,-4.8527,-4.9699,-4.9821,-5.0642,-5.1248,0.0,-5.2202,-5.273,-5.2734,-5.3541,-5.4023,-5.393,-5.3861,-5.3434,-5.248,-5.2316,-5.1788,-5.0929,-5.072,-5.0587,-5.0577,-4.966,-4.9192,-4.9023,-4.7258,-4.5925,-4.4998,-4.4926,-4.4827,-4.4685,-4.4537,-4.434,-4.4094,-4.4002,-4.3913,-4.3788,-4.3651,-4.247,-4.0963,0.0,0.0,0.0,0.0,0.0,0.0,0.0,0.0,0.0,0.0,0.0,0.0,0.0,0.0,0.0,0.0,-2.8929,-3.0117,-3.0981,-3.3422,-3.5095,-3.5853,-3.7298,-3.8583,-3.973,-4.0351,-4.1127,-4.1977,-4.3034,-4.3734,-4.4098,-4.4751,-4.5096,-4.5274,-4.4855,-4.4646,-4.4586,-4.3479,-4.288,-4.2581,-4.1265,-4.0297,-3.9521,-3.7839,-3.6924,-3.6415,0.0,-3.4335,-3.4021,-3.3702,-3.3371,-3.318,-3.3617,-3.3659,-3.3835,-3.5381,-3.6875,-3.8259,-3.9355,-4.0634,-4.1627,-4.1714,-4.2235,-4.2831,-4.3139,-4.3279,-4.3319,-4.3212,-4.2895,-4.2693,-4.2857,-4.2989,-4.3338,-4.4098,-4.5475,-4.6543,-4.6753,-4.7862,-4.8932,-4.9664,-5.0067,0.0,0.0,0.0,0.0,-5.1836,-5.2655,-5.3115,-5.3125,-5.3058,-5.2859,-5.247,-5.1853,-5.1341,-5.0981,-5.0874,-5.0799,-5.0773,-4.9221,-4.8144,-4.7479,-4.6296,-4.5534,-4.5192,-4.5091,-4.4974,-4.484,-4.4699,-4.4537,-4.4368,-4.4199,-4.4048,-4.3855,-4.3241,-4.2258,-4.1188,0.0,0.0,0.0,0.0,0.0,0.0,0.0,0.0,0.0,0.0,0.0,0.0,0.0,0.0,0.0,0.0,0.0,-2.9932,-3.094,-3.3001,-3.4588,-3.5556,-3.6764,-3.797,-3.9033,-3.9424,-4.0025,-4.0829,-4.1712,-4.2315,-4.2624,-4.3358,-4.3777,-4.3868,-4.3449,-4.3269,-4.321,-4.241,-4.1782,-4.1205,-4.0127,-3.9092,-3.806,-3.6559,-3.5669,0.0,-3.3262,-3.2599,-3.2428,-3.2071,-3.1858,-3.1853,-3.266,-3.3427,-3.4268,-3.5528,-3.73,-3.9061,-4.0093,-4.1325,-4.2341,-4.2502,-4.3009,-4.348,-4.3566,-4.3343,-4.3078,-4.2739,-4.1891,-4.1255,-4.1407,-4.1593,-4.2033,-4.2998,-4.4463,-4.5633,-4.6135,-4.7069,-4.8069,-4.9034,-4.9536,-5.0186,0.0,0.0,0.0,-5.1403,-5.1914,-5.2225,-5.2249,-5.2195,-5.2166,-5.2115,-5.1511,-5.1164,-5.1076,-5.0988,-5.0604,-4.9953,-4.8407,-4.7192,-4.6292,-4.5717,-4.539,-4.5339,-4.5224,-4.5125,-4.5045,-4.4889,-4.4738,-4.4592,-4.4444,-4.4101,-4.361,-4.3014,-4.2032,-4.0947,0.0,0.0,0.0,0.0,0.0,0.0,0.0,0.0,0.0,0.0,0.0,0.0,0.0,0.0,0.0,0.0,0.0,0.0,-3.085,-3.2006,-3.3422,-3.519,-3.5901,-3.6703,-3.771,-3.806,-3.8389,-3.8826,-3.9661,-4.007,-4.007,-4.092,-4.1294,-4.1294,-4.1294,-4.1294,-4.1294,-4.1235,-4.0487,-3.926,-3.8571,-3.7165,-3.537,-3.4871,-3.394,-3.2936,-3.2461,-3.2199,-3.1892,-3.1329,-3.1396,-3.1779,-3.2101,-3.4121,-3.634,-3.6066,-3.8318,-4.0871,-4.0503,-4.1629,-4.2939,-4.316,-4.3286,-4.3375,-4.3443,-4.2904,-4.2382,-4.2308,-4.1206,-4.0271,0.0,0.0,-4.0904,-4.1907,-4.3007,-4.4064,-4.5065,-4.6071,-4.7077,0.0,0.0,0.0,0.0,0.0,0.0,-5.1384,0.0,-5.1406,-5.1405,-5.1391,-5.1412,-5.1399,-5.1261,-5.1195,-5.1219,-5.1043,-5.0044,-4.8222,-4.7362,-4.6446,-4.5594,-4.555,-4.5457,-4.541,-4.5339,-4.5288,-4.5277,-4.5103,-4.495,-4.4815,-4.4751,-4.4065,-4.3109,-4.2987,-4.1865,-4.0368,0.0,0.0,0.0,0.0,0.0,0.0,0.0,0.0,0.0,0.0,0.0,0.0,0.0,0.0,0.0,0.0,0.0,0.0,-3.0004,-3.1502,-3.2723,-3.3437,-3.4803,-3.5963,-3.6816,-3.7673,-3.8398,-3.9046,-3.9407,-3.9569,-3.9569,-3.9822,-3.9918,-3.9918,-3.9918,-3.9918,-3.9888,-3.9379,-3.8691,-3.7883,-3.7225,-3.6088,-3.4683,-3.4055,-3.3367,-3.2671,-3.1802,-3.1662,-3.18,-3.1549,-3.2318,-3.3551,-3.452,-3.5467,-3.6448,-3.7833,-3.9045,-4.0253,-4.1515,-4.2383,-4.2956,-4.3104,-4.3178,-4.3105,-4.2519,-4.2297,-4.1942,-4.0777,-3.9341,-3.8352,0.0,0.0,0.0,-3.9927,-4.1556,0.0,-4.4021,-4.5072,0.0,-4.8013,0.0,-4.9368,-5.099,-5.1185,0.0,0.0,-5.1373,-5.1398,-5.1406,-5.1405,-5.1398,-5.1412,-5.135,-5.1314,-5.1256,-5.0537,-4.9259,-4.741,-4.7155,-4.6569,-4.5648,-4.5646,-4.5603,-4.555,-4.5486,-4.5419,-4.5378,-4.5256,-4.5148,-4.5022,-4.4902,-4.4235,-4.325,-4.253,-4.1574,-4.048,0.0,0.0,0.0,0.0,0.0,0.0,0.0,0.0,0.0,0.0,0.0,0.0,0.0,0.0,0.0,0.0,0.0,0.0,0.0,-3.1195,-3.2098,-3.2614,-3.3732,-3.4522,-3.5037,-3.5659,-3.6183,-3.6637,-3.7037,-3.7255,-3.7255,-3.7554,-3.7704,-3.7704,-3.7704,-3.7704,-3.7674,-3.7285,-3.6746,0.0,0.0,-3.4562,-3.3544,-3.2886,-3.2496,-3.225,-3.1751,-3.1886,-3.2478,0.0,0.0,-3.4708,-3.6184,-3.7092,-3.7954,-3.9573,0.0,-4.1358,-4.2944,-4.3494,-4.3624,-4.3496,-4.3502,-4.3196,-4.1758,-4.1226,-4.06,-3.9019,-3.7484,0.0,-3.6546,0.0,0.0,0.0,0.0,0.0,-4.3521,-4.4609,-4.5992,0.0,-4.8219,0.0,-5.0868,-5.1119,-5.1162,0.0,-5.1344,-5.1385,-5.1402,-5.1406,-5.1405,-5.1396,-5.1418,-5.1188,-5.0735,-4.9455,-4.8244,-4.7172,-4.6758,-4.6278,-4.5742,-4.5735,-4.5695,-4.5646,0.0,-4.5523,-4.5467,-4.539,-4.5288,-4.5181,-4.5114,-4.4227,-4.2936,-4.2397,-4.1356,-4.0178,0.0,0.0,0.0,0.0,0.0,0.0,0.0,0.0,0.0,0.0,0.0,0.0,0.0,0.0,0.0,0.0,0.0,0.0,0.0,0.0,-3.1515,-3.2283,-3.2685,-3.2964,-3.3089,-3.3179,-3.3331,-3.3484,-3.4053,-3.4384,-3.4384,-3.4951,-3.522,-3.522,-3.522,-3.522,-3.522,-3.522,-3.4831,-3.4173,-3.3604,-3.2976,-3.2288,0.0,-3.1597,-3.1799,-3.1968,-3.2499,-3.3397,0.0,-3.5603,-3.5614,-3.7373,-3.8744,-3.9879,-4.0978,-4.1986,-4.2996,-4.421,-4.4541,-4.445,-4.394,-4.392,-4.3404,-4.1017,-3.9996,-3.9044,-3.7348,0.0,-3.4906,-3.4948,-3.5101,-3.5782,-3.7378,0.0,-4.118,-4.3013,-4.4227,-4.5687,-4.7719,-4.8105,-4.8916,-5.0774,-5.1043,-5.113,-5.1185,-5.131,-5.1369,-5.1385,-5.1402,-5.1367,-5.1211,-5.1238,-5.0733,-4.9694,-4.8175,-4.7305,-4.7134,-4.6308,-4.5899,-4.5827,-4.5824,-4.5788,-4.5696,-4.5654,-4.562,-4.5603,-4.5466,-4.5371,-4.5329,-4.5184,-4.4096,-4.2536,-4.2318,-4.1204,-3.9717,0.0,0.0,0.0,0.0,0.0,0.0,0.0,0.0,0.0,0.0,-2.7052,-2.6636,0.0,0.0,0.0,0.0,0.0,0.0,0.0,0.0,0.0,-3.1337,-3.2018,-3.2496,-3.2617,-3.3154,-3.3454,-3.3484,-3.3604,-3.3664,-3.3664,-3.3784,-3.3844,-3.3844,-3.3844,-3.3844,-3.3844,-3.3844,-3.3455,-3.2856,-3.2736,-3.2258,-3.166,-3.154,0.0,0.0,-3.2023,-3.2582,-3.3397,-3.5186,-3.6097,-3.6785,-3.8705,-3.9657,-4.0245,-4.1488,-4.2074,-4.2566,-4.3826,-4.4208,-4.413,-4.3607,-4.3575,-4.2889,-3.9911,-3.9229,0.0,0.0,-3.5333,-3.4732,-3.4746,-3.492,-3.5211,-3.5695,0.0,0.0,0.0,0.0,-4.4973,0.0,0.0,0.0,0.0,0.0,0.0,0.0,0.0,-5.1289,-5.1401,-5.1418,-5.1083,-5.0351,-5.0346,-4.9549,-4.795,-4.7621,-4.7076,-4.6298,-4.6134,-4.6012,-4.5968,-4.5899,-4.5848,-4.5786,-4.5773,0.0,-4.5695,-4.5603,-4.5559,-4.5455,-4.4633,-4.3665,-4.2639,-4.1802,-4.0843,-3.9933,0.0,0.0,0.0,0.0,0.0,0.0,0.0,-2.7519,-2.7821,-2.8072,-2.7645,-2.7334,-2.7403,-2.7619,0.0,0.0,0.0,0.0,0.0,0.0,0.0,0.0,-3.1545,-3.1842,-3.1989,-3.2288,-3.2437,-3.2437,0.0,-3.2437,-3.2437,-3.2437,-3.2437,-3.2437,-3.2437,-3.2437,-3.2437,-3.2437,-3.2258,-3.1959,-3.1959,-3.178,-3.1511,0.0,0.0,0.0,0.0,0.0,-3.2952,-3.4419,-3.5257,-3.6072,-3.8254,-3.9428,-4.0223,-4.1339,-4.2102,-4.2936,-4.4523,-4.5008,-4.4823,-4.388,-4.3775,-4.2875,-3.8925,0.0,0.0,0.0,-3.4027,-3.3831,-3.3861,-3.4352,0.0,0.0,0.0,0.0,0.0,0.0,0.0,0.0,0.0,0.0,0.0,0.0,0.0,0.0,0.0,-5.1146,-5.1307,-5.0925,-5.0334,-4.9451,-4.9023,-4.8392,-4.7517,-4.7079,-4.6623,-4.6141,-4.6141,-4.6103,-4.6061,-4.6012,-4.5964,-4.5886,-4.5854,0.0,-4.5742,-4.5727,-4.5654,-4.5509,-4.4592,-4.3636,-4.2728,-4.1791,-4.0882,-4.0099,0.0,0.0,0.0,0.0,0.0,0.0,0.0,-2.7921,-2.8323,-2.8448,-2.8473,-2.8357,-2.8135,-2.8064,-2.8082,0.0,0.0,0.0,0.0,0.0,0.0,0.0,0.0,0.0,0.0,0.0,0.0,0.0,-3.1511,0.0,0.0,0.0,0.0,0.0,-3.1511,-3.1511,-3.1511,-3.1511,-3.1511,0.0,0.0,-3.1511,0.0,0.0,0.0,0.0,0.0,0.0,-3.2588,-3.3658,-3.432,-3.5054,-3.6895,-3.8299,-3.953,-4.0714,-4.175,-4.2954,-4.4854,-4.5398,-4.5161,-4.4023,-4.3769,-4.2626,-3.8073,-3.7279,0.0,-3.341,-3.2834,-3.2914,-3.2993,-3.3862,-3.4531,0.0,-3.6125,0.0,0.0,0.0,0.0,0.0,0.0,0.0,0.0,0.0,0.0,0.0,0.0,0.0,-5.0888,-5.0238,-4.9423,-4.8541,-4.7925,-4.7461,-4.7263,-4.6633,-4.627,-4.6204,-4.6201,-4.6173,-4.6103,-4.6103,-4.6065,-4.6025,-4.5958,0.0,0.0,-4.5838,-4.5642,-4.5299,-4.4405,-4.3492,-4.2551,-4.1701,-4.0881,-4.0243,0.0,0.0,0.0,0.0,0.0,0.0,0.0,-2.8461,-2.9013,-2.9578,-2.9628,-2.9479,-2.9124,-2.8313,-2.7816,0.0,0.0,0.0,0.0,0.0,0.0,0.0,0.0,0.0,0.0,0.0,0.0,-3.1511,0.0,0.0,0.0,0.0,0.0,0.0,0.0,0.0,-3.1511,-3.1511,0.0,0.0,0.0,0.0,0.0,0.0,0.0,0.0,0.0,0.0,0.0,0.0,0.0,-3.4519,-3.4963,-3.6137,-3.7685,-3.936,0.0,0.0,-4.3578,-4.4147,-4.4079,-4.337,-4.2864,-4.1533,-3.7575,0.0,-3.6169,-3.3002,-3.2522,-3.2639,-3.2655,-3.3573,-3.4145,-3.3538,-3.5082,-3.7026,0.0,0.0,0.0,0.0,0.0,0.0,0.0,0.0,0.0,0.0,0.0,0.0,-4.9965,-4.9301,-4.8521,-4.7638,-4.7543,-4.7171,-4.6401,-4.6328,-4.6287,-4.6279,-4.6273,-4.6255,-4.6181,-4.6181,-4.6144,-4.6104,-4.6065,0.0,0.0,-4.5911,-4.5422,-4.4612,-4.3656,-4.2726,-4.18,-4.0915,-4.0513,-4.0389,0.0,0.0,0.0,0.0,0.0,0.0,-2.8021,-2.8574,-2.9126,-2.9704,-2.9804,-2.9617,-2.9088,-2.8504,-2.8148,-2.8158,0.0,0.0,0.0,0.0,0.0,0.0,0.0,0.0,0.0,0.0,-3.1511,-3.1511,-3.1511,0.0,0.0,0.0,0.0,0.0,0.0,0.0,-3.1511,-3.1511,0.0,0.0,0.0,0.0,0.0,0.0,0.0,0.0,0.0,0.0,0.0,0.0,0.0,0.0,-3.3522,-3.427,0.0,0.0,-3.9328,-4.0546,-4.224,-4.278,-4.277,-4.2228,-4.2018,-4.0927,-3.7159,0.0,-3.574,-3.2682,-3.2197,-3.2318,-3.2456,-3.3294,-3.3791,-3.3224,-3.4277,0.0,-3.7866,0.0,0.0,0.0,0.0,0.0,0.0,0.0,0.0,0.0,0.0,0.0,-4.8179,-4.8044,-4.7564,-4.6672,-4.6688,-4.6559,-4.6255,-4.6277,-4.6286,-4.6289,-4.6288,-4.6282,-4.6266,-4.6255,-4.6231,-4.6151,-4.6176,0.0,0.0,-4.6041,-4.5481,-4.4499,-4.3602,-4.2728,-4.1808,-4.0899,-4.0531,-4.046,0.0,0.0,0.0,0.0,0.0,-2.7469,-2.8021,-2.8574,-2.9126,-2.9704,-2.9804,-2.9628,-2.9189,-2.8697,-2.8405,-2.8455,-2.8312,0.0,0.0,0.0,0.0,0.0,0.0,0.0,0.0,0.0,-3.1511,-3.1511,-3.1511,-3.1511,0.0,0.0,0.0,0.0,0.0,0.0,0.0,0.0,0.0,0.0,0.0,0.0,0.0,0.0,0.0,0.0,0.0,0.0,0.0,0.0,0.0,0.0,0.0,-3.3007,-3.3915,0.0,-3.8064,-3.9329,-4.0873,-4.1437,-4.1527,-4.1227,-4.0934,-3.987,0.0,0.0,-3.5057,-3.228,-3.1839,-3.2018,-3.2179,-3.2792,-3.3192,-3.2889,-3.3701,-3.4956,-3.6757,0.0,0.0,0.0,0.0,0.0,0.0,0.0,0.0,0.0,0.0,0.0,-4.6661,-4.6797,-4.6629,-4.6081,-4.6126,-4.6161,-4.6161,-4.6245,-4.6267,-4.6274,-4.6285,-4.6289,-4.6287,-4.6319,-4.6267,-4.6247,-4.6233,0.0,0.0,-4.5732,-4.5021,-4.3818,-4.3218,-4.2434,-4.1571,-4.0874,-4.0588,-4.0561,0.0,0.0,0.0,0.0,0.0,0.0,-2.8021,-2.8574,-2.9126,-2.9704,-2.9804,-2.9804,-2.9779,-2.8949,-2.845,-2.8579,-2.8219,0.0,0.0,0.0,0.0,0.0,0.0,0.0,0.0,0.0,-3.1511,-3.1511,-3.1511,-3.1511,-3.1511,-3.1511,-3.1511,0.0,0.0,0.0,0.0,0.0,0.0,0.0,0.0,0.0,0.0,0.0,0.0,0.0,0.0,0.0,0.0,0.0,0.0,0.0,0.0,-3.2465,-3.3204,-3.5222,-3.6778,-3.8148,-3.9532,-4.0155,-4.0437,-4.0567,-3.9625,-3.8078,0.0,-3.5047,-3.4087,-3.1774,-3.1485,-3.1635,-3.1781,-3.1982,-3.2214,-3.2473,-3.3363,-3.4425,-3.5654,0.0,0.0,0.0,0.0,0.0,0.0,0.0,0.0,0.0,0.0,0.0,-4.5594,-4.5679,-4.5786,-4.5991,-4.6081,-4.6117,-4.6117,-4.6157,-4.6194,-4.6208,-4.6266,-4.6319,-4.6288,-4.6289,-4.6288,-4.6281,0.0,0.0,0.0,-4.4904,-4.3856,-4.2213,-4.2208,-4.1655,-4.0821,-4.0718,-4.0713,-4.0674,0.0,0.0,0.0,0.0,0.0,0.0,0.0,-2.7695,-2.7996,-2.8574,-2.8649,-2.8649,-2.8649,-2.8069,-2.7723,-2.7901,-2.7764,0.0,0.0,0.0,0.0,0.0,0.0,0.0,0.0,-3.1307,-3.1424,-3.1511,-3.1511,-3.1511,-3.1511,-3.1511,-3.1511,-3.1511,-3.1511,0.0,0.0,0.0,0.0,0.0,0.0,0.0,0.0,0.0,0.0,0.0,0.0,0.0,0.0,0.0,0.0,0.0,0.0,0.0,0.0,-3.3658,-3.4849,0.0,-3.6841,-3.7351,-3.7654,-3.7887,-3.7239,-3.6158,-3.4659,-3.3874,-3.3,-3.1315,-3.1157,-3.1404,-3.1542,-3.1781,-3.2174,-3.2984,-3.3477,-3.416,0.0,0.0,0.0,0.0,0.0,0.0,0.0,0.0,0.0,0.0,0.0,0.0,-4.5448,-4.5586,-4.568,-4.5854,-4.5929,-4.598,-4.6035,-4.6083,-4.6126,-4.6148,-4.6189,-4.6257,-4.6312,-4.6283,-4.5976,0.0,0.0,0.0,0.0,-4.409,-4.3407,-4.2331,-4.2229,-4.1686,-4.0926,-4.0853,-4.0809,-4.0781,0.0,0.0,0.0,0.0,0.0,0.0,0.0,-2.7293,-2.7469,-2.8021,-2.8097,-2.8097,-2.8097,-2.762,-2.74,-2.7601,-2.7353,0.0,0.0,0.0,0.0,0.0,0.0,0.0,-3.0895,-3.119,-3.1455,-3.1811,-3.184,-3.2019,-3.2228,-3.2228,-3.2108,-3.1869,-3.1869,-3.175,0.0,0.0,0.0,0.0,0.0,0.0,-3.1073,0.0,0.0,0.0,0.0,0.0,0.0,0.0,0.0,0.0,0.0,0.0,0.0,0.0,-3.3085,-3.3995,0.0,-3.5692,-3.5959,-3.5987,-3.5421,0.0,-3.3388,-3.2683,-3.1989,-3.0804,-3.1031,-3.1409,-3.1249,-3.1647,-3.2151,-3.2641,-3.3402,0.0,0.0,0.0,0.0,0.0,0.0,0.0,0.0,0.0,0.0,0.0,0.0,0.0,-4.5281,-4.5429,-4.5559,-4.5665,-4.5793,-4.5867,-4.5905,-4.5986,-4.6042,-4.6087,-4.5822,-4.5705,-4.5777,-4.5443,-4.4988,0.0,0.0,0.0,0.0,-4.3222,-4.2703,-4.1911,-4.1821,-4.1484,-4.1009,-4.0978,-4.0903,-4.0883,0.0,0.0,0.0,0.0,0.0,0.0,0.0,-2.7218,-2.7394,-2.7921,-2.7996,-2.7996,-2.7996,-2.7519,-2.7314,-2.749,0.0,0.0,0.0,0.0,0.0,0.0,0.0,0.0,-3.0568,-3.1014,-3.1605,-3.2287,-3.2407,-3.2826,-3.3484,-3.3484,-3.3155,-3.2527,-3.2527,-3.2108,-3.1511,0.0,0.0,0.0,0.0,0.0,0.0,0.0,0.0,0.0,0.0,0.0,0.0,0.0,0.0,0.0,0.0,0.0,0.0,0.0,0.0,0.0,0.0,-3.4892,-3.5071,-3.4697,0.0,0.0,-3.2119,-3.1508,0.0,-3.0293,-3.1,-3.1541,-3.0877,-3.1584,-3.213,-3.1728,-3.319,0.0,0.0,0.0,0.0,0.0,0.0,0.0,0.0,0.0,0.0,0.0,0.0,0.0,-4.5004,-4.5126,-4.5204,-4.5189,-4.5461,-4.5633,-4.5793,-4.5783,-4.5869,-4.5993,-4.5122,-4.474,-4.476,-4.3955,-4.3585,0.0,0.0,0.0,0.0,-4.2302,-4.1828,-4.1119,-4.1094,-4.1118,-4.1072,-4.1013,-4.1023,-4.1015,0.0,0.0,0.0,0.0,0.0,0.0,0.0,0.0,0.0,0.0,-2.6876,-2.6876,-2.6876,-2.6776,-2.6735,0.0,0.0,0.0,0.0,0.0,0.0,0.0,0.0,0.0,-3.0357,-3.0628,-3.1188,-3.2076,-3.2257,-3.2675,-3.3269,-3.3423,-3.3155,-3.2527,-3.2527,-3.2108,-3.1511,-3.1511,0.0,0.0,0.0,0.0,0.0,0.0,0.0,0.0,-2.9744,-2.9741,0.0,0.0,0.0,0.0,0.0,0.0,0.0,0.0,-3.0984,-3.1337,-3.178,0.0,-3.3025,-3.2609,-3.1997,-3.1319,0.0,-3.0261,-2.9865,-2.9681,0.0,-3.1144,-3.0525,-3.1295,-3.2055,-3.227,0.0,0.0,0.0,0.0,0.0,0.0,0.0,0.0,0.0,0.0,0.0,0.0,0.0,-4.4525,-4.3919,-4.4045,-4.3874,-4.3268,-4.3407,-4.4184,-4.5626,-4.5063,-4.4833,-4.4936,-4.4117,-4.3763,-4.381,-4.3619,-4.3224,0.0,0.0,0.0,-4.1398,-4.1403,-4.1289,-4.1092,-4.1085,-4.1116,-4.1108,-4.1072,-4.1095,-4.105,0.0,0.0,0.0,0.0,0.0,0.0,0.0,0.0,0.0,0.0,0.0,0.0,0.0,0.0,0.0,0.0,0.0,0.0,0.0,0.0,0.0,0.0,0.0,-2.9463,-2.996,-3.0522,-3.1261,-3.2211,-3.272,-3.3317,-3.397,-3.4097,-3.3804,-3.3242,-3.2706,-3.2108,-3.1511,-3.1453,-3.1336,-3.119,-3.0984,0.0,0.0,0.0,0.0,0.0,-2.918,-2.9145,0.0,-2.9145,-2.9145,-2.918,0.0,0.0,0.0,0.0,-3.0388,-3.0598,-3.0658,-3.1364,-3.1891,-3.1098,-3.0737,-3.0339,-2.964,0.0,0.0,0.0,0.0,-3.0758,-3.0185,-3.0945,0.0,0.0,0.0,0.0,0.0,0.0,0.0,0.0,0.0,0.0,0.0,0.0,0.0,0.0,0.0,-4.3171,-4.2733,-4.2949,-4.2864,-4.242,-4.2584,-4.3206,-4.4346,-4.3965,-4.3813,-4.3929,-4.3105,-4.2759,-4.2825,-4.2437,-4.2097,0.0,0.0,0.0,-4.1101,-4.1108,-4.1081,-4.1091,-4.1094,-4.1093,-4.1091,-4.1114,-4.1104,-4.1103,0.0,0.0,0.0,0.0,0.0,0.0,0.0,0.0,0.0,0.0,0.0,0.0,0.0,0.0,0.0,0.0,0.0,0.0,0.0,0.0,0.0,0.0,-2.8514,-2.9017,-2.96,-3.0425,-3.14,-3.2503,-3.3216,-3.3992,-3.4835,-3.4868,-3.4555,-3.3979,-3.2884,-3.2079,-3.1424,-3.1336,-3.119,-3.0984,-3.0687,0.0,0.0,0.0,0.0,0.0,0.0,0.0,0.0,-2.8444,-2.8444,-2.8509,-2.883,0.0,0.0,0.0,0.0,0.0,-3.0144,-3.0807,-3.121,-3.0175,-2.9997,-2.9842,-2.8836,0.0,0.0,0.0,0.0,0.0,0.0,-3.0576,0.0,0.0,0.0,0.0,0.0,0.0,0.0,0.0,0.0,0.0,0.0,0.0,0.0,0.0,0.0,-4.1684,-4.1572,-4.1805,-4.187,-4.1769,-4.1949,-4.2172,-4.2422,-4.2648,-4.2829,-4.2965,-4.207,-4.1756,-4.1856,-4.1114,-4.0824,-4.0956,0.0,0.0,-4.1061,-4.1061,-4.1085,-4.1114,-4.1081,-4.1087,-4.1091,-4.1093,-4.1091,-4.109,0.0,0.0,0.0,0.0,0.0,0.0,0.0,0.0,0.0,0.0,0.0,0.0,0.0,0.0,0.0,0.0,0.0,0.0,0.0,0.0,0.0,-2.7423,-2.8026,-2.879,-2.9663,-2.9974,-3.0946,-3.2572,-3.2887,-3.3528,-3.4467,-3.4664,-3.4185,-3.3138,-3.2401,-3.1752,-3.1161,-3.1132,-3.0955,-3.0657,-3.0598,0.0,0.0,0.0,0.0,0.0,0.0,0.0,0.0,-2.7723,-2.7789,-2.7954,-2.8118,0.0,0.0,0.0,0.0,0.0,-2.962,-3.0021,-3.0275,-3.0043,-2.9786,-2.9432,-2.8811,-2.8459,0.0,0.0,0.0,0.0,0.0,-3.016,0.0,0.0,0.0,0.0,0.0,0.0,0.0,0.0,0.0,0.0,0.0,0.0,0.0,0.0,0.0,-4.1067,-4.0422,-4.0579,-4.0395,-3.975,-3.989,-4.0047,-4.0197,-4.1165,-4.1695,-4.1839,-4.1003,-4.0708,-4.0822,-4.0706,-4.07,-4.0814,0.0,-4.0912,-4.1034,-4.1034,-4.1033,-4.1083,-4.1085,-4.1099,-4.1116,-4.1088,-4.1091,-4.1092,0.0,0.0,0.0,0.0,0.0,0.0,0.0,0.0,0.0,0.0,0.0,0.0,0.0,0.0,0.0,0.0,0.0,0.0,0.0,0.0,-2.6782,-2.6952,-2.7642,-2.8437,-2.9241,-2.9794,-3.0739,-3.2171,-3.2576,-3.319,-3.3985,-3.4259,-3.3732,-3.255,-3.2416,-3.1835,-3.0955,-3.0955,-3.0806,-3.0568,0.0,0.0,0.0,0.0,0.0,0.0,0.0,0.0,0.0,0.0,-2.7315,-2.739,-2.7556,0.0,0.0,0.0,0.0,0.0,-2.9085,-2.9369,-2.9597,-2.9741,-2.9726,-2.9444,-2.8651,-2.8411,0.0,0.0,0.0,0.0,0.0,0.0,0.0,0.0,0.0,0.0,0.0,0.0,0.0,0.0,0.0,0.0,0.0,0.0,0.0,0.0,0.0,0.0,-3.9187,-3.8944,-3.866,-3.8451,-3.815,-3.8066,-3.8188,-3.8761,-3.9634,-4.0788,-4.0416,-4.0325,-4.0508,-4.0508,-4.0537,-4.0655,0.0,-4.0742,-4.0786,-4.0388,-4.0516,-4.096,-4.0516,-4.0616,-4.1069,-4.1097,-4.1111,-4.1082,0.0,0.0,0.0,0.0,0.0,0.0,0.0,0.0,0.0,0.0,0.0,0.0,0.0,0.0,0.0,0.0,0.0,0.0,0.0,-2.6602,-2.6645,-2.6645,-2.7351,-2.8127,-2.8913,-2.9704,-3.0643,-3.1768,-3.2269,-3.2838,-3.3396,-3.375,-3.3269,-3.2101,-3.2356,-3.1787,-3.0657,-3.0657,-3.0507,-3.0326,0.0,0.0,0.0,0.0,0.0,0.0,0.0,0.0,0.0,0.0,0.0,0.0,0.0,0.0,0.0,-2.7756,-2.796,-2.8189,-2.8514,-2.8766,-2.899,-2.9397,-2.9567,-2.9405,-2.8569,-2.8346,0.0,0.0,0.0,0.0,0.0,0.0,0.0,0.0,0.0,0.0,0.0,0.0,0.0,0.0,0.0,0.0,0.0,0.0,0.0,0.0,0.0,0.0,-3.7705,-3.728,-3.7081,-3.7292,-3.6791,-3.6628,-3.6795,-3.6858,-3.7758,-3.9437,-3.9437,-3.9547,-3.975,-3.975,-3.978,-3.9861,-3.9945,-4.0009,-4.0005,-3.9414,-3.9585,-4.0223,-3.9613,-3.9805,-4.0418,-4.046,-4.0606,-4.0785,0.0,0.0,0.0,0.0,0.0,0.0,0.0,0.0,0.0,0.0,0.0,0.0,0.0,0.0,0.0,0.0,0.0,0.0,0.0,-2.6499,-2.6499,-2.6499,-2.7202,-2.8078,-2.8957,-2.9745,-3.0613,-3.1599,-3.1836,-3.2228,-3.2775,-3.3164,-3.2794,-3.174,-3.1772,-3.1187,-3.0142,-3.0142,-2.9958,-2.9679,-2.9648,0.0,0.0,0.0,0.0,0.0,0.0,0.0,0.0,0.0,0.0,0.0,0.0,0.0,-2.7079,-2.7315,-2.7456,-2.7623,-2.796,-2.8189,-2.8481,-2.899,-2.9141,-2.9028,-2.8653,-2.8238,0.0,-2.7684,0.0,0.0,0.0,0.0,0.0,0.0,0.0,0.0,0.0,0.0,0.0,0.0,0.0,0.0,0.0,0.0,0.0,0.0,0.0,0.0,-3.5719,-3.5776,-3.5898,-3.6142,-3.6083,-3.6193,-3.6545,-3.6509,-3.687,-3.7511,-3.7511,-3.7599,-3.7794,-3.7794,-3.7877,-3.8014,-3.8054,-3.8116,-3.8197,-3.8202,-3.8272,-3.8374,-3.8389,-3.849,-3.8587,-3.861,-3.9098,-3.9825,0.0,0.0,0.0,0.0,0.0,0.0,0.0,0.0,0.0,0.0,0.0,0.0,0.0,0.0,0.0,0.0,0.0,0.0,0.0,-2.6499,-2.6499,-2.6499,-2.7389,-2.8077,-2.8424,-2.9314,-3.0177,-3.1048,-3.1495,-3.1863,-3.2191,-3.2105,-3.1682,-3.1015,-3.0726,-3.0275,-2.962,-2.9741,-2.962,-2.9401,-2.9184,-2.8803,0.0,0.0,0.0,0.0,0.0,0.0,0.0,0.0,-2.6533,-2.6602,-2.6602,-2.6705,-2.6841,-2.6884,-2.7045,-2.7248,-2.749,-2.7689,-2.7921,-2.8314,-2.8511,0.0,0.0,-2.8713,-2.8568,-2.8289,-2.8063,0.0,0.0,0.0,0.0,0.0,0.0,0.0,0.0,0.0,0.0,0.0,0.0,0.0,0.0,0.0,0.0,0.0,0.0,0.0,-3.5013,-3.4707,-3.4605,-3.4763,-3.4388,-3.4352,-3.4613,-3.4669,-3.4874,-3.5218,-3.6456,-3.7152,-3.7348,-3.7379,-3.745,-3.7509,-3.7584,-3.7686,-3.7717,-3.7233,-3.7432,-3.8012,-3.8131,-3.8219,-3.8282,-3.8321,-3.8546,-3.8844,0.0,0.0,0.0,0.0,0.0,0.0,0.0,0.0,0.0,0.0,0.0,0.0,0.0,0.0,0.0,0.0,0.0,0.0,-2.6499,-2.6499,-2.6499,-2.6499,-2.7379,-2.7921,-2.8097,-2.8909,-2.9692,-3.0508,-3.1048,-3.1384,-3.1495,-3.1173,-3.0794,-3.0337,-2.9941,-2.9503,-2.9089,-2.9212,-2.918,-2.8962,-2.8739,-2.8449,0.0,0.0,0.0,0.0,0.0,0.0,0.0,0.0,-2.6499,-2.6499,-2.6499,-2.6568,-2.6645,-2.6645,-2.6773,-2.6943,-2.7079,-2.7222,-2.739,-2.7723,0.0,0.0,-2.8529,-2.871,-2.8703,-2.8484,-2.8414,0.0,0.0,0.0,0.0,0.0,0.0,0.0,0.0,0.0,0.0,0.0,0.0,0.0,0.0,0.0,0.0,0.0,0.0,0.0,0.0,-3.3459,-3.3316,-3.345,-3.3116,-3.3055,-3.3283,-3.3386,-3.3545,-3.3739,-3.5138,-3.5988,-3.625,-3.6306,-3.6384,-3.6421,-3.6553,-3.6633,-3.6663,-3.6147,-3.6366,-3.7064,-3.7154,-3.725,-3.732,-3.7367,-3.7566,-3.7836,0.0,0.0,0.0,0.0,0.0,0.0,0.0,0.0,0.0,0.0,0.0,0.0,0.0,0.0,0.0,0.0,0.0,0.0,-2.6499,-2.6499,-2.6499,-2.6499,-2.7027,-2.7544,-2.8097,-2.8612,-2.9277,-3.0126,-3.0508,-3.0698,-3.0698,-3.0472,-3.0156,-2.9749,-2.9368,-2.8978,-2.86,-2.86,-2.8476,-2.8287,-2.8287,-2.8091,-2.7789,0.0,0.0,0.0,0.0,0.0,0.0,0.0,-2.6499,-2.6499,-2.6499,-2.6499,-2.6499,-2.6499,-2.6602,-2.6679,-2.6679,-2.6841,-2.7045,0.0,0.0,0.0,-2.7921,-2.8053,-2.8102,-2.8108,-2.8567,-2.8838,-2.8218,0.0,0.0,0.0,0.0,0.0,0.0,0.0,0.0,0.0,0.0,0.0,0.0,0.0,0.0,0.0,0.0,0.0,0.0,-3.1948,-3.2144,-3.2301,-3.2506,-3.2653,-3.2795,-3.2988,-3.3178,-3.3306,-3.343,-3.3739,-3.4216,-3.4239,-3.4381,-3.4495,-3.4561,-3.4685,-3.4798,-3.486,-3.5019,-3.519,-3.5269,-3.5339,-3.5405,-3.5416,-3.5977,-3.6781,0.0,0.0,0.0,0.0,0.0,0.0,0.0,0.0,0.0,0.0,0.0,0.0,0.0,0.0,0.0,0.0,0.0,0.0,-2.6499,-2.6499,-2.6499,-2.6499,-2.7027,-2.7344,-2.7519,-2.8411,-2.9277,-3.0126,-3.0241,-3.0356,-3.0457,-2.9615,-2.9217,-2.9125,-2.8365,-2.8014,-2.8052,-2.821,-2.821,-2.8118,-2.7855,-2.7689,-2.7556,0.0,0.0,0.0,0.0,0.0,0.0,0.0,0.0,0.0,-2.6499,-2.6499,-2.6499,-2.6499,-2.6533,-2.6568,-2.6568,-2.6983,0.0,-2.7522,0.0,0.0,0.0,-2.8153,0.0,0.0,-2.8618,-2.8857,-2.8224,0.0,0.0,0.0,0.0,0.0,0.0,0.0,0.0,0.0,0.0,0.0,0.0,0.0,0.0,0.0,0.0,0.0,0.0,-3.1278,-3.1488,-3.1728,-3.2002,-3.2179,-3.2386,-3.2589,-3.2753,-3.2894,-3.2972,-3.3321,-3.386,-3.3926,-3.4005,-3.4142,-3.4203,-3.4335,-3.4461,-3.4626,-3.4771,-3.4936,-3.4982,-3.5072,-3.5204,-3.5239,-3.5454,-3.5736,0.0,0.0,0.0,0.0,0.0,0.0,0.0,0.0,0.0,0.0,-2.6499,-2.6499,0.0,0.0,0.0,0.0,0.0,0.0,0.0,-2.6499,-2.6499,-2.6499,-2.6826,-2.7042,-2.7197,-2.8037,-2.8675,-2.9177,-2.9479,-2.9593,-2.9452,-2.8864,-2.8503,-2.8354,-2.7834,-2.7564,-2.749,-2.7616,-2.7649,-2.7649,-2.7416,-2.7315,-2.7281,0.0,0.0,0.0,0.0,0.0,0.0,0.0,0.0,0.0,-2.6499,-2.665,-2.6826,-2.6826,-2.6826,-2.6826,-2.6826,-2.7148,0.0,-2.747,-2.7611,-2.771,-2.7653,0.0,0.0,0.0,0.0,-2.889,-2.8241,0.0,0.0,0.0,0.0,0.0,0.0,0.0,0.0,0.0,0.0,0.0,0.0,0.0,0.0,0.0,0.0,0.0,0.0,-3.0744,-3.0965,-3.1201,-3.1451,-3.1694,-3.193,-3.2109,-3.2301,-3.2453,-3.252,-3.2798,-3.3217,-3.3437,-3.3671,-3.382,-3.3952,-3.408,-3.4179,-3.4381,-3.4506,-3.4604,-3.471,-3.4811,-3.4927,-3.4973,-3.5054,-3.5124,0.0,0.0,0.0,0.0,0.0,0.0,0.0,0.0,0.0,0.0,-2.6499,-2.6499,0.0,0.0,0.0,0.0,0.0,0.0,0.0,-2.6524,-2.6524,-2.654,-2.649,-2.6586,-2.6884,-2.7431,-2.7704,-2.7654,-2.8437,-2.8562,-2.8097,-2.8304,-2.8124,-2.7652,-2.7752,-2.7515,-2.7054,-2.7003,-2.6977,-2.6977,-2.6977,-2.6977,-2.6943,-2.6773,0.0,0.0,0.0,0.0,0.0,0.0,0.0,0.0,-2.6499,-2.6876,-2.7293,-2.7293,-2.7293,-2.7293,-2.7293,-2.7354,0.0,-2.7344,-2.7511,0.0,-2.7148,-2.7475,-2.7795,-2.7488,0.0,-2.8825,0.0,0.0,0.0,0.0,0.0,0.0,0.0,0.0,0.0,0.0,0.0,0.0,0.0,0.0,0.0,0.0,0.0,0.0,0.0,-3.03,-3.0531,-3.0744,-3.0925,-3.1162,-3.1428,-3.1564,-3.1749,-3.2054,-3.2108,-3.2249,-3.2421,-3.2945,-3.3268,-3.3481,-3.3657,-3.3834,-3.3941,-3.4068,-3.4166,-3.4288,-3.4404,-3.4495,-3.4561,-3.4615,-3.474,-3.487,0.0,0.0,0.0,0.0,0.0,0.0,0.0,0.0,0.0,0.0,0.0,0.0,0.0,0.0,0.0,0.0,0.0,0.0,0.0,-2.6725,-2.6606,-2.6891,-2.6342,-2.6064,-2.6153,-2.667,-2.6744,-2.6325,-2.7614,-2.8222,-2.8097,-2.8133,-2.8083,-2.7994,-2.7744,-2.7596,-2.7443,-2.7148,-2.6977,-2.6977,-2.6841,-2.6748,-2.6748,-2.6602,-2.6533,0.0,0.0,0.0,0.0,0.0,0.0,0.0,-2.6499,-2.6876,-2.7293,-2.7293,-2.7293,-2.7293,-2.7293,-2.7595,0.0,0.0,-2.7957,-2.7904,-2.7525,-2.7216,-2.7069,-2.7399,-2.788,0.0,0.0,0.0,0.0,0.0,0.0,0.0,0.0,0.0,0.0,0.0,0.0,0.0,0.0,0.0,0.0,0.0,0.0,0.0,-2.9627,-2.9694,-2.9913,-3.0321,-3.0414,-3.0642,-3.0945,-3.1098,-3.1254,-3.1485,-3.1598,-3.1728,-3.1895,-3.247,-3.2882,-3.3117,-3.3247,-3.3364,-3.3465,-3.3671,-3.3807,-3.3926,-3.4016,-3.4117,-3.43,-3.4323,-3.4404,-3.4528,0.0,0.0,0.0,0.0,0.0,0.0,0.0,0.0,0.0,0.0,0.0,0.0,0.0,0.0,0.0,0.0,0.0,0.0,0.0,0.0,-2.7055,-2.684,-2.632,-2.5873,-2.5606,-2.5802,-2.5731,-2.5465,-2.6685,-2.737,-2.7587,-2.7826,-2.8024,-2.8097,-2.7929,-2.7687,-2.7445,-2.6958,-2.6773,-2.6739,-2.6671,-2.6602,-2.6602,-2.6533,-2.6499,-2.6499,-2.6499,0.0,0.0,0.0,0.0,0.0,0.0,0.0,-2.7293,-2.7293,-2.7233,-2.7212,-2.7476,0.0,0.0,-2.8127,0.0,-2.7716,-2.7276,-2.6726,-2.6405,-2.6816,0.0,0.0,0.0,0.0,0.0,0.0,0.0,0.0,0.0,0.0,0.0,0.0,0.0,0.0,0.0,0.0,0.0,0.0,0.0,-2.8566,-2.8982,-2.9082,-2.9312,-2.9738,-2.987,-3.0097,-3.0531,-3.0572,-3.0736,-3.1018,-3.1137,-3.1278,-3.1526,-3.2109,-3.2506,-3.2653,-3.283,-3.2972,-3.306,-3.3232,-3.3401,-3.3508,-3.3578,-3.3703,-3.3887,-3.3913,-3.4016,-3.4093,0.0,0.0,0.0,0.0,0.0,0.0,0.0,0.0,0.0,0.0,0.0,0.0,0.0,0.0,0.0,0.0,0.0,0.0,0.0,0.0,0.0,-2.676,-2.6239,-2.5756,-2.5266,-2.4992,-2.4874,-2.4874,-2.5877,-2.6578,-2.704,-2.7594,-2.7965,-2.8174,-2.8174,-2.791,-2.7394,-2.6876,-2.6575,-2.6499,-2.6499,-2.6499,-2.6499,-2.6499,-2.6499,-2.6499,-2.6499,-2.6499,-2.6499,-2.6499,0.0,0.0,0.0,0.0,-2.7268,-2.7258,-2.7126,-2.7108,-2.7606,0.0,-2.7704,-2.8243,-2.79,0.0,-2.6834,-2.6246,-2.5816,0.0,0.0,0.0,0.0,0.0,0.0,0.0,0.0,0.0,0.0,0.0,0.0,0.0,0.0,0.0,0.0,0.0,0.0,0.0,0.0,-2.8008,-2.8319,-2.8494,-2.8756,-2.9152,-2.9289,-2.9582,-3.0022,-3.0076,-3.0215,-3.051,-3.0621,-3.0845,-3.1142,-3.171,-3.2037,-3.2179,-3.2404,-3.2554,-3.2666,-3.2814,-3.2977,-3.3101,-3.3157,-3.3247,-3.3386,-3.3444,-3.3559,-3.3698,0.0,0.0,0.0,0.0,0.0,0.0,0.0,0.0,0.0,0.0,-2.7921,-2.7921,0.0,0.0,0.0,0.0,0.0,0.0,-2.8512,0.0,0.0,-2.69,-2.5877,-2.5298,-2.5228,-2.4626,-2.4309,-2.4309,-2.548,-2.6409,-2.7103,-2.7867,-2.8348,-2.8537,-2.8537,-2.835,-2.7971,-2.7394,-2.6927,-2.6499,-2.6499,-2.6499,-2.6499,-2.6499,-2.6499,-2.6499,-2.6499,-2.6499,-2.6499,-2.6499,-2.6499,0.0,0.0,0.0,-2.7268,-2.7091,-2.7019,-2.7072,0.0,0.0,-2.8051,0.0,-2.7863,-2.6938,0.0,0.0,-2.5394,0.0,0.0,0.0,0.0,0.0,0.0,0.0,0.0,0.0,0.0,0.0,0.0,0.0,0.0,0.0,0.0,0.0,0.0,0.0,-2.7528,-2.7408,-2.76,-2.7934,-2.8253,-2.8583,-2.8756,-2.899,-2.9403,-2.9538,-2.9649,-2.975,-3.0108,-3.0342,-3.0456,-3.0777,-3.1196,-3.171,-3.1912,-3.2073,-3.2197,-3.2353,-3.2472,-3.2589,-3.2672,-3.2782,-3.2874,-3.289,-3.3034,-3.3193,0.0,0.0,0.0,0.0,0.0,0.0,0.0,0.0,0.0,0.0,0.0,-2.8222,0.0,0.0,0.0,-2.9026,-2.8912,-2.8746,-2.8568,-2.8319,-2.7726,-2.6853,-2.5969,-2.5248,-2.471,-2.4047,-2.3801,-2.4093,-2.5315,-2.624,-2.6944,-2.7851,-2.8595,-2.9126,-2.8667,-2.825,-2.7889,-2.734,-2.6897,-2.6499,-2.6499,-2.6499,-2.6499,-2.6499,-2.6499,-2.6499,-2.6499,-2.6499,-2.6499,-2.6499,-2.6499,-2.6499,-2.6499,0.0,0.0,0.0,-2.6325,-2.6152,-2.6695,-2.7281,-2.779,0.0,-2.7136,-2.623,-2.623,0.0,0.0,0.0,0.0,0.0,0.0,0.0,0.0,0.0,0.0,0.0,0.0,0.0,0.0,0.0,0.0,0.0,0.0,0.0,0.0,0.0,-2.7216,-2.7113,-2.6941,-2.7331,-2.7685,-2.8008,-2.8204,-2.8494,-2.885,-2.899,-2.9175,-2.9425,-2.9605,-2.9782,-2.9924,-3.0097,-3.0539,-3.1162,-3.1355,-3.1526,-3.1673,-3.1857,-3.1949,-3.2056,-3.2162,-3.2266,-3.2351,-3.2351,-3.2504,-3.2636,0.0,0.0,0.0,0.0,0.0,0.0,0.0,0.0,0.0,0.0,0.0,0.0,0.0,0.0,0.0,0.0,-2.9482,-2.9067,-2.8562,-2.8299,-2.7749,-2.6777,-2.5858,-2.5047,-2.4266,-2.3457,-2.3251,-2.3585,-2.4935,-2.5828,-2.6371,-2.7436,-2.8361,-2.9039,-2.8567,-2.8145,-2.7817,-2.7383,-2.698,-2.6631,-2.6515,-2.6499,-2.6499,-2.6499,-2.6575,-2.67,-2.67,-2.67,0.0,0.0,-2.66,-2.6499,-2.643,-2.6327,0.0,0.0,0.0,0.0,0.0,0.0,-2.6875,-2.6875,-2.6034,-2.5202,0.0,0.0,0.0,0.0,0.0,0.0,0.0,0.0,0.0,0.0,0.0,0.0,0.0,0.0,0.0,0.0,0.0,0.0,0.0,0.0,0.0,0.0,-2.7087,-2.7003,-2.6487,-2.6944,-2.7251,-2.7357,-2.7635,-2.7959,-2.8271,-2.8446,-2.8708,-2.9091,-2.9082,-2.9198,-2.9371,-2.9506,-2.9881,-3.0456,-3.0764,-3.0965,-3.1117,-3.1312,-3.1393,-3.1473,-3.1582,-3.1694,-3.177,-3.177,-3.1913,-3.2109,0.0,0.0,0.0,0.0,0.0,0.0,0.0,0.0,0.0,0.0,0.0,0.0,-2.9754,-2.951,-2.9394,-2.9419,-2.9248,-2.8934,-2.8522,-2.7736,-2.7144,-2.6899,-2.5387,0.0,-2.414,-2.3024,-2.2461,-2.2483,-2.4147,-2.4981,-2.5025,-2.661,-2.7479,-2.7752,-2.8248,-2.8279,-2.7978,-2.7817,-2.7444,-2.6934,-2.6631,-2.6499,-2.6499,-2.6499,-2.6826,-2.7278,-2.7278,0.0,0.0,0.0,0.0,0.0,0.0,0.0,-2.6084,0.0,0.0,0.0,0.0,-2.5272,0.0,-2.5234,-2.4581,0.0,0.0,0.0,0.0,0.0,0.0,0.0,0.0,0.0,0.0,0.0,0.0,0.0,0.0,0.0,0.0,0.0,0.0,0.0,0.0,0.0,0.0,0.0,-2.7267,-2.6931,-2.6323,-2.6891,-2.7049,-2.6765,-2.7049,-2.7386,-2.7635,-2.791,-2.8186,-2.846,-2.8518,-2.8606,-2.8756,-2.8897,-2.9106,-2.9403,-3.0075,-3.0414,-3.0551,-3.0675,-3.0797,-3.0865,-3.0865,-3.0985,-3.1162,-3.1162,-3.1298,-3.1542,0.0,0.0,0.0,0.0,0.0,0.0,0.0,0.0,0.0,0.0,0.0,0.0,0.0,-2.9248,-2.9209,-2.9209,-2.8895,-2.8419,-2.7713,-2.7249,-2.6798,-2.6282,-2.4824,-2.3865,-2.3545,-2.2428,-2.198,-2.225,-2.3592,-2.4492,-2.4935,-2.6129,-2.6777,-2.699,-2.7579,-2.7854,-2.7796,-2.7378,-2.7164,-2.6984,-2.6482,-2.6361,-2.6524,-2.6876,-2.7153,0.0,0.0,0.0,0.0,0.0,0.0,0.0,0.0,0.0,0.0,0.0,0.0,0.0,0.0,0.0,0.0,-2.45,-2.3916,-2.3251,0.0,0.0,0.0,0.0,0.0,0.0,0.0,0.0,0.0,0.0,0.0,0.0,0.0,0.0,0.0,0.0,0.0,0.0,0.0,0.0,0.0,0.0,0.0,-2.6866,-2.6274,-2.6842,-2.703,-2.6581,-2.6966,-2.7251,-2.7335,-2.7463,-2.764,-2.789,-2.791,-2.8033,-2.8253,-2.8301,-2.847,-2.874,-2.9028,-2.9461,-2.9924,-3.0087,-3.0194,-3.03,-3.0384,-3.0468,-3.0531,-3.0531,-3.0675,-3.0858,0.0,0.0,0.0,0.0,0.0,0.0,0.0,0.0,0.0,-2.9037,0.0,0.0,0.0,0.0,-2.8736,-2.8578,-2.8259,-2.7753,-2.7021,-2.6715,-2.626,-2.5591,-2.4445,-2.3552,-2.3001,-2.2065,-2.1681,-2.1842,-2.2777,-2.3536,-2.4116,-2.5062,-2.5701,-2.6065,-2.6685,-2.7163,-2.749,-2.6995,-2.683,-2.6943,0.0,0.0,-2.6446,0.0,0.0,0.0,0.0,0.0,0.0,0.0,0.0,0.0,0.0,0.0,0.0,0.0,0.0,0.0,-2.3633,0.0,0.0,0.0,0.0,-2.2342,0.0,0.0,0.0,0.0,0.0,0.0,0.0,0.0,0.0,0.0,0.0,0.0,0.0,0.0,0.0,0.0,0.0,0.0,0.0,0.0,0.0,0.0,0.0,0.0,-2.6175,-2.6804,-2.7051,-2.674,-2.6891,-2.7027,-2.7137,-2.6983,-2.6997,-2.7229,-2.728,-2.7433,-2.763,-2.771,-2.7865,-2.8063,-2.8155,-2.8583,-2.9234,-2.9393,-2.9506,-2.9649,-2.9738,-2.9804,-2.9892,-2.9892,-3.0,-3.0172,0.0,0.0,0.0,0.0,0.0,0.0,0.0,0.0,-2.9367,-2.8849,0.0,0.0,0.0,0.0,0.0,-2.751,-2.7307,-2.6981,-2.6487,-2.6093,-2.5591,-2.4914,-2.4179,-2.3391,-2.2492,-2.205,-2.1608,-2.1167,-2.1648,-2.209,-2.2472,-2.3433,-2.4221,-2.4872,-2.5505,-2.6299,-2.707,-2.6667,-2.6623,-2.6815,0.0,-2.598,-2.6179,0.0,0.0,0.0,-2.8085,-2.8085,0.0,-2.7877,0.0,0.0,0.0,0.0,0.0,0.0,0.0,0.0,0.0,0.0,0.0,0.0,0.0,0.0,0.0,0.0,0.0,0.0,0.0,0.0,0.0,0.0,0.0,0.0,0.0,0.0,0.0,0.0,0.0,0.0,0.0,0.0,0.0,0.0,0.0,0.0,-2.6543,-2.6696,-2.6125,-2.6693,-2.7126,-2.7171,-2.674,-2.6665,-2.6976,-2.6546,-2.6365,-2.6498,-2.663,-2.6733,-2.689,-2.7074,-2.7233,-2.7361,-2.7514,-2.791,-2.8463,-2.863,-2.8748,-2.8873,-2.8873,-2.9036,-2.9243,-2.9266,-2.9335,-2.947,0.0,0.0,0.0,0.0,0.0,0.0,-2.8862,-2.9005,-2.8944,0.0,0.0,0.0,-2.7921,-2.7632,-2.7307,-2.6816,-2.6734,-2.6445,-2.5821,-2.5401,-2.4999,-2.4615,-2.3673,-2.287,-2.2287,-2.1688,-2.1174,-2.076,-2.1391,-2.175,-2.189,-2.2635,-2.3227,-2.3679,-2.3864,-2.433,-2.5054,-2.5652,0.0,-2.588,-2.5588,-2.5571,0.0,0.0,0.0,0.0,0.0,-2.8002,-2.773,0.0,-2.7348,-2.6152,0.0,0.0,0.0,0.0,0.0,0.0,-2.2025,0.0,0.0,0.0,0.0,0.0,0.0,0.0,0.0,0.0,0.0,0.0,0.0,0.0,0.0,0.0,0.0,0.0,0.0,0.0,0.0,0.0,0.0,0.0,0.0,0.0,0.0,0.0,-2.5476,-2.5812,-2.5965,-2.6212,-2.6614,-2.7122,-2.6562,-2.6508,-2.6925,-2.6407,-2.6273,-2.6498,-2.6159,-2.6096,-2.6312,-2.6365,-2.6525,-2.6762,-2.6788,-2.6941,-2.7251,-2.781,-2.8076,-2.8167,-2.8167,-2.8216,-2.8319,-2.8446,-2.8566,-2.8654,0.0,0.0,0.0,0.0,0.0,-2.8925,-2.8454,-2.8628,-2.8665,0.0,0.0,0.0,-2.7599,-2.7186,-2.68,-2.6422,-2.6098,-2.5695,-2.5126,-2.4786,-2.4444,-2.41,-2.347,-2.2876,-2.2316,-2.176,-2.1289,-2.084,-2.1056,-2.1273,-2.1431,-2.197,-2.2392,-2.2798,-2.2981,-2.324,-2.3548,0.0,0.0,0.0,-2.5002,0.0,0.0,-2.5804,-2.6178,0.0,0.0,0.0,-2.7321,-2.7766,-2.7021,0.0,0.0,0.0,0.0,0.0,0.0,0.0,0.0,0.0,0.0,0.0,0.0,0.0,-1.993,-1.9838,-1.9727,0.0,0.0,0.0,0.0,0.0,0.0,0.0,0.0,0.0,0.0,0.0,0.0,0.0,0.0,0.0,0.0,-2.3703,-2.4082,-2.4227,-2.4623,-2.5087,-2.5606,-2.59,-2.6265,-2.6804,-2.6387,-2.6296,-2.664,-2.6264,-2.6042,-2.6033,-2.5764,-2.566,-2.5633,-2.5688,-2.5797,-2.5961,-2.6014,-2.6095,-2.6203,-2.6709,-2.7148,-2.7475,-2.7475,-2.75,-2.7605,-2.771,-2.7755,-2.7799,0.0,0.0,0.0,-2.9393,-2.8978,-2.85,-2.8041,-2.8385,-2.8478,0.0,-2.8051,-2.8007,-2.7569,-2.6955,-2.6411,-2.613,-2.553,-2.4956,-2.4464,-2.4249,-2.3947,-2.3493,-2.345,-2.3166,-2.2519,-2.2109,-2.168,-2.119,-2.0781,-2.0762,-2.1152,-2.1372,-2.1669,-2.2066,-2.2494,0.0,0.0,0.0,0.0,-2.4113,-2.4379,-2.4583,0.0,0.0,-2.5468,-2.6115,-2.6678,-2.6846,-2.6904,-2.7189,-2.6385,0.0,0.0,0.0,0.0,0.0,-2.2176,0.0,0.0,0.0,0.0,0.0,0.0,0.0,-1.9982,-1.9772,-1.9525,-1.9027,0.0,0.0,0.0,0.0,0.0,0.0,0.0,0.0,0.0,0.0,0.0,0.0,0.0,0.0,-2.2289,-2.2815,-2.3261,-2.3446,-2.3863,-2.4443,-2.5087,-2.5535,-2.5921,-2.6277,-2.6164,-2.6151,-2.6282,-2.6063,-2.5765,-2.5448,-2.5518,-2.532,-2.4958,-2.51,-2.513,-2.5104,-2.5217,-2.53,-2.5328,-2.5495,-2.6041,-2.6785,-2.6785,-2.6864,-2.6967,-2.6967,-2.6993,-2.6993,0.0,0.0,-2.8628,-2.8628,-2.8326,-2.8096,-2.801,-2.8244,-2.8256,-2.7711,-2.7366,-2.7149,-2.706,-2.6574,-2.603,-2.5432,-2.5065,-2.4617,-2.3991,-2.3754,-2.36,-2.3493,-2.3276,-2.2993,-2.2519,-2.2109,-2.168,-2.119,-2.0781,-2.0644,-2.0742,-2.0762,-2.0899,-2.1154,-2.1232,-2.1328,-2.148,0.0,0.0,-2.2949,-2.3939,0.0,-2.5219,-2.5409,-2.5554,-2.5793,-2.6301,-2.6526,-2.6487,-2.6563,-2.6037,-2.5195,0.0,0.0,0.0,-2.2138,0.0,0.0,0.0,0.0,0.0,0.0,0.0,0.0,-1.9792,-1.9928,-1.9851,0.0,0.0,0.0,0.0,0.0,0.0,0.0,0.0,0.0,0.0,0.0,0.0,0.0,0.0,0.0,-2.1645,-2.2063,-2.2402,-2.2628,-2.3298,-2.3849,-2.4141,-2.4659,-2.5123,-2.5511,-2.5787,-2.6049,-2.623,-2.587,-2.5706,-2.5716,-2.5409,-2.505,-2.4662,-2.4872,-2.4757,-2.4478,-2.4509,-2.4567,-2.4681,-2.4709,-2.5189,-2.5934,-2.6042,-2.6123,-2.615,-2.6258,-2.6285,-2.6312,0.0,0.0,-2.7831,-2.7668,-2.7431,-2.7241,-2.7241,-2.7478,-2.7537,-2.7306,-2.7075,-2.6882,-2.6882,-2.6351,-2.5849,-2.5533,-2.4836,-2.4315,-2.3963,-2.3525,-2.3319,-2.3319,-2.3188,-2.3003,-2.2789,-2.2207,-2.1777,-2.1562,-2.0938,-2.0605,-2.0605,-2.0605,-2.0644,-2.0741,-2.0741,-2.0858,-2.1051,0.0,-2.1718,-2.2441,-2.3453,0.0,-2.4719,-2.4915,-2.4993,-2.506,-2.5569,-2.5986,-2.6287,-2.6039,-2.5654,0.0,0.0,-2.334,-2.2624,0.0,-2.1512,-2.1167,0.0,0.0,0.0,-2.0605,0.0,0.0,0.0,-1.9868,-1.9593,-1.8874,0.0,0.0,0.0,0.0,0.0,0.0,0.0,0.0,0.0,0.0,0.0,0.0,0.0,0.0,-2.0896,-2.1262,-2.1645,-2.1911,-2.259,-2.3038,-2.315,-2.379,-2.4227,-2.4443,-2.4981,-2.5335,-2.5441,-2.5442,-2.5379,-2.5227,-2.5046,-2.4786,-2.4514,-2.4583,-2.4612,-2.4484,-2.4232,-2.4133,-2.4197,-2.4001,-2.4189,-2.4593,-2.5048,-2.5216,-2.5216,-2.5273,-2.5273,-2.5328,-2.741,0.0,0.0,-2.686,-2.664,-2.6496,-2.6496,-2.6668,-2.6812,-2.6812,-2.6893,-2.6934,-2.6934,-2.6451,-2.6079,-2.5979,-2.5106,-2.4453,-2.4196,-2.3663,-2.3315,-2.3218,-2.314,-2.314,-2.3218,-2.2363,-2.1894,-2.1894,-2.1036,-2.0605,-2.0605,-2.0605,-2.0605,-2.0605,-2.0605,-2.0683,-2.0839,0.0,0.0,-2.2165,0.0,-2.3506,-2.4006,-2.4205,-2.435,-2.4501,-2.4957,-2.5428,-2.5832,-2.5458,-2.5139,-2.4781,-2.392,-2.3229,0.0,0.0,0.0,0.0,0.0,0.0,0.0,0.0,0.0,-2.0274,0.0,0.0,0.0,0.0,0.0,0.0,0.0,0.0,0.0,0.0,0.0,0.0,0.0,0.0,0.0,0.0,0.0,0.0,-2.0098,-2.0411,-2.0738,-2.1179,-2.1748,-2.2029,-2.2029,-2.2883,-2.3372,-2.3372,-2.4045,-2.4456,-2.4492,-2.4838,-2.4873,-2.4582,-2.465,-2.4522,-2.4254,-2.432,-2.437,-2.4434,-2.402,-2.3821,-2.3796,-2.3504,-2.331,-2.3301,-2.4041,-2.4337,-2.4337,-2.4337,-2.4337,-2.4337,-2.6479,-2.6592,0.0,0.0,-2.6544,-2.6496,-2.6496,-2.6544,-2.6544,-2.6544,-2.6887,-2.706,-2.706,-2.7162,-2.7072,-2.6626,-2.633,-2.5634,-2.4414,-2.4297,-2.4102,-2.373,-2.3296,-2.3276,-2.3711,-2.2519,-2.1894,-2.1894,-2.1036,-2.0605,-2.0605,-2.0605,-2.0605,-2.0605,-2.0605,-2.0605,0.0,0.0,-2.1531,0.0,-2.2352,-2.298,0.0,-2.3785,-2.4121,-2.4548,-2.5039,-2.4975,-2.4675,0.0,-2.4313,-2.3932,0.0,-2.3071,-2.2441,-2.2006,0.0,0.0,0.0,0.0,0.0,0.0,-2.0313,0.0,0.0,0.0,-1.8784,-1.7878,0.0,0.0,0.0,0.0,0.0,0.0,0.0,0.0,0.0,0.0,0.0,0.0,0.0,0.0,0.0,-1.9427,-1.9678,-2.0113,-2.0564,-2.0825,-2.0825,-2.1907,-2.2553,-2.2553,-2.315,-2.3556,-2.374,-2.3959,-2.4118,-2.4253,-2.4446,-2.4237,-2.3711,-2.4068,-2.4,-2.3547,-2.3664,-2.364,-2.3451,-2.3436,-2.3051,-2.2575,-2.3392,-2.3695,-2.3695,-2.3695,-2.3695,-2.3695,-2.5757,-2.5924,0.0,0.0,-2.6014,-2.6014,-2.6014,-2.6014,-2.6112,-2.6418,-2.6616,-2.6913,-2.7408,-2.7523,-2.7511,-2.7282,-2.6945,-2.6406,0.0,0.0,-2.4336,-2.416,-2.3452,-2.3179,-2.3398,-2.2656,-2.2162,-2.2078,-2.1205,-2.07,-2.058,-2.0331,-2.035,-2.062,-2.0739,0.0,-2.1126,0.0,-2.1765,0.0,0.0,0.0,0.0,-2.3001,-2.3371,-2.3825,-2.4236,-2.4177,-2.395,0.0,-2.4013,0.0,0.0,0.0,0.0,0.0,0.0,0.0,0.0,0.0,0.0,0.0,0.0,0.0,-1.935,0.0,-1.8238,0.0,0.0,0.0,0.0,0.0,0.0,0.0,-1.5193,0.0,0.0,0.0,0.0,0.0,0.0,0.0,0.0,0.0,0.0,0.0,-1.956,-1.9922,-1.9922,-2.0923,-2.1606,-2.1703,-2.2155,-2.2569,-2.2889,-2.3113,-2.3298,-2.3482,-2.3593,-2.3554,-2.3424,-2.3604,-2.3611,-2.3511,-2.3306,-2.3133,-2.304,-2.2719,-2.24,-2.2194,-2.2559,-2.263,-2.2616,-2.2616,-2.2677,-2.2793,-2.5283,0.0,0.0,0.0,-2.5693,-2.5693,-2.5693,-2.5888,-2.6211,-2.6523,-2.6875,-2.7324,-2.7949,-2.8105,-2.8237,0.0,-2.7793,-2.7305,0.0,0.0,-2.5078,0.0,0.0,0.0,-2.3672,-2.2823,-2.2349,-2.2178,-2.1304,-2.0818,-2.0655,-2.0214,-2.0233,-2.0655,-2.0818,-2.1072,-2.1419,0.0,-2.1709,-2.1709,-2.1875,-2.1958,-2.206,-2.255,-2.2957,-2.3257,-2.3637,-2.3624,-2.3469,-2.3815,-2.3693,0.0,-2.3429,0.0,0.0,0.0,0.0,0.0,-2.0937,0.0,0.0,0.0,0.0,0.0,0.0,0.0,0.0,0.0,0.0,0.0,0.0,0.0,0.0,0.0,0.0,0.0,0.0,0.0,0.0,0.0,0.0,0.0,0.0,0.0,0.0,-1.7677,-1.8415,-1.8826,-1.8751,-1.9889,-2.0585,-2.0718,-2.1143,-2.1586,-2.2063,-2.2214,-2.2402,-2.2665,-2.2665,-2.274,-2.2889,-2.2964,-2.3038,-2.3165,-2.2849,-2.2658,-2.2564,-2.2191,-2.1914,-2.1769,-2.1769,-2.1654,-2.1546,-2.1696,-2.1769,-2.1862,-2.5028,-2.5106,0.0,0.0,-2.5693,-2.5693,-2.5693,-2.6445,-2.6973,-2.6992,-2.8066,-2.8848,0.0,0.0,0.0,0.0,0.0,-2.8516,-2.7728,0.0,-2.6758,0.0,0.0,-2.457,0.0,0.0,-2.2221,-2.2178,-2.1254,-2.082,-2.0778,-2.0508,-2.0508,-2.0778,-2.082,-2.0964,-2.1229,-2.1233,-2.1233,-2.121,-2.1233,-2.1358,-2.1624,0.0,-2.3177,-2.3257,-2.3637,0.0,0.0,-2.3217,-2.3197,0.0,0.0,0.0,0.0,0.0,0.0,0.0,0.0,0.0,0.0,-2.0304,0.0,0.0,0.0,0.0,-1.7278,0.0,0.0,0.0,0.0,0.0,0.0,0.0,0.0,0.0,0.0,0.0,0.0,0.0,0.0,0.0,0.0,0.0,-1.6243,-1.6444,-1.7142,-1.7418,-1.7098,-1.8689,-1.9578,-1.9469,-1.9947,-2.0566,-2.1244,-2.1244,-2.1436,-2.1835,-2.1835,-2.1835,-2.1835,-2.2063,-2.2138,-2.2138,-2.2344,-2.2306,-2.2117,-2.2096,-2.1711,-2.113,-2.113,-2.0948,-2.0681,-2.1151,-2.1169,-2.0924,0.0,0.0,0.0,0.0,0.0,-2.5791,-2.6133,-2.666,-2.7226,-2.7793,-2.8476,0.0,0.0,-2.9902,-2.998,0.0,0.0,-2.9394,-2.8555,-2.7832,0.0,0.0,0.0,-2.4828,0.0,0.0,0.0,-2.2292,-2.141,-2.0734,-2.026,-2.0097,-2.0114,-2.0303,-2.0648,-2.0985,0.0,0.0,0.0,0.0,0.0,-2.1651,-2.1755,0.0,-2.2732,-2.2771,-2.3205,-2.3087,0.0,-2.3047,-2.2883,-2.2559,-2.2852,-2.2562,-2.2178,-2.2178,-2.1847,-2.1419,0.0,0.0,-2.0364,-2.0079,0.0,0.0,0.0,0.0,0.0,0.0,0.0,0.0,0.0,0.0,0.0,0.0,0.0,0.0,0.0,0.0,0.0,0.0,0.0,0.0,0.0,0.0,0.0,-1.5206,-1.5936,-1.641,-1.6546,-1.7604,-1.8415,-1.8934,-1.9101,-1.949,-2.0118,-2.0255,-2.0489,-2.0741,-2.0915,-2.0992,-2.0992,-2.1069,-2.1108,-2.1108,-2.1185,-2.1185,-2.1108,-2.1108,-2.0969,-2.0773,-2.0773,-2.0494,-2.0162,-2.0365,-2.0427,-2.04,-2.4792,0.0,0.0,0.0,-2.5615,-2.5907,-2.6198,-2.7078,-2.7891,0.0,-2.9297,0.0,-3.0605,0.0,-3.084,0.0,-3.0527,-3.0137,-2.9414,-2.873,0.0,-2.7715,-2.6481,-2.5722,0.0,0.0,0.0,0.0,-2.1473,-2.0678,-1.996,-1.9824,-1.9798,-1.9977,-2.0332,-2.0695,-2.0997,-2.0822,-2.1087,0.0,0.0,-2.1578,0.0,0.0,-2.2208,-2.2302,0.0,-2.2664,-2.2515,-2.2741,-2.2577,-2.2318,-2.2585,-2.2315,-2.1913,-2.1913,-2.1658,-2.1366,-2.128,-2.0837,0.0,-2.0021,-1.93,0.0,-1.8153,0.0,0.0,0.0,0.0,0.0,0.0,0.0,0.0,0.0,0.0,0.0,0.0,-1.3831,0.0,0.0,0.0,0.0,0.0,0.0,-1.4253,-1.4325,-1.4951,-1.5449,0.0,-1.6415,-1.7118,-1.7648,-1.7826,-1.8223,-1.8955,-1.9169,-1.9439,-1.9784,-2.002,-2.0137,-2.0137,-2.0137,-2.0137,-2.0137,-2.0137,-2.0137,-2.0137,-2.0137,-2.0137,-2.0137,-2.0137,-1.9965,-1.9717,-1.9901,-1.9965,-1.9934,-2.5056,-2.4709,-2.4517,-2.4801,-2.5488,-2.6025,0.0,0.0,-2.891,0.0,-3.0411,-3.1464,-3.1483,-3.1854,-3.1932,-3.1503,-3.1093,-3.0645,-3.0177,-2.9824,0.0,0.0,-2.7806,-2.7012,-2.6609,0.0,0.0,0.0,-2.1473,-2.0534,-1.9887,-1.9687,-1.9671,-1.9837,-1.982,0.0,-2.0178,-1.9627,-1.9887,-2.0657,-2.1096,-2.1059,-2.0797,-2.1371,-2.1651,-2.1744,-2.2202,-2.2353,-2.2353,-2.2353,-2.2353,-2.2353,-2.2353,-2.222,-2.2043,-2.2043,-2.182,-2.1597,-2.1392,-2.1041,-2.0604,-2.0123,-1.9522,0.0,0.0,0.0,-1.7255,0.0,0.0,0.0,0.0,0.0,0.0,0.0,0.0,0.0,0.0,0.0,0.0,0.0,0.0,0.0,0.0,-1.336,-1.3564,-1.3761,-1.4252,-1.4482,0.0,-1.5225,-1.5751,-1.5799,-1.6167,-1.68,-1.7774,-1.7986,-1.8376,-1.8967,-1.9188,-1.925,-1.925,-1.9231,-1.9213,-1.9213,-1.9213,-1.9213,-1.9213,-1.9213,-1.9213,-1.9213,-1.9213,-1.9213,-1.9295,-1.9698,-1.9686,-1.9479,-2.3831,-2.3589,-2.3614,-2.412,-2.5072,-2.6074,0.0,0.0,0.0,0.0,-3.031,-3.0841,-3.1165,-3.1298,-3.1184,-3.0825,-3.0691,0.0,0.0,0.0,0.0,-2.8708,-2.7815,-2.7106,-2.6602,-2.4966,-2.3738,-2.2976,0.0,-2.0406,-1.9878,-1.9299,-1.8966,-1.8858,-1.8784,-1.8746,-1.8787,-1.8443,-1.8625,-1.9169,-1.9609,-1.9704,-1.9652,0.0,-2.021,-2.0351,-2.1496,-2.1865,-2.1865,-2.1865,-2.1776,-2.166,-2.166,-2.1374,-2.106,-2.106,-2.088,-2.0654,-2.0609,-2.0286,-1.9903,-1.9638,-1.8956,-1.8257,0.0,0.0,0.0,0.0,0.0,0.0,0.0,0.0,0.0,0.0,0.0,0.0,0.0,0.0,0.0,-1.3503,0.0,0.0,-1.3285,-1.3144,-1.309,-1.3127,-1.3418,0.0,0.0,0.0,-1.4981,-1.5631,-1.5897,-1.6485,-1.7358,-1.7755,-1.8145,-1.8558,-1.8704,-1.8772,-1.8754,-1.8475,-1.8313,-1.8313,-1.8313,-1.8313,-1.8313,-1.8313,-1.8313,-1.8313,-1.8313,-1.8313,-1.8381,-1.8852,-1.8826,-1.8599,-2.3427,-2.2992,-2.295,-2.3586,0.0,0.0,-2.6681,-2.7903,0.0,-2.9611,-3.0362,0.0,-3.117,-3.1084,-3.0792,-3.0405,-3.0321,0.0,-2.9385,0.0,0.0,-2.8689,-2.7809,-2.705,-2.6443,-2.5005,0.0,-2.2781,0.0,-2.0117,-1.9357,-1.8643,-1.8149,-1.7796,-1.7795,-1.7776,-1.765,-1.7695,-1.7823,-1.8045,-1.8593,-1.8808,0.0,-1.9162,-1.931,-1.9417,-2.0161,-2.0699,-2.1105,-2.1105,-2.1015,-2.0942,-2.0942,-2.0609,-2.0246,-2.0246,-1.9973,-1.9654,-1.9654,-1.9459,-1.9265,-1.9069,-1.8652,-1.8195,-1.7792,-1.7342,-1.6934,0.0,-1.6267,-1.5694,0.0,0.0,0.0,0.0,0.0,0.0,0.0,0.0,0.0,0.0,-1.3412,0.0,-1.2882,-1.2679,-1.2526,-1.2502,-1.2673,0.0,0.0,0.0,-1.4086,-1.4929,-1.5063,-1.5579,-1.6514,-1.6891,-1.7237,-1.7514,-1.7861,-1.8012,-1.7995,-1.7755,-1.7672,-1.7656,-1.7507,-1.7424,-1.7424,-1.7424,-1.7424,-1.7424,-1.7424,-1.7424,-1.7448,-1.7752,-1.7961,-1.8154,-2.3288,-2.2624,0.0,0.0,0.0,0.0,0.0,-2.7516,0.0,-2.9398,0.0,-3.1043,-3.1099,-3.0746,-3.0374,-2.9956,0.0,-2.9619,-2.9153,-2.9116,-2.9028,-2.8618,-2.764,-2.6786,-2.6092,-2.4803,-2.3515,0.0,0.0,-1.9725,-1.8696,-1.7856,-1.7274,-1.6812,-1.6905,0.0,0.0,-1.7047,-1.7153,-1.7063,-1.7796,-1.8124,-1.8155,-1.8455,-1.8596,-1.8596,-1.8596,-1.9242,-2.011,-2.011,-2.011,-2.011,-2.011,-1.9837,-1.9455,-1.9455,-1.9104,-1.8643,-1.8643,-1.8643,-1.855,-1.8396,-1.8303,-1.8179,-1.7729,-1.7387,-1.7153,-1.6932,-1.6318,-1.5773,0.0,0.0,0.0,0.0,0.0,0.0,0.0,0.0,0.0,0.0,0.0,0.0,-1.2375,-1.2139,-1.2031,-1.1911,0.0,0.0,0.0,0.0,-1.3205,-1.4016,-1.4112,-1.464,-1.5693,-1.5917,-1.6111,-1.636,-1.6838,-1.7121,-1.7079,-1.7079,-1.7079,-1.7063,-1.6745,-1.6588,-1.6588,-1.6541,-1.6525,-1.6525,-1.6525,-1.6525,-1.6525,-1.6525,-1.7017,-1.7668,-2.2371,0.0,0.0,0.0,0.0,-2.4134,-2.5425,-2.709,-2.8597,-2.9619,-2.9633,-2.969,-3.0007,-2.9503,-2.898,-2.8598,-2.8526,0.0,0.0,0.0,0.0,-2.7716,-2.6737,-2.599,-2.5608,-2.4241,-2.3181,0.0,0.0,0.0,-1.8838,-1.7155,-1.6366,-1.6296,0.0,0.0,-1.5445,-1.5748,0.0,-1.6093,-1.6803,-1.707,-1.7099,-1.744,-1.7559,-1.7559,-1.7559,-1.821,-1.9058,-1.9058,-1.9058,-1.9058,-1.9058,-1.892,-1.8673,-1.8673,-1.8319,-1.79,-1.79,-1.7714,-1.7559,-1.7512,-1.7387,-1.7261,-1.712,-1.6918,-1.6636,-1.6414,-1.6039,-1.5727,-1.5497,0.0,0.0,0.0,0.0,0.0,0.0,0.0,0.0,0.0,0.0,-1.2925,0.0,-1.203,-1.1764,0.0,0.0,0.0,0.0,0.0,-1.2868,0.0,-1.4159,0.0,0.0,0.0,-1.6024,-1.6155,-1.6433,-1.655,-1.655,-1.6477,-1.6477,-1.6462,-1.6107,-1.5959,-1.593,-1.572,-1.5643,-1.5643,-1.5643,-1.5643,-1.5643,-1.5643,-1.5726,-1.5974,-2.169,0.0,0.0,0.0,0.0,0.0,0.0,-2.631,-2.7497,-2.8811,-2.8776,-2.87,-2.8748,-2.7958,-2.7272,-2.6909,-2.698,-2.7,-2.6813,-2.6918,-2.6893,-2.6508,-2.5671,-2.4895,-2.425,-2.339,-2.2567,-2.1597,0.0,0.0,0.0,0.0,0.0,-1.5558,0.0,-1.4922,0.0,0.0,0.0,-1.596,-1.6304,-1.6532,-1.6704,-1.6893,-1.6965,-1.6965,-1.6965,-1.7232,-1.7699,-1.7932,-1.8025,-1.8025,-1.8025,-1.79,-1.7714,-1.7714,-1.7434,-1.7106,-1.7106,-1.7059,-1.6965,-1.6965,-1.6871,-1.6777,-1.6777,-1.6588,-1.6353,-1.6224,-1.6007,-1.5772,-1.5618,-1.5378,0.0,0.0,0.0,0.0,0.0,0.0,0.0,0.0,0.0,0.0,0.0,0.0,0.0,0.0,0.0,0.0,0.0,0.0,-1.2478,0.0,0.0,0.0,-1.5116,0.0,-1.5353,-1.5486,-1.5729,-1.5843,-1.5843,-1.5812,-1.5767,-1.5753,-1.5478,-1.5339,-1.5325,-1.5062,-1.4936,-1.4922,-1.4797,-1.4727,-1.4727,-1.4741,-1.4741,-1.4852,-2.1487,-2.1509,0.0,0.0,-2.2744,-2.3769,-2.475,-2.5373,-2.6312,-2.7768,-2.7867,-2.7687,-2.7491,-2.6472,-2.5723,-2.5455,-2.5665,-2.5762,-2.5762,-2.594,-2.5836,-2.5299,-2.4521,-2.3742,-2.2937,-2.2513,-2.1748,0.0,0.0,0.0,0.0,0.0,0.0,0.0,0.0,0.0,0.0,0.0,-1.55,-1.5943,-1.6012,-1.6178,-1.6447,-1.6447,-1.6447,-1.6447,-1.6447,-1.6447,-1.6494,-1.6857,-1.7044,-1.7138,-1.7138,-1.7059,-1.6932,-1.6932,-1.673,-1.6494,-1.6494,-1.6494,-1.6447,-1.6447,-1.6447,-1.6447,-1.6447,-1.6258,-1.613,-1.613,-1.5927,-1.5784,-1.5737,-1.5551,0.0,0.0,0.0,0.0,0.0,0.0,0.0,0.0,0.0,0.0,-1.1301,0.0,0.0,0.0,0.0,0.0,-1.1059,0.0,0.0,0.0,0.0,-1.3635,-1.4366,0.0,-1.4456,-1.4591,-1.4878,-1.5021,-1.5021,-1.5073,-1.51,-1.5086,-1.4858,-1.4733,-1.4713,-1.4445,-1.4353,-1.4313,-1.4012,-1.3894,-1.3894,-1.3799,-1.3815,-1.3886,0.0,0.0,0.0,0.0,0.0,-2.3318,-2.3989,-2.4386,-2.5263,-2.7086,-2.6767,-2.638,-2.6349,-2.5368,-2.4713,-2.4682,-2.4735,-2.4734,-2.4734,-2.4497,-2.4309,-2.4217,-2.3296,-2.2635,-2.2299,-2.1652,-2.084,0.0,0.0,-1.8135,0.0,0.0,0.0,0.0,0.0,0.0,0.0,-1.5295,-1.5383,-1.551,-1.5732,-1.5852,-1.5879,-1.5879,-1.5879,-1.5879,-1.5879,-1.5879,-1.5879,-1.5927,-1.6258,-1.6683,-1.6683,-1.6636,-1.6636,-1.6636,-1.6447,-1.6224,-1.6224,-1.6069,-1.5879,-1.5879,-1.5879,-1.5879,-1.5879,-1.5879,-1.5832,-1.5832,-1.5832,-1.5737,-1.5547,-1.552,-1.5399,0.0,0.0,0.0,0.0,0.0,0.0,0.0,0.0,0.0,0.0,-1.0574,0.0,0.0,-1.0212,0.0,0.0,0.0,0.0,-1.245,-1.2711,-1.3117,-1.3598,-1.3598,-1.3598,-1.3553,-1.3865,-1.4046,-1.4058,-1.429,-1.4399,-1.4387,-1.4306,-1.4289,-1.4244,-1.3993,-1.389,-1.3808,-1.3358,-1.3173,-1.3136,-1.2924,-1.2826,-1.2826,0.0,0.0,0.0,0.0,0.0,0.0,0.0,-2.395,-2.437,-2.4907,-2.4974,-2.4892,-2.4684,-2.3931,-2.3325,-2.3136,-2.3304,-2.3417,-2.3417,-2.3305,-2.3096,-2.2646,-2.2098,-2.1584,-2.109,-2.0802,-2.0203,0.0,0.0,0.0,0.0,0.0,0.0,0.0,0.0,-1.5217,-1.5231,-1.5351,-1.5498,-1.5671,-1.5778,-1.5784,-1.5784,-1.5784,-1.5784,-1.5784,-1.5784,-1.5784,-1.5784,-1.5784,-1.5927,-1.6116,-1.6116,-1.6116,-1.6116,-1.6116,-1.6021,-1.5974,-1.5974,-1.5879,-1.5784,-1.5784,-1.5784,-1.5784,-1.5784,-1.5737,-1.5642,-1.5642,-1.5499,-1.5369,-1.5274,-1.5118,-1.4877,-1.4477,0.0,0.0,0.0,0.0,0.0,0.0,0.0,0.0,0.0,0.0,0.0,0.0,0.0,0.0,0.0,0.0,0.0,-1.1491,0.0,-1.2137,-1.2586,-1.2597,-1.2744,-1.3048,-1.3197,-1.3242,-1.3242,-1.3343,-1.3485,-1.357,-1.3563,-1.3613,-1.3743,-1.331,-1.3147,-1.3078,-1.2632,-1.2451,-1.244,-1.2327,-1.2293,-1.2271,-2.203,0.0,-2.2245,0.0,-2.2687,-2.3025,-2.3243,-2.3406,-2.3472,-2.3183,-2.327,-2.3337,-2.332,-2.2815,-2.2356,-2.2132,-2.2292,-2.2418,-2.2418,-2.2356,-2.2025,-2.1555,-2.123,0.0,-2.0169,-2.0155,-1.9692,-1.8754,-1.8754,0.0,0.0,0.0,0.0,0.0,-1.5698,-1.5658,-1.5645,-1.5565,-1.5645,-1.5784,-1.5784,-1.5784,-1.5784,-1.5784,-1.5784,-1.5784,-1.5784,-1.5784,-1.5784,-1.5784,-1.5784,-1.5784,-1.5784,-1.5784,-1.5784,-1.5784,-1.5784,-1.5784,-1.5784,-1.5784,-1.5737,-1.5737,-1.5642,-1.5594,-1.5594,-1.5499,-1.5356,-1.5356,-1.5166,-1.4939,-1.4892,-1.4592,-1.4184,-1.372,0.0,0.0,0.0,0.0,0.0,0.0,-1.0529,-1.0066,-0.9616,-0.9328,0.0,0.0,0.0,0.0,0.0,0.0,0.0,0.0,0.0,0.0,-1.1521,-1.1548,-1.1822,-1.2218,-1.229,-1.2322,-1.2322,-1.2322,-1.2467,-1.2759,-1.2759,-1.2953,-1.3232,-1.273,-1.2511,-1.2442,-1.1869,-1.1636,-1.1626,-1.1564,-1.1579,-1.1512,-2.2792,-2.2914,-2.2914,-2.2914,-2.2928,-2.2928,-2.2928,-2.2619,-2.2418,-2.2418,-2.199,-2.1886,-2.2516,-2.23,-2.2118,-2.2104,-2.2104,-2.2104,-2.2104,-2.153,-2.1194,0.0,0.0,-2.0155,-1.9809,-1.9809,-1.935,-1.849,0.0,0.0,-1.7192,0.0,-1.67,-1.6673,-1.6393,-1.6308,-1.6295,-1.5952,-1.5784,-1.5784,-1.5784,-1.5784,-1.5784,-1.5784,-1.5784,-1.5784,-1.5784,-1.5784,-1.5784,-1.5784,-1.5784,-1.5784,-1.5784,-1.5784,-1.5784,-1.5784,-1.5784,-1.5784,-1.5784,-1.5642,-1.5499,-1.5499,-1.5309,-1.5131,-1.5131,-1.5131,-1.5083,-1.5083,-1.4892,-1.464,-1.4352,-1.3859,-1.3426,-1.3136,0.0,0.0,0.0,0.0,0.0,0.0,-0.9763,-0.9184,-0.8645,-0.8319,0.0,0.0,0.0,0.0,0.0,0.0,0.0,-0.9994,-0.9994,0.0,-1.0343,-1.0507,-1.0725,-1.0925,-1.1143,-1.1198,-1.1198,-1.1198,-1.1492,-1.2029,-1.2029,-1.2322,-1.2759,-1.2224,-1.2019,-1.195,-1.1106,-1.0791,-1.0763,-1.0594,-1.0519,-1.0519,-2.2914,-2.2928,-2.2928,-2.2928,-2.2928,-2.2792,-2.2592,-2.2472,-2.2271,-2.1884,-2.1735,-2.1598,-2.1588,-2.1479,-2.1425,0.0,-2.1425,-2.1425,0.0,-2.0869,-2.053,-2.053,-1.9961,-1.9649,-1.9533,-1.9533,-1.9287,-1.8784,0.0,0.0,0.0,-1.7099,-1.6901,-1.6714,-1.6871,-1.6697,-1.6308,-1.6179,-1.6019,-1.5784,-1.5784,-1.5784,-1.5784,-1.5784,-1.5784,-1.5784,-1.5784,-1.5737,-1.5594,-1.5594,-1.5452,-1.5309,-1.5309,-1.5452,-1.5594,-1.5594,-1.5452,-1.5309,-1.5309,-1.5274,-1.5226,-1.5226,-1.5022,-1.4844,-1.4844,-1.4544,-1.4256,-1.4064,-1.3775,-1.3582,-1.3485,-1.2942,-1.2457,-1.237,-1.1688,0.0,0.0,0.0,0.0,0.0,-0.9137,-0.873,-0.8321,-0.8261,0.0,0.0,0.0,0.0,0.0,0.0,0.0,0.0,-0.9026,0.0,-0.9362,-0.9497,-0.9686,-0.9875,-1.0023,-1.0216,-1.0364,-1.0364,-1.0659,-1.1198,-1.1198,-1.1394,-1.1688,-1.1345,-1.1198,-1.114,-1.0684,-1.0511,-1.0511,-1.0439,-1.0421,-1.0395,-2.2928,-2.2928,-2.2928,-2.2928,-2.2928,-2.2766,-2.2458,-2.2325,-2.2084,-2.1681,-2.1521,-2.1309,-2.1122,-2.1109,0.0,-2.1109,-2.1109,-2.1109,-2.1109,-2.0561,-2.0167,-2.0167,-1.9679,-1.943,-1.943,-1.943,0.0,-1.8918,-1.8517,-1.7983,-1.7367,-1.7367,-1.7259,-1.7034,-1.7166,-1.6991,-1.6643,-1.6415,-1.6166,-1.5992,-1.5777,-1.5689,-1.5689,-1.5594,-1.5547,-1.5547,-1.5547,-1.5452,-1.5356,-1.5356,-1.5166,-1.4939,-1.4939,-1.4927,-1.4914,-1.5166,-1.507,-1.4939,-1.4844,-1.4736,-1.464,-1.464,-1.4352,-1.4064,-1.4016,-1.3727,-1.3426,-1.3244,-1.2953,-1.271,-1.271,-1.2078,-1.1541,-1.1541,-1.0855,-1.0364,-1.0364,0.0,0.0,0.0,0.0,0.0,0.0,-0.8012,-0.8013,0.0,0.0,0.0,0.0,0.0,0.0,-0.8477,-0.8477,-0.8532,-0.8688,-0.8816,-0.8958,-0.9116,-0.9241,-0.9377,-0.9575,-0.9575,-0.9772,-1.0216,-1.0216,-1.0364,-1.056,-1.0314,-1.0216,-1.0167,-0.992,-0.9813,-0.9813,-0.9813,-0.9813,-0.9797,-2.2928,-2.2928,-2.2928,-2.2928,-2.2914,-2.2726,-2.2432,-2.2138,-2.1857,-2.1628,-2.1283,-2.1109,-2.1109,-2.1109,-2.1109,-2.1109,0.0,0.0,-2.1109,-2.0561,-2.0167,-2.0167,-1.9679,-1.943,-1.943,-1.943,-1.9225,-1.8918,-1.8302,-1.7916,-1.7609,-1.7595,-1.7582,-1.7569,-1.7353,-1.7219,-1.7114,-1.6567,-1.6326,-1.6224,-1.5717,-1.5504,-1.5456,-1.523,-1.5086,-1.5099,-1.5099,-1.5086,-1.5086,-1.5086,-1.4846,-1.4653,-1.4653,-1.4256,-1.3955,-1.446,-1.4592,-1.4544,-1.4256,-1.4004,-1.3811,-1.3835,-1.3471,-1.3008,-1.2764,-1.2715,-1.2715,-1.2715,-1.2314,-1.1972,-1.1952,-1.1266,-1.0726,-1.0708,-1.0068,-0.9525,-0.9525,0.0,0.0,0.0,0.0,0.0,-0.7728,-0.7676,-0.7631,0.0,0.0,0.0,0.0,0.0,-0.8153,-0.8239,-0.8247,-0.8247,-0.8247,-0.8457,-0.8546,-0.856,-0.8709,-0.8775,-0.8775,-0.8775,-0.8924,-0.9187,-0.9187,-0.9327,-0.9525,-0.9278,-0.9187,-0.9137,-0.8874,-0.8825,-0.8825,-0.8825,-0.8825,-0.8825,0.0,0.0,-2.2928,-2.2928,-2.2672,-2.2418,-2.2138,-2.1844,-2.155,-2.1256,-2.1149,-2.1109,-2.1109,-2.1109,-2.1109,-2.1109,-2.1109,-2.1109,-2.1109,-2.0561,-2.0167,-2.0167,-1.9679,-1.943,-1.943,-1.943,-1.9225,-1.8918,-1.8557,-1.8237,-1.7876,-1.7689,-1.7582,-1.7582,-1.7515,-1.7251,-1.6781,-1.665,-1.6366,-1.6008,-1.5881,-1.5656,-1.5445,-1.5345,-1.5208,-1.5008,-1.5008,-1.4908,-1.4707,-1.4707,-1.4406,-1.4015,-1.4015,-1.3814,-1.3523,-1.3734,-1.3619,-1.3437,-1.3195,-1.3098,-1.3094,-1.327,-1.3007,-1.2588,-1.2079,-1.1967,-1.1967,-1.1967,-1.1712,-1.142,-1.1322,-1.0683,-1.0079,-0.9896,-0.9377,-0.8973,-0.8973,-0.8593,-0.829,0.0,-0.8,-0.7842,-0.7801,-0.7848,-0.7887,0.0,0.0,0.0,-0.788,-0.789,-0.7814,-0.7785,-0.7785,-0.7785,-0.7785,-0.7931,-0.8014,-0.8139,-0.8166,-0.8287,-0.8478,-0.8478,-0.8627,-0.8874,-0.8874,-0.8924,-0.8973,-0.8924,-0.8874,-0.8874,-0.8825,-0.8825,-0.8825,-0.8825,-0.8825,-0.8825,-2.2928,-2.2928,-2.2928,-2.2928,-2.2619,-2.2325,-2.2031,-2.1737,-2.1507,-2.1149,-2.1109,-2.1109,-2.1109,-2.1109,-2.1109,-2.1109,-2.1109,-2.1109,-2.1109,-2.0561,-2.0167,-2.0167,-1.9679,-1.943,-1.943,-1.943,-1.9154,-1.8691,-1.8456,-1.8055,-1.7603,-1.7303,-1.7213,-1.7213,-1.7213,-1.7016,-1.6664,-1.6432,-1.6201,-1.5884,-1.5454,-1.5139,-1.4823,-1.4734,-1.448,-1.4287,-1.4287,-1.4185,-1.4021,-1.4021,-1.3726,-1.3265,-1.3265,-1.2956,-1.2597,-1.2535,-1.2673,-1.2783,-1.2384,-1.2284,-1.2304,-1.2273,-1.2138,-1.1864,-1.1295,-1.114,-1.114,-1.0984,-1.0776,-1.0543,-1.0441,-0.9949,-0.9505,-0.9411,-0.8927,-0.8627,-0.8627,-0.8251,-0.8014,-0.8014,-0.7911,-0.7814,-0.7814,-0.7901,-0.7988,-0.7988,-0.7914,0.0,-0.7982,-0.7816,-0.7736,-0.7801,-0.7801,-0.7704,-0.7607,-0.7534,-0.7563,-0.764,-0.764,-0.769,-0.7832,-0.7832,-0.7932,-0.8081,-0.8081,-0.8081,-0.8081,-0.8081,-0.8131,-0.8237,-0.8237,-0.8336,-0.8428,-0.8428,-0.8336,-0.8237,-2.2928,-2.2928,-2.2928,-2.2928,-2.2579,-2.2271,-2.2017,-2.1697,-2.139,-2.1149,-2.1109,-2.1109,-2.1109,-2.1109,-2.1109,-2.1109,-2.1109,-2.1109,-2.1109,-2.0561,-2.0167,-2.0167,-1.9679,-1.9359,-1.9301,-1.9243,-1.895,-1.8402,-1.8173,-1.7789,-1.7178,-1.6886,-1.6721,-1.6683,-1.6683,-1.663,-1.6564,-1.6076,-1.5768,-1.5652,-1.4894,-1.439,-1.4082,-1.3835,-1.3577,-1.3319,-1.3267,-1.3267,-1.3267,-1.3267,-1.2904,-1.2479,-1.2479,-1.2063,-1.1542,-1.1229,-1.1646,-1.2158,-1.1676,-1.1521,-1.1444,-1.1184,-1.1098,-1.1019,-1.0496,-1.0391,-1.0338,-1.0084,-0.9873,-0.9707,-0.9684,-0.9354,-0.9087,-0.9035,-0.8636,-0.8336,-0.8336,0.0,-0.7821,-0.7841,-0.7848,-0.7848,-0.7848,-0.7914,-0.7988,-0.7988,-0.7939,-0.7939,-0.7939,-0.7696,-0.7646,-0.7789,-0.7839,-0.7789,-0.7547,-0.7291,-0.7141,-0.7141,-0.7086,-0.7086,-0.7086,-0.7086,-0.7086,-0.7086,-0.7086,-0.7086,-0.7141,-0.7141,-0.7291,-0.7547,-0.7547,-0.7696,-0.7889,-0.7889,-0.7739,-0.7547,-2.2928,-2.2928,-2.2928,-2.2928,-2.2418,-2.2031,-2.1991,-2.1523,-2.1162,-2.1122,-2.1109,-2.1109,-2.1109,-2.1109,-2.1109,-2.1109,-2.1109,-2.1109,-2.1109,-2.0561,-2.0167,-2.0167,-1.9679,-1.9243,-1.8997,-1.8706,-1.8519,-1.8409,-1.8129,-1.7861,-1.7525,-1.7178,-1.6924,-1.667,-1.6471,-1.6271,-1.5992,-1.5677,-1.5293,-1.4812,-1.466,-1.4276,-1.3751,-1.3483,-1.3214,-1.2945,-1.2665,-1.2558,-1.2558,-1.2558,-1.2342,-1.2072,-1.1855,-1.1476,-1.1096,-1.0607,-1.0552,-1.065,-1.0653,-1.0626,-1.0531,-1.0211,-1.0278,-1.0334,-1.0015,-0.9906,-0.9906,-0.9851,-0.9796,-0.9751,-0.9548,-0.9343,-0.9082,-0.8816,-0.8391,-0.8038,-0.8038,0.0,-0.7862,-0.7941,-0.7955,-0.7955,-0.7955,-0.7975,-0.7988,-0.7988,-0.7796,-0.7646,-0.7646,-0.7391,-0.7191,-0.6992,-0.7191,-0.7291,-0.7241,-0.6992,-0.6842,-0.6842,-0.6637,-0.6537,-0.6537,-0.6537,-0.6537,-0.6537,-0.6537,-0.6637,-0.6842,-0.6842,-0.7042,-0.7241,-0.7241,-0.7285,-0.7335,-0.7335,-0.7285,-0.7241,-2.2928,-2.2928,-2.2806,-2.2645,-2.2271,-2.1937,-2.1842,-2.139,-2.1109,-2.1109,-2.1109,-2.1109,-2.1109,-2.1109,-2.1109,-2.1109,-2.0919,-2.0856,-2.0856,-2.0584,-2.034,-2.0011,-1.9589,-1.9037,-1.8402,-1.8227,-1.7935,-1.7655,-1.7386,-1.7077,-1.6786,-1.6466,-1.6275,-1.6144,-1.5783,-1.5507,-1.5387,-1.4764,-1.4277,-1.391,-1.3738,-1.3305,-1.2772,-1.2663,-1.2436,-1.2173,-1.1837,-1.1673,-1.1673,-1.1509,-1.1291,-1.1072,-1.097,-1.0696,-1.0359,-1.0091,-1.0036,-1.0053,-1.0116,-1.0124,-1.0023,-0.986,-0.9921,-0.9926,-0.9651,-0.9596,-0.9541,-0.9375,-0.932,-0.9299,-0.9166,-0.9035,-0.8876,-0.8737,-0.8481,0.0,-0.8275,-0.8153,-0.8085,-0.8153,-0.8092,-0.7939,-0.7796,-0.7796,-0.7739,-0.759,-0.7441,-0.7341,-0.7197,-0.6942,-0.6587,-0.6187,-0.6387,-0.6542,-0.6542,-0.6142,-0.5942,-0.5942,-0.5687,-0.5536,-0.5536,-0.5536,-0.5536,-0.5536,-0.5536,-0.5687,-0.5942,-0.5942,-0.6192,-0.6542,-0.6542,-0.6637,-0.6786,-0.6786,-0.6686,-0.6542,-2.2928,-2.2928,-2.2766,-2.2472,-2.2178,-2.1884,-2.1655,-2.1296,-2.1109,-2.1109,-2.1109,-2.1109,-2.1109,-2.1046,-2.0982,-2.0982,-2.0666,-2.0475,-2.0348,-2.0393,-2.0244,-1.9707,-1.9163,-1.8441,-1.7584,-1.7525,-1.7232,-1.6644,-1.646,-1.6217,-1.5872,-1.5681,-1.5569,-1.5445,-1.4965,-1.4722,-1.47,-1.3868,-1.3357,-1.3082,-1.2808,-1.2394,-1.1854,-1.1689,-1.1498,-1.1236,-1.0907,-1.0798,-1.0743,-1.0586,-1.0366,-1.0147,-1.0091,-0.9926,-0.9713,-0.9695,-0.9676,-0.969,-0.9728,-0.968,-0.9654,-0.9654,-0.9676,-0.9649,-0.9433,-0.9377,-0.9321,-0.9042,-0.9042,-0.9028,-0.8994,-0.8893,-0.8791,-0.8723,0.0,-0.8486,-0.8374,-0.8253,-0.818,-0.8162,-0.8011,-0.7844,-0.7642,-0.7592,-0.7491,-0.7232,-0.7101,-0.6933,-0.6586,-0.6303,-0.5837,-0.5236,-0.5536,-0.5741,-0.5741,-0.519,-0.4939,-0.4939,-0.4583,-0.4433,-0.4433,-0.4433,-0.4433,-0.4433,-0.4433,-0.4638,-0.4939,-0.4939,-0.524,-0.5741,-0.5741,-0.5837,-0.6037,-0.6037,-0.5887,-0.5741,-2.2928,-2.2928,-2.2766,-2.2472,-2.2178,-2.1884,-2.1655,-2.1296,-2.1109,-2.1109,-2.1109,-2.1109,-2.1109,-2.0792,-2.0615,-2.0615,-2.0361,-2.0043,-1.9699,-1.9686,-1.9563,-1.9341,-1.8257,-1.7326,-1.6596,-1.6349,-1.6065,-1.5709,-1.5698,-1.5509,-1.5283,-1.5261,-1.5085,-1.4823,-1.4246,-1.3952,-1.3952,-1.3307,-1.2842,-1.2557,-1.2271,-1.1881,-1.1397,-1.0835,-1.0508,-1.0366,-1.0036,-0.9871,-0.9871,-0.9871,-0.9871,-0.9816,-0.9541,-0.9437,-0.9404,-0.9265,-0.9353,-0.9401,-0.9398,-0.9314,-0.925,-0.925,-0.936,-0.9405,-0.9405,-0.9405,-0.9405,-0.9347,-0.9347,-0.9306,-0.9221,-0.9187,-0.9084,-0.8757,0.0,0.0,-0.8065,-0.7943,-0.7795,-0.7673,-0.7626,-0.762,-0.762,-0.762,-0.7509,-0.7241,-0.6878,-0.64,-0.5887,-0.5491,-0.4939,-0.4131,-0.4634,-0.4885,-0.4885,-0.4332,-0.4085,-0.4085,-0.3581,-0.3332,-0.3332,-0.3332,-0.3332,-0.3332,-0.3332,-0.3632,-0.4085,-0.4085,-0.4383,-0.4885,-0.4885,-0.4885,-0.4935,-0.4935,-0.4885,-0.4885,-2.2928,-2.2928,-2.2712,-2.2231,-2.2058,-2.183,-2.1349,-2.1189,-2.1109,-2.1109,-2.1109,-2.1046,-2.0792,-2.0666,-2.0412,-2.003,-1.9647,-1.92,-1.8676,-1.8431,-1.8261,-1.8042,-1.725,-1.6339,-1.5343,-1.5224,-1.4927,-1.4401,-1.4401,-1.4361,-1.4272,-1.4272,-1.4232,-1.4084,-1.3548,-1.3142,-1.295,-1.236,-1.1857,-1.1388,-1.1282,-1.1011,-1.0669,-1.044,-1.0345,-1.0285,-0.9944,-0.9774,-0.9781,-0.961,-0.9553,-0.9553,-0.9439,-0.9382,-0.9396,-0.9337,-0.9334,-0.9412,-0.9417,-0.9367,-0.935,-0.935,-0.934,-0.9381,-0.9381,-0.9381,-0.9381,-0.9381,-0.9381,-0.9361,-0.9306,-0.935,-0.9168,-0.8742,0.0,-0.8481,-0.8064,-0.788,-0.7706,-0.7499,-0.7375,-0.7223,-0.6848,-0.6796,-0.6637,-0.6162,-0.6018,-0.5579,-0.4845,-0.4143,-0.3624,-0.3279,-0.3126,-0.3327,-0.3783,-0.343,-0.3279,-0.3229,-0.2725,-0.2471,-0.2471,-0.2269,-0.232,-0.2471,-0.2471,-0.2775,-0.3279,-0.3279,-0.3481,-0.3833,-0.3833,-0.3833,-0.3833,-0.3833,-0.3833,-0.3833,-2.2928,-2.2792,-2.2565,-2.2071,-2.1911,-2.1683,-2.1189,-2.1109,-2.1109,-2.1109,-2.0982,-2.0856,-2.0615,-2.0284,-1.9903,-1.9316,-1.888,-1.8238,-1.7453,-1.6947,-1.6701,-1.6783,-1.623,-1.5387,-1.426,-1.4191,-1.3854,-1.3204,-1.3204,-1.3204,-1.3084,-1.3084,-1.3084,-1.3075,-1.2592,-1.2285,-1.2031,-1.1552,-1.1094,-1.0743,-1.0626,-1.042,-1.0208,-1.015,-1.0062,-1.0012,-0.978,-0.9664,-0.9671,-0.9439,-0.9381,-0.9381,-0.9381,-0.9415,-0.9456,-0.9456,-0.9483,-0.9517,-0.9517,-0.9517,-0.951,-0.9462,-0.949,-0.9517,-0.9517,-0.9517,-0.9517,-0.9517,-0.9517,-0.9503,-0.9339,-0.9332,-0.9169,-0.8679,-0.8502,-0.8269,-0.7841,-0.7607,-0.7308,-0.6926,-0.6797,-0.6588,-0.6046,-0.5992,-0.5777,-0.5239,-0.5161,-0.4706,-0.3728,-0.2933,-0.2476,-0.2292,-0.1872,-0.1866,-0.2423,-0.2372,-0.2322,-0.2271,-0.1816,-0.1614,-0.1614,-0.1412,-0.1463,-0.1614,-0.1614,-0.1866,-0.2322,-0.2322,-0.2473,-0.2675,-0.2675,-0.2675,-0.2675,-0.2675,-0.2675,-0.2675,-2.2928,-2.2619,-2.2325,-2.2031,-2.1815,-2.1521,-2.1149,-2.1109,-2.1109,-2.1109,-2.0792,-2.0602,-2.0602,-1.9711,-1.8944,-1.8612,-1.7916,-1.7077,-1.6039,-1.5323,-1.5096,-1.5567,-1.5144,-1.4433,-1.3514,-1.3314,-1.2844,-1.2174,-1.2174,-1.2053,-1.1812,-1.1812,-1.1812,-1.1752,-1.145,-1.1269,-1.1277,-1.0967,-1.0785,-1.0793,-1.0422,-1.0215,-1.0087,-0.9731,-0.9517,-0.9388,-0.9388,-0.9388,-0.9388,-0.9388,-0.9388,-0.9388,-0.9388,-0.949,-0.9612,-0.9612,-0.9707,-0.9822,-0.9822,-0.9822,-0.9788,-0.9646,-0.972,-0.9822,-0.9822,-0.9822,-0.9822,-0.9822,-0.9822,-0.9654,-0.9208,-0.9123,-0.8959,-0.8476,-0.8054,-0.7675,-0.7334,-0.6955,-0.6492,-0.588,-0.5768,-0.5708,-0.5425,-0.5369,-0.515,-0.4536,-0.4354,-0.3739,-0.256,-0.1991,-0.1557,-0.1195,-0.0919,-0.0809,-0.0809,-0.1061,-0.1213,-0.1213,-0.091,-0.0808,-0.0808,-0.0808,-0.0808,-0.0808,-0.0808,-0.096,-0.1213,-0.1213,-0.1363,-0.1613,-0.1613,-0.1613,-0.1613,-0.1613,-0.1613,-0.1613,-2.2592,-2.2472,-2.2258,-2.1764,-2.1681,-2.1521,-2.1149,-2.1109,-2.1046,-2.0792,-2.0679,-2.0348,-1.9647,-1.9072,-1.8419,-1.7518,-1.6872,-1.5974,-1.4922,-1.4202,-1.3783,-1.3665,-1.3879,-1.3483,-1.2468,-1.2164,-1.176,-1.1209,-1.1209,-1.1148,-1.1088,-1.1088,-1.1088,-1.1088,-1.0967,-1.0853,-1.0604,-1.0482,-1.0308,-1.0065,-1.0004,-0.9916,-0.9875,-0.9754,-0.9727,-0.9686,-0.9686,-0.9686,-0.9686,-0.9686,-0.9686,-0.9686,-0.9686,-0.972,-0.9754,-0.9754,-0.9788,-0.9822,-0.9822,-0.9822,-0.9808,-0.9768,-0.9788,-0.9822,-0.9822,-0.9822,-0.9761,-0.9518,-0.9457,-0.9323,-0.9042,-0.8787,-0.8437,-0.8016,-0.7434,-0.6852,-0.6429,-0.6098,-0.5638,-0.5013,-0.4905,-0.4704,-0.4201,-0.4145,-0.3977,-0.353,-0.2901,-0.2263,-0.1684,-0.135,-0.107,-0.09,-0.0685,-0.0522,-0.0515,-0.0762,-0.091,-0.091,-0.0656,-0.0505,-0.0505,-0.0303,-0.0353,-0.0505,-0.0505,-0.0656,-0.091,-0.091,-0.0959,-0.106,-0.106,-0.106,-0.106,-0.106,-0.106,-0.106,-2.2472,-2.2325,-2.2098,-2.1695,-2.1521,-2.1309,-2.1136,-2.0982,-2.0856,-2.0615,-2.0221,-1.9711,-1.9008,-1.8226,-1.7378,-1.6483,-1.5378,-1.4473,-1.3818,-1.3153,-1.2634,-1.2444,-1.253,-1.2403,-1.1807,-1.1479,-1.111,-1.0706,-1.064,-1.0543,-1.0429,-1.0429,-1.0429,-1.0429,-1.0429,-1.0308,-1.0126,-1.0126,-1.0004,-0.9822,-0.9822,-0.9822,-0.9822,-0.9822,-0.9822,-0.9822,-0.9822,-0.9822,-0.9822,-0.9822,-0.9822,-0.9822,-0.9822,-0.9822,-0.9822,-0.9822,-0.9822,-0.9822,-0.9822,-0.9822,-0.9822,-0.9822,-0.9822,-0.9822,-0.9822,-0.97,-0.9518,-0.9335,-0.9092,-0.8848,-0.8543,-0.8116,-0.7662,-0.7231,-0.658,-0.6,-0.559,-0.521,-0.4753,-0.4116,-0.3999,-0.3734,-0.3172,-0.304,-0.2858,-0.241,-0.1794,-0.1284,-0.0939,-0.0768,-0.0653,-0.0485,-0.0321,-0.0265,-0.0262,-0.0415,-0.0461,-0.0505,-0.0303,-0.0252,-0.0252,-0.005,-0.0101,-0.0252,-0.0252,-0.0353,-0.0505,-0.0505,-0.0505,-0.0505,-0.0505,-0.0505,-0.0505,-0.0505,-0.0505,-0.0505,-2.2445,-2.2164,-2.1884,-2.1641,-2.1296,-2.1046,-2.1046,-2.0792,-2.0539,-2.0475,-1.9647,-1.888,-1.8483,-1.7184,-1.6084,-1.5303,-1.3744,-1.2774,-1.2708,-1.2114,-1.1784,-1.1784,-1.138,-1.1249,-1.1423,-1.1114,-1.082,-1.0481,-1.0339,-1.014,-0.9822,-0.9822,-0.9822,-0.9822,-0.9822,-0.9822,-0.9822,-0.9822,-0.9822,-0.9822,-0.9822,-0.9822,-0.9822,-0.9822,-0.9822,-0.9822,-0.9822,-0.9822,-0.9822,-0.9822,-0.9822,-0.9822,-0.9822,-0.9822,-0.9822,-0.9822,-0.9822,-0.9822,-0.9822,-0.9822,-0.9822,-0.9761,-0.9761,-0.9761,-0.9761,-0.9518,-0.9275,-0.9214,-0.8726,-0.8233,-0.7811,-0.7255,-0.6705,-0.6342,-0.5661,-0.5068,-0.4711,-0.4288,-0.3774,-0.3185,-0.3025,-0.2822,-0.2248,-0.2104,-0.1859,-0.1236,-0.1012,-0.073,-0.0393,-0.0387,-0.0274,0.0,0.0,0.0,0.0,0.0,0.0,0.0,0.0,0.0,0.0,0.0,0.0,0.0,0.0,0.0,0.0,0.0,0.0,0.0,0.0,0.0,0.0,0.0,0.0,0.0,-2.2178,-2.2031,-2.1817,-2.1296,-2.0895,-2.0729,-2.0729,-2.0425,-2.0043,-1.9456,-1.9008,-1.8291,-1.7055,-1.6148,-1.5238,-1.4333,-1.3095,-1.2305,-1.2041,-1.1578,-1.1314,-1.1314,-1.0982,-1.0836,-1.0868,-1.0681,-1.041,-1.0108,-1.0081,-0.9999,-0.9822,-0.9822,-0.9822,-0.9822,-0.9822,-0.9822,-0.9822,-0.9822,-0.9822,-0.9822,-0.9822,-0.9822,-0.9822,-0.9822,-0.9822,-0.9822,-0.9822,-0.9822,-0.9822,-0.9822,-0.9822,-0.9822,-0.9822,-0.9822,-0.9822,-0.9822,-0.9822,-0.9822,-0.9822,-0.9822,-0.9761,-0.9457,-0.9396,-0.9396,-0.9396,-0.9214,-0.8854,-0.8299,-0.8116,-0.775,-0.6893,-0.6403,-0.5912,-0.5295,-0.4668,-0.411,-0.3807,-0.321,-0.2639,-0.2221,-0.1894,-0.1582,-0.1231,-0.1168,-0.1044,-0.0629,-0.0515,-0.0398,-0.0112,-0.0112,-0.0056,0.0,0.0,0.0,0.0,0.0,0.0,0.0,0.0,0.0,0.0,0.0,0.0,0.0,0.0,0.0,0.0,0.0,0.0,0.0,0.0,0.0,0.0,0.0,0.0,0.0,-2.2285,-2.1952,-2.1582,-2.1146,-2.0693,-2.0297,-2.0157,-1.9839,-1.9392,-1.8688,-1.8033,-1.7184,-1.6084,-1.5043,-1.4006,-1.2964,-1.2239,-1.171,-1.1512,-1.1181,-1.0982,-1.0982,-1.0784,-1.0717,-1.0717,-1.0643,-1.0487,-1.0263,-1.0195,-1.008,-0.993,-0.993,-0.989,-0.9822,-0.9822,-0.9822,-0.9822,-0.9822,-0.9822,-0.9829,-0.9897,-0.9869,-0.9876,-1.0012,-1.0039,-1.0039,-1.0039,-1.0039,-1.0039,-1.0039,-1.0039,-1.0039,-1.0039,-1.0039,-1.0039,-1.0039,-1.0039,-0.9977,-0.9784,-0.9722,-0.966,-0.9349,-0.9044,-0.8821,-0.8873,-0.8665,-0.8238,-0.7561,-0.7199,-0.6709,-0.5847,-0.5298,-0.4807,-0.4315,-0.3697,-0.3145,-0.2837,-0.2328,-0.1829,-0.1525,-0.1263,-0.101,-0.0708,-0.053,-0.0411,-0.0233,-0.0233,-0.0174,0.0,0.0,0.0,0.0,0.0,0.0,0.0,0.0,0.0,0.0,0.0,0.0,0.0,0.0,0.0,0.0,0.0,0.0,0.0,0.0,0.0,0.0,0.0,0.0,0.0,0.0,0.0,0.0,-2.2404,-2.1792,-2.1306,-2.0955,-2.0349,-1.9851,-1.9584,-1.9136,-1.8559,-1.784,-1.6926,-1.6019,-1.5173,-1.3866,-1.2692,-1.1776,-1.1314,-1.1115,-1.1115,-1.085,-1.0717,-1.0717,-1.0717,-1.0717,-1.0717,-1.0717,-1.0643,-1.0493,-1.0371,-1.0236,-1.0156,-1.0059,-0.9916,-0.9863,-0.9836,-0.9822,-0.9822,-0.9849,-0.9863,-0.9876,-0.9963,-1.0024,-1.0038,-1.0229,-1.0283,-1.0283,-1.0283,-1.0283,-1.0283,-1.0283,-1.0283,-1.0283,-1.0283,-1.0283,-1.0283,-1.0283,-1.0276,-1.0149,-0.9818,-0.9627,-0.9436,-0.9124,-0.8486,-0.7991,-0.8037,-0.7809,-0.7501,-0.6756,-0.6143,-0.5528,-0.4778,-0.415,-0.365,-0.3282,-0.2719,-0.2221,-0.1851,-0.1541,-0.1234,-0.0926,-0.0794,-0.0663,-0.0357,-0.0119,0.0,0.0,0.0,0.0,0.0,0.0,0.0,0.0,0.0,0.0,0.0,0.0,0.0,0.0,0.0,0.0,0.0,0.0,0.0,0.0,0.0,0.0,0.0,0.0,0.0,0.0,0.0,0.0,0.0,0.0,0.0,0.0,-2.2013,-2.1458,-2.091,-2.0629,-1.9834,-1.92,-1.92,-1.8366,-1.7464,-1.6796,-1.6019,-1.5043,-1.3809,-1.2363,-1.1446,-1.1314,-1.0982,-1.0784,-1.0784,-1.0717,-1.0717,-1.0717,-1.0717,-1.0717,-1.0717,-1.0717,-1.0643,-1.0493,-1.0473,-1.0392,-1.0249,-1.0114,-0.9977,-0.995,-0.9883,-0.9822,-0.9829,-0.9903,-0.9957,-0.997,-1.0188,-1.0249,-1.0249,-1.0276,-1.0283,-1.0283,-1.0283,-1.0283,-1.0283,-1.0283,-1.0283,-1.0283,-1.0283,-1.0283,-1.0283,-1.0283,-1.0015,-0.9755,-0.9691,-0.9246,-0.8742,-0.8428,-0.7783,-0.707,-0.6532,-0.6591,-0.6528,-0.5571,-0.5252,-0.4868,-0.3906,-0.3361,-0.2894,-0.2326,-0.1866,-0.1541,-0.1173,-0.0864,-0.0617,-0.0556,-0.0308,-0.0123,-0.0061,0.0,0.0,0.0,0.0,0.0,0.0,0.0,0.0,0.0,0.0,0.0,0.0,0.0,0.0,0.0,0.0,0.0,0.0,0.0,0.0,0.0,0.0,0.0,0.0,0.0,0.0,0.0,0.0,0.0,0.0,0.0,0.0,0.0,-2.1607,-2.1014,-2.0416,-1.9935,-1.9078,-1.8335,-1.7992,-1.7206,-1.6429,-1.5704,-1.4847,-1.4006,-1.3161,-1.1975,-1.1115,-1.0916,-1.0784,-1.0717,-1.0717,-1.0717,-1.0717,-1.0717,-1.0717,-1.0717,-1.0717,-1.0717,-1.0683,-1.0622,-1.0622,-1.0541,-1.0399,-1.0331,-1.0256,-1.0175,-1.0107,-1.008,-1.008,-1.0148,-1.0181,-1.0188,-1.0337,-1.0399,-1.0405,-1.0493,-1.0527,-1.0527,-1.0527,-1.0527,-1.0527,-1.0527,-1.0527,-1.0527,-1.0527,-1.0527,-1.0462,-1.0332,-1.013,-0.9869,-0.9276,-0.8884,-0.8497,-0.7711,-0.6985,-0.6263,-0.554,-0.5211,-0.4929,-0.4591,-0.4187,-0.3672,-0.2836,-0.2374,-0.1974,-0.1517,-0.113,-0.0872,-0.0742,-0.0432,-0.0247,-0.0247,-0.0062,0.0,0.0,0.0,0.0,0.0,0.0,0.0,0.0,0.0,0.0,0.0,0.0,0.0,0.0,0.0,0.0,0.0,0.0,0.0,0.0,0.0,0.0,0.0,0.0,0.0,0.0,0.0,0.0,0.0,0.0,0.0108,0.0267,0.0423,0.0527,0.0527]},{"header":{"parameterUnit":"m.s-1","parameterCategory":1,"la1":30.6,"la2":28.766,"lo1":-90.7593,"lo2":-88.6598,"dy":0.0162,"dx":0.0183,"nx":116,"ny":114,"refTime":"2023-08-19T18:00:00:Z","depth":0,"parameterNumber":3,"parameterNumberName":"V-component_of_WINDS"},"data":[0.0,0.0,0.0,0.0,0.0,0.0,0.0,0.0,0.0,0.0,0.0,0.0,0.0,0.0,0.0,0.0,0.0,0.0,0.0,0.0,0.0,0.0,0.0,0.0,0.0,0.0,0.0,0.0,0.0,0.0,0.0,0.0,0.0,0.0,0.0,0.0,0.0,0.0,0.0,0.0,0.0,0.0,0.0,0.0,0.0,0.0,0.0,0.0,0.0,0.0,0.0,0.0,0.0,0.0,0.0,0.0,0.0,0.0,0.0,0.0,0.0,0.0,0.0,0.0,0.0,0.0,0.0,0.0,0.0,0.0,0.0,0.0,0.0,0.0,0.0,0.0,0.0,0.0,0.0,0.0,0.0,0.0,0.0,0.0,0.0,0.0,0.0,0.0,0.0,0.0,0.0,0.0,0.0,0.0,0.0,0.0,0.0,0.0,0.0,0.0,0.0,0.0,0.0,0.0,0.0,0.0,0.0,0.0,0.0,0.0,0.0,0.0,0.0,0.0,0.0,0.0,0.0,0.0,0.0,0.0,0.0,0.0,0.0,0.0,0.0,0.0,0.0,0.0,0.0,0.0,0.0,0.0,0.0,0.0,0.0,0.0,0.0,0.0,0.0,0.0,0.0,0.0,0.0,0.0,0.0,0.0,0.0,0.0,0.0,0.0,0.0,0.0,0.0,0.0,0.0,0.0,0.0,0.0,0.0,0.0,0.0,0.0,0.0,0.0,0.0,0.0,0.0,0.0,0.0,0.0,0.0,0.0,0.0,0.0,0.0,0.0,0.0,0.0,0.0,0.0,0.0,0.0,0.0,0.0,0.0,0.0,0.0,0.0,0.0,0.0,0.0,0.0,0.0,0.0,0.0,0.0,0.0,0.0,0.0,0.0,0.0,0.0,0.0,0.0,0.0,0.0,0.0,0.0,0.0,0.0,0.0,0.0,0.0,0.0,0.0,0.0,0.0,0.0,0.0,0.0,0.0,0.0,0.0,0.0,0.0,0.0,0.0,0.0,0.0,0.0,0.0,0.0,0.0,0.0,0.0,0.0,0.0,0.0,0.0,0.0,0.0,0.0,0.0,0.0,0.0,0.0,0.0,0.0,0.0,0.0,0.0,0.0,0.0,0.0,0.0,0.0,0.0,0.0,0.0,0.0,0.0,0.0,0.0,0.0,0.0,0.0,0.0,0.0,0.0,0.0,0.0,0.0,0.0,0.0,0.0,0.0,0.0,0.0,0.0,0.0,0.0,0.0,0.0,0.0,0.0,0.0,0.0,0.0,0.0,0.0,0.0,0.0,0.0,0.0,0.0,0.0,0.0,0.0,0.0,0.0,0.0,0.0,0.0,0.0,0.0,0.0,0.0,0.0,0.0,0.0,0.0,0.0,0.0,0.0,0.0,0.0,0.0,0.0,0.0,0.0,0.0,0.0,0.0,0.0,0.0,0.0,0.0,0.0,0.0,0.0,0.0,0.0,0.0,0.0,0.0,0.0,0.0,0.0,0.0,0.0,0.0,0.0,0.0,0.0,0.0,0.0,0.0,0.0,0.0,0.0,0.0,0.0,0.0,0.0,0.0,0.0,0.0,0.0,0.0,0.0,0.0,0.0,0.0,0.0,0.0,0.0,0.0,0.0,0.0,0.0,0.0,0.0,0.0,0.0,0.0,0.0,0.0,0.0,0.0,0.0,0.0,0.0,0.0,0.0,0.0,0.0,0.0,0.0,0.0,0.0,0.0,0.0,0.0,0.0,0.0,0.0,0.0,0.0,0.0,0.0,0.0,0.0,0.0,0.0,0.0,0.0,0.0,0.0,0.0,0.0,0.0,0.0,0.0,0.0,0.0,0.0,0.0,0.0,0.0,0.0,0.0,0.0,0.0,0.0,0.0,0.0,0.0,0.0,0.0,0.0,0.0,0.0,0.0,0.0,0.0,0.0,0.0,0.0,0.0,0.0,0.0,0.0,0.0,0.0,0.0,0.0,0.0,0.0,0.0,0.0,0.0,0.0,0.0,0.0,0.0,0.0,0.0,0.0,0.0,0.0,0.0,0.0,0.0,0.0,0.0,0.0,0.0,0.0,0.0,0.0,0.0,0.0,0.0,0.0,0.0,0.0,0.0,0.0,0.0,0.0,0.0,0.0,0.0,0.0,0.0,0.0,0.0,0.0,0.0,0.0,0.0,0.0,0.0,0.0,0.0,0.0,0.0,0.0,0.0,0.0,0.0,0.0,0.0,0.0,0.0,0.0,0.0,0.0,0.0,0.0,0.0,0.0,0.0,0.0,0.0,0.0,0.0,0.0,0.0,0.0,0.0,0.0,0.0,0.0,0.0,0.0,0.0,0.0,0.0,0.0,0.0,0.0,0.0,0.0,0.0,0.0,0.0,0.0,0.0,0.0,0.0,0.0,0.0,0.0,0.0,0.0,0.0,0.0,0.0,0.0,0.0,0.0,0.0,0.0,0.0,0.0,0.0,0.0,0.0,0.0,0.0,0.0,0.0,0.0,0.0,0.0,0.0,0.0,0.0,0.0,0.0,0.0,0.0,0.0,0.0,0.0,0.0,0.0,0.0,0.0,0.0,0.0,0.0,0.0,0.0,0.0,0.0,0.0,0.0,0.0,0.0,0.0,0.0,0.0,0.0,0.0,0.0,0.0,0.0,0.0,0.0,0.0,0.0,0.0,0.0,0.0,0.0,0.0,0.0,0.0,0.0,0.0,0.0,0.0,0.0,0.0,0.0,0.0,0.0,0.0,0.0,0.0,0.0,0.0,0.0,0.0,0.0,0.0,0.0,0.0,0.0,0.0,0.0,0.0,0.0,0.0,0.0,0.0,0.0,0.0,0.0,0.0,0.0,0.0,0.0,0.0,0.0,0.0,0.0,0.0,0.0,0.0,0.0,0.0,0.0,0.0,0.0,0.0,0.0,0.0,0.0,0.0,0.0,0.0,0.0,0.0,0.0,0.0,0.0,0.0,0.0,0.0,0.0,0.0,0.0,0.0,0.0,0.0,0.0,0.0,0.0,0.0,0.0,0.0,0.0,0.0,0.0,0.0,0.0,0.0,0.0,0.0,0.0,0.0,0.0,0.0,0.0,0.0,0.0,0.0,0.0,0.0,0.0,0.0,0.0,0.0,0.0,0.0,0.0,0.0,0.0,0.0,0.0,0.0,0.0,0.0,0.0,0.0,0.0,0.0,0.0,0.0,0.0,0.0,0.0,0.0,0.0,0.0,0.0,0.0,0.0,0.0,0.0,0.0,0.0,0.0,0.0,0.0,0.0,0.0,0.0,0.0,0.0,0.0,0.0,0.0,0.0,0.0,0.0,0.0,0.0,0.0,0.0,0.0,0.0,0.0,0.0,0.0,0.0,0.0,0.0,0.0,0.0,0.0,0.0,0.0,0.0,0.0,0.0,0.0,0.0,0.0,0.0,0.0,0.0,0.0,0.0,0.0,0.0,0.0,0.0,0.0,0.0,0.0,0.0,0.0,0.0,0.0,0.0,0.0,0.0,0.0,0.0,0.0,0.0,0.0,0.0,0.0,0.0,0.0,0.0,0.0,0.0,0.0,0.0,0.0,0.0,0.0,0.0,0.0,0.0,0.0,0.0,0.0,0.0,0.0,0.0,0.0,0.0,0.0,0.0,0.0,0.0,0.0,0.0,0.0,0.0,0.0,0.0,0.0,0.0,0.0,0.0,0.0,0.0,0.0,0.0,0.0,0.0,0.0,0.0,0.0,0.0,0.0,0.0,0.0,0.0,0.0,0.0,0.0,0.0,0.0,0.0,0.0,0.0,0.0,0.0,0.0,0.0,0.0,0.0,0.0,0.0,0.0,0.0,0.0,0.0,0.0,0.0,0.0,0.0,0.0,0.0,0.0,0.0,0.0,0.0,0.0,0.0,0.0,0.0,0.0,0.0,0.0,0.0,0.0,0.0,0.0,0.0,0.0,0.0,0.0,0.0,0.0,0.0,0.0,0.0,0.0,0.0,0.0,0.0,0.0,0.0,0.0,0.0,0.0,0.0,0.0,0.0,0.0,0.0,0.0,0.0,0.0,0.0,0.0,0.0,0.0,0.0,0.0,0.0,0.0,0.0,0.0,0.0,0.0,0.0,0.0,0.0,0.0,0.0,0.0,0.0,0.0,0.0,0.0,0.0,0.0,0.0,0.0,0.0,0.0,0.0,0.0,0.0,0.0,0.0,0.0,0.0,0.0,0.0,0.0,0.0,0.0,0.0,0.0,0.0,0.0,0.0,0.0,0.0,0.0,0.0,0.0,0.0,0.0,0.0,0.0,0.0,0.0,0.0,0.0,0.0,0.0,0.0,0.0,0.0,0.0,0.0,0.0,0.0,0.0,0.0,0.0,0.0,0.0,0.0,0.0,0.0,0.0,0.0,0.0,0.0,0.0,0.0,0.0,0.0,0.0,0.0,0.0,0.0,0.0,0.0,0.0,0.0,0.0,0.0,0.0,0.0,0.0,0.0,0.0,0.0,0.0,0.0,0.0,0.0,0.0,0.0,0.0,0.0,0.0,0.0,0.0,0.0,0.0,0.0,0.0,0.0,0.0,0.0,0.0,0.0,0.0,0.0,0.0,0.0,0.0,0.0,0.0,0.0,0.0,0.0,0.0,0.0,0.0,0.0,0.0,0.0,0.0,0.0,0.0,0.0,0.0,0.0,0.0,0.0,0.0,0.0,0.0,0.0,0.0,0.0,0.0,0.0,0.0,0.0,0.0,0.0,0.0,0.0,0.0,0.0,0.0,0.0,0.0,0.0,0.0,0.0,0.0,0.0,0.0,0.0,0.0,0.0,0.0,0.0,0.0,0.0,0.0,0.0,0.0,0.0,0.0,0.0,0.0,0.0,0.0,0.0,0.0,0.0,0.0,0.0,0.0,0.0,0.0,0.0,0.0,0.0,0.0,0.0,0.0,0.0,0.0,0.0,0.0,0.0,0.0,0.0,0.0,0.0,0.0,0.0,0.0,0.0,0.0,0.0,0.0,0.0,0.0,0.0,0.0,0.0,0.0,0.0,0.0,0.0,0.0,0.0,0.0,0.0,0.0,0.0,0.0,0.0,0.0,0.0,0.0,0.0,0.0,0.0,0.0,0.0,0.0,0.0,0.0,0.0,0.0,0.0,0.0,0.0,0.0,0.0,0.0,0.0,0.0,0.0,0.0,0.0,0.0,0.0,0.0,0.0,0.0,0.0,0.0,0.0,0.0,0.0,0.0,0.0,0.0,0.0,0.0,0.0,0.0,0.0,0.0,0.0,0.0,0.0,0.0,0.0,0.0,0.0,0.0,0.0,0.0,0.0,0.0,0.0,0.0,0.0,0.0,0.0,0.0,0.0,0.0,0.0,0.0,0.0,0.0,0.0,0.0,0.0,0.0,0.0,0.0,0.0,0.0,0.0,0.0,0.0,0.0,0.0,0.0,0.0,0.0,0.0,0.0,0.0,0.0,0.0,0.0,0.0,0.0,0.0,0.0,0.0,0.0,0.0,0.0,0.0,0.0,0.0,0.0,0.0,0.0,0.0,0.0,0.0,0.0,0.0,0.0,0.0,0.0,0.0,0.0,0.0,0.0,0.0,0.0,0.0,0.0,0.0,0.0,0.0,0.0,0.0,0.0,0.0,0.0,0.0,0.0,0.0,0.0,0.0,0.0,0.0,0.0,0.0,0.0,0.0,0.0,0.0,0.0,0.0,0.0,0.0,0.0,0.0,0.0,0.0,0.0,0.0,0.0,0.0,0.0,0.0,0.0,0.0,0.0,0.0,0.0,0.0,0.0,0.0,0.0,0.0,0.0,0.0,0.0,0.0,0.0,0.0,0.0,0.0,0.0,0.0,0.0,0.0,0.0,0.0,0.0,0.0,0.0,0.0,0.0,0.0,0.0,0.0,0.0,0.0,0.0,0.0,0.0,0.0,0.0,0.0,0.0,0.0,0.0,0.0,0.0,0.0,0.0,0.0,0.0,0.0,0.0,0.0,0.0,0.0,0.0,0.0,0.0,0.0,0.0,0.0,0.0,0.0,0.0,0.0,0.0,0.0,0.0,0.0,0.0,0.0,0.0,0.0,0.0,0.0,0.0,0.0,0.0,0.0,0.0,0.0,0.0,-1.4732,0.0,0.0,0.0,0.0,0.0,0.0,0.0,0.0,0.0,0.0,0.0,0.0,0.0,0.0,0.0,0.0,0.0,0.0,0.0,0.0,0.0,0.0,0.0,0.0,0.0,0.0,0.0,0.0,0.0,0.0,0.0,0.0,0.0,0.0,0.0,0.0,0.0,0.0,2.0701,2.0926,2.1112,2.1392,2.0036,1.8532,1.698,0.0,0.0,0.0,0.0,0.0,0.0,0.0,0.0,0.0,0.0,0.0,0.0,0.0,0.0,0.0,0.0,0.0,0.0,0.0,0.0,0.0,0.0,0.0,0.0,0.0,0.0,0.0,0.0,0.0,0.0,0.0,0.0,0.0,0.0,0.0,0.0,0.0,0.0,0.0,0.0,0.0,0.0,0.0,0.0,0.0,0.0,0.0,0.0,0.0,0.0,0.0,0.0,0.0,0.0,0.0,0.0,0.0,0.0,0.0,0.0,0.0,0.0,0.0,0.0,0.0,0.0,0.0,0.0,0.0,0.0,0.0,-1.495,0.0,0.0,0.0,0.0,0.0,0.0,0.0,0.0,0.0,0.0,0.0,0.0,0.0,0.0,0.0,0.0,0.0,0.0,0.0,0.0,0.0,0.0,0.0,2.7114,2.6719,2.6437,2.605,2.5636,0.0,0.0,0.0,0.0,0.0,0.0,0.0,2.2256,2.2262,2.2347,2.2736,2.3034,2.3281,2.3127,2.2123,2.0365,1.9051,0.0,0.0,0.0,0.0,0.0,0.0,0.0,0.0,0.0,0.0,0.0,0.0,0.0,0.0,0.0,0.0,0.0,0.0,0.0,0.0,0.0,0.0,0.0,0.0,0.0,0.0,0.0,0.0,0.0,0.0,0.0,0.0,0.0,0.0,0.0,0.0,0.0,0.0,0.0,0.0,0.0,0.0,0.0,0.0,0.0,0.0,0.0,0.0,0.0,0.0,0.0,0.0,0.0,0.0,0.0,0.0,0.0,0.0,0.0,0.0,0.0,0.0,0.0,-1.5752,-1.5979,-1.5931,-1.5738,-1.5752,-1.5952,-1.5418,-1.5454,-1.5824,-1.5492,0.0,0.0,0.0,0.0,0.0,0.0,0.0,0.0,0.0,0.0,0.0,0.0,0.0,0.0,0.0,0.0,0.0,0.0,0.0,0.0,0.0,2.8731,2.8438,2.8582,2.8124,2.7653,2.725,0.0,0.0,0.0,0.0,0.0,2.3936,2.3787,2.387,2.4154,2.5253,2.5822,2.5972,2.6019,2.572,2.5077,2.2079,2.0525,1.9996,0.0,0.0,0.0,0.0,0.0,0.0,0.0,0.0,0.0,0.0,0.0,0.0,0.0,0.0,0.0,0.0,0.0,0.0,0.0,0.0,0.0,0.0,0.0,0.0,0.0,0.0,0.0,0.0,0.0,0.0,0.0,0.0,0.0,0.0,0.0,0.0,0.0,0.0,0.0,0.0,0.0,0.0043,-0.0844,0.0,0.0,0.0,0.0,0.0,0.0,0.0,0.0,0.0,0.0,0.0,0.0,0.0,-1.3529,-1.4492,-1.5382,-1.5895,-1.6158,-1.6444,-1.6593,-1.6593,-1.6553,-1.6553,-1.6567,-1.6246,0.0,-1.6067,-1.5983,0.0,0.0,0.0,0.0,0.0,0.0,0.0,0.0,0.0,0.0,0.0,0.0,0.0,0.0,0.0,0.0,0.0,0.0,0.0,0.0,0.0,3.0403,3.045,3.0343,3.0224,2.9876,2.9113,2.8456,0.0,0.0,0.0,2.548,2.5263,2.5261,2.5814,2.6941,2.7589,2.8082,2.8425,2.83,2.8061,2.769,2.58,2.3965,2.22,2.1088,0.0,0.0,0.0,0.0,0.0,0.0,0.0,0.0,0.0,0.0,0.0,0.0,0.0,0.0,0.0,0.0,0.0,0.0,0.0,0.0,0.0,0.0,0.0,0.0,0.0,0.0,0.0,0.0,0.0,0.0,0.0,0.0,0.0,0.0,0.0,0.0,0.0,0.0,0.0,0.0749,-0.0213,-0.0928,-0.1702,-0.2462,0.0,0.0,0.0,0.0,0.0,0.0,0.0,0.0,0.0,-1.1399,-1.2677,-1.3874,-1.4906,-1.5878,-1.6484,-1.6808,-1.7105,-1.7194,-1.7194,-1.7034,-1.7005,-1.6941,-1.6647,-1.6565,-1.6555,-1.6267,-1.6501,-1.7138,0.0,0.0,0.0,0.0,-1.924,-1.9916,0.0,0.0,0.0,0.0,0.0,0.0,0.0,0.0,0.0,0.0,0.0,0.0,3.1872,3.2376,3.2668,3.2483,3.2427,3.2025,3.1007,3.0446,2.9523,2.816,2.7519,2.7086,2.676,2.7186,2.8081,2.9374,2.9828,3.0197,3.046,3.0166,2.9984,2.9821,2.8865,2.7093,2.4695,2.3154,2.2121,2.1306,0.0,0.0,0.0,0.0,0.0,0.0,0.0,0.0,0.0,0.0,0.0,0.0,0.0,0.0,0.0,0.0,0.0,0.0,0.0,0.0,0.0,0.0,0.0,0.0,0.0,0.0,0.0,0.0,0.0,0.0,0.0,0.0,0.0,0.0,0.0,0.0,0.0,0.0673,-0.0215,-0.095,-0.1881,-0.2766,0.0,0.0,0.0,0.0,0.0,0.0,-0.8709,-0.9706,-1.069,-1.1642,-1.305,-1.4286,-1.527,-1.6386,-1.706,-1.7394,-1.7636,-1.7702,-1.7689,-1.7395,-1.7313,-1.73,-1.6954,-1.6896,-1.6974,-1.6527,-1.6805,-1.7567,-1.7514,-1.7973,-1.8842,-1.9352,-2.0135,-2.0986,0.0,0.0,0.0,0.0,0.0,0.0,0.0,0.0,0.0,0.0,0.0,3.3874,3.461,3.484,3.5024,3.5293,3.479,3.4046,3.3043,3.2105,3.1186,3.0296,2.9171,2.86,2.8564,2.9816,3.0598,3.089,3.1924,3.2273,3.1954,3.1708,3.1656,3.1825,3.0608,2.9161,2.7543,2.5662,2.463,2.4089,2.1862,0.0,0.0,0.0,0.0,0.0,0.0,0.0,0.0,0.0,0.0,0.0,0.0,0.0,0.0,0.0,0.0,0.0,0.0,0.0,0.0,0.0,0.0,0.0,0.0,0.0,0.0,0.0,0.0,0.0,0.0,0.0,0.0,0.0,0.0,0.0,0.0,0.0,0.0,-0.1056,-0.198,0.0,0.0,0.0,0.0,-0.6936,-0.7257,-0.7941,-0.9213,-1.0119,-1.1037,-1.2139,-1.3736,-1.4966,-1.5822,-1.6968,-1.7717,-1.7981,-1.798,-1.7969,-1.7955,-1.7702,-1.7555,-1.7542,-1.73,-1.712,-1.7073,-1.6988,-1.7211,-1.7613,-1.8076,-1.8622,-1.9307,-2.0605,-2.1355,-2.1859,0.0,0.0,0.0,0.0,0.0,0.0,0.0,0.0,3.3472,3.3727,3.4383,3.5003,3.5565,3.6724,3.7499,3.7623,3.732,3.6862,3.6099,3.4566,3.3166,3.2009,3.0806,3.0246,3.0304,3.1879,3.2735,3.2886,3.3613,3.4055,3.4103,3.3804,3.383,3.4034,3.2692,3.1819,3.1098,2.8156,2.6458,2.5698,2.3966,2.2609,0.0,0.0,0.0,0.0,0.0,0.0,0.0,0.0,0.0,0.0,0.0,0.0,0.0,0.0,0.0,0.0,0.0,0.0,0.0,0.0,0.0,0.0,0.0,0.0,0.0,0.0,0.0,0.0,0.0,0.0,0.0,0.0,0.0,0.0,0.0,0.0,0.0,-0.074,-0.1731,0.0,-0.398,-0.4804,-0.5777,-0.6927,-0.7477,-0.8305,-0.9413,-1.0436,-1.1504,-1.2567,-1.4023,-1.5199,-1.6104,-1.7092,-1.7755,-1.802,-1.802,-1.7995,-1.7982,-1.7729,-1.7582,-1.7569,-1.7475,-1.7309,-1.7114,-1.7238,-1.7462,-1.7719,-1.8362,-1.9146,-2.0004,-2.0988,-2.1706,-2.2252,0.0,0.0,0.0,0.0,0.0,0.0,0.0,0.0,3.4136,3.4963,3.5652,3.6384,3.7177,3.8602,3.9453,3.9343,3.908,3.8505,3.7604,3.6023,3.4489,3.3114,3.2297,3.2102,3.2514,3.3783,3.4484,3.4703,3.5285,3.5646,3.5766,3.5585,3.5544,3.5568,3.4498,3.3885,3.3453,3.0772,2.8848,2.7393,2.5825,2.445,2.3082,0.0,0.0,0.0,0.0,0.0,0.0,0.0,0.0,0.0,0.0,0.0,0.0,0.0,0.0,0.0,0.0,0.0,0.0,0.0,0.0,0.0,0.0,0.0,0.0,0.0,0.0,0.0,0.0,0.0,0.0,0.0,0.0,0.0,0.0,0.0,0.061,-0.0524,-0.1551,-0.2668,-0.3877,-0.4841,-0.584,-0.7044,-0.7699,-0.8535,-0.9719,-1.0548,-1.1539,-1.2674,-1.4019,-1.5113,-1.6023,-1.7025,-1.7755,-1.8138,-1.8039,-1.8087,-1.8183,-1.7769,-1.7582,-1.7582,-1.7582,-1.7351,-1.6964,-1.7263,-1.7392,-1.7542,-1.8365,-1.9271,-2.0155,-2.097,-2.1642,-2.2201,0.0,0.0,0.0,0.0,0.0,0.0,0.0,3.43,3.4826,3.6764,3.7268,3.8057,3.9643,4.0484,4.077,4.0434,3.9874,3.8902,3.7434,3.6338,3.5096,3.3725,3.3692,3.4148,3.5114,3.5531,3.5931,3.6308,3.6919,3.7089,3.6823,3.6923,3.679,3.6459,3.5924,3.5231,3.4458,3.3572,3.1803,2.9387,2.7441,2.5993,2.4774,0.0,0.0,0.0,0.0,0.0,0.0,0.0,0.0,0.0,0.0,0.0,0.0,0.0,0.0,0.0,0.0,0.0,0.0,0.0,0.0,0.0,0.0,0.0,0.0,0.0,0.0,0.0,0.0,0.0,0.0,0.0,0.0,0.0,0.3086,0.2075,0.097,-0.0302,-0.1437,-0.2613,-0.4043,-0.4953,-0.6003,-0.7305,-0.7816,-0.8673,-0.9998,-1.0505,-1.129,-1.2554,-1.3684,-1.4723,-1.571,-1.6879,-1.7772,-1.8344,-1.8125,-1.8187,-1.845,-1.7849,-1.7582,-1.7582,-1.7569,-1.7235,-1.67,-1.695,-1.7051,-1.7073,-1.8087,-1.895,-1.9683,-2.0637,-2.1266,-2.1721,0.0,0.0,0.0,0.0,0.0,0.0,3.4787,3.4643,3.5233,3.7097,3.7555,3.8329,3.997,4.0832,4.1204,4.0837,4.0434,3.9706,3.8663,3.7321,3.6038,3.4743,3.5702,3.6213,3.6071,3.7232,3.7568,3.7048,3.7857,3.8063,3.769,3.8091,3.8209,3.8115,3.7439,3.6864,3.6339,3.502,3.3572,3.2027,2.9606,2.7965,2.6698,0.0,0.0,0.0,0.0,0.0,0.0,0.0,0.0,0.0,0.0,0.0,0.0,0.0,0.0,0.0,0.0,0.0,0.0,0.0,0.0,0.0,0.0,0.0,0.0,0.0,0.0,0.0,0.0,0.0,0.0,0.0,0.0,0.4676,0.3556,0.2684,0.1782,0.0565,-0.0732,-0.2022,-0.3304,-0.4658,-0.5946,-0.695,-0.7863,-0.8692,-0.9486,-1.0448,-1.1477,-1.2463,-1.3662,-1.4667,-1.5622,-1.6621,-1.7265,-1.7477,-1.781,-1.7971,-1.7816,-1.7702,-1.7582,-1.7569,-1.7407,-1.7061,-1.6687,-1.6783,-1.676,-1.6824,-1.7807,-1.8689,-1.9409,-2.0201,-2.1015,-2.164,0.0,0.0,0.0,0.0,0.0,0.0,3.4883,3.4739,3.5406,3.7628,3.7862,3.8607,4.0508,4.1258,4.1484,4.1049,4.045,3.9709,3.8769,3.731,3.6347,3.6063,3.7069,3.7593,3.7418,3.8477,3.8831,3.8479,3.8978,3.9077,3.8863,3.9171,3.9192,3.8998,3.8573,3.8044,3.7467,3.6087,3.5041,3.4076,3.1686,2.9737,2.8073,2.6197,2.4661,2.3276,2.2068,2.0955,1.9805,1.8464,0.0,0.0,0.0,0.0,0.0,0.0,0.0,0.0,0.0,0.0,0.0,0.0,0.0,0.0,0.0,0.0,0.0,0.0,0.0,0.0,0.0,0.0,0.0,0.0,0.5969,0.548,0.451,0.3279,0.2086,0.0953,-0.0323,-0.1644,-0.2841,-0.4302,-0.5622,-0.6661,-0.7577,-0.8466,-0.9352,-1.0146,-1.1069,-1.2192,-1.3072,-1.3994,-1.4852,-1.5781,-1.6426,-1.6753,-1.7148,-1.7321,-1.7427,-1.729,-1.7318,-1.7411,-1.7119,-1.6879,-1.6687,-1.6589,-1.6498,0.0,0.0,0.0,0.0,0.0,-2.0609,-2.1221,0.0,0.0,0.0,0.0,0.0,0.0,3.4859,3.4643,3.5469,3.8126,3.8119,3.8766,4.1042,4.1513,4.1467,4.0927,4.0075,3.9198,3.8186,3.6907,3.6535,3.747,3.8094,3.8639,3.9053,3.9382,3.9806,4.0278,4.0061,4.0005,4.0068,4.0108,3.9878,3.9362,3.9362,3.8958,3.8179,3.7032,3.6247,3.5591,3.3515,3.1363,2.9141,2.7317,2.5706,2.4266,2.3032,2.1826,2.0637,1.9555,0.0,0.0,0.0,0.0,0.0,0.0,0.0,0.0,0.0,0.0,0.0,0.0,0.0,0.0,0.0,0.0,0.0,0.0,0.0,0.0,0.0,0.0,0.0,0.0,0.6832,0.6507,0.5597,0.3852,0.2322,0.1198,0.0,-0.1244,-0.2523,-0.3852,-0.5072,-0.6305,-0.7169,-0.8187,-0.9321,0.0,0.0,0.0,0.0,-1.2898,-1.3713,-1.4556,-1.536,-1.6086,-1.6172,-1.6478,-1.7038,-1.6797,-1.6829,-1.7055,-1.6769,-1.6623,-1.6584,-1.6339,-1.6217,-1.6272,-1.7012,-1.7621,-1.8226,-1.9379,-2.0076,-2.048,0.0,0.0,0.0,0.0,0.0,0.0,3.457,3.4521,3.5419,3.7987,3.8033,3.8704,4.1042,4.0976,4.0585,4.0228,3.938,3.8507,3.7609,3.7639,3.8003,3.87,3.9551,4.0197,4.0631,4.0686,4.0727,4.0773,4.0646,4.0484,4.0337,4.0386,4.0236,3.9929,3.9724,3.9415,3.8983,3.7864,3.6944,3.6122,3.4486,3.265,3.0788,2.9197,2.7437,2.5775,2.4671,2.3357,2.1864,2.071,1.9696,1.8752,1.7638,1.6541,0.0,0.0,0.0,0.0,0.0,0.0,0.0,0.0,0.0,0.0,0.0,0.0,0.0,0.0,0.0,0.0,0.0,0.0,0.0,0.7503,0.715,0.6673,0.5908,0.4714,0.3523,0.2405,0.1011,-0.0344,-0.1549,-0.3124,-0.4495,-0.5451,-0.6742,-0.7657,-0.8199,-0.9255,-1.0065,-1.055,-1.1324,-1.2174,-1.307,-1.3654,-1.4261,-1.4822,0.0,0.0,-1.6184,-1.6295,-1.6411,-1.6445,-1.6164,-1.6021,-1.6032,-1.5792,-1.5885,-1.6272,-1.7012,-1.7621,-1.8179,-1.8781,-1.9154,-1.9335,0.0,0.0,0.0,0.0,0.0,0.0,3.43,3.425,3.4878,3.6717,3.6749,3.7293,3.9212,3.9166,3.8953,3.8875,3.8366,3.7867,3.7434,3.8256,3.8984,3.9565,4.0536,4.1075,4.1105,4.1493,4.162,4.1484,4.1358,4.1197,4.1051,4.0666,4.0338,4.0083,3.9826,3.9645,3.9415,3.8116,3.7344,3.6821,3.5163,3.3625,3.2136,3.0404,2.8386,2.6391,2.5649,2.4207,2.2629,2.1795,2.0953,2.0105,1.9016,1.7813,1.6524,0.0,0.0,0.0,0.0,0.0,0.0,0.0,0.0,0.0,0.0,0.0,0.0,0.0,0.0,0.9211,0.0,0.0,0.8092,0.7966,0.7566,0.7119,0.6551,0.5632,0.4478,0.2821,0.1483,0.0175,-0.1105,-0.2394,-0.3656,-0.475,-0.5827,-0.6771,-0.7627,-0.8421,-0.9214,-1.0004,-1.0509,-1.1208,-1.2052,-1.2482,-1.3075,-1.3696,-1.4134,-1.4668,-1.5244,-1.5276,-1.5462,-1.567,-1.5418,-1.5357,-1.5513,-1.5521,-1.5642,-1.5927,-1.6494,-1.7153,-1.7746,-1.8118,-1.8407,-1.8657,0.0,0.0,0.0,0.0,0.0,0.0,0.0,3.3848,3.4206,3.534,3.5366,3.5775,3.7155,3.7244,3.7201,3.7252,3.7353,3.7404,3.7404,3.8745,3.9742,4.0285,4.1174,4.1525,4.1279,4.1908,4.2188,4.2109,4.1961,4.1796,4.1696,4.0896,4.0338,4.0083,3.9826,3.9697,3.9622,3.8266,3.7643,3.7444,3.5624,3.4244,3.3071,3.1182,2.8988,2.6861,2.628,2.4852,2.3188,2.2706,2.2069,2.1284,2.0289,1.9032,1.7629,1.6016,1.4927,0.0,0.0,0.0,0.0,0.0,0.0,0.0,0.0,0.0,1.1032,1.0776,1.0278,0.987,0.9667,0.9028,0.8516,0.8405,0.8053,0.7575,0.7098,0.6354,0.5206,0.3304,0.1957,0.0762,-0.0528,-0.1569,-0.2701,-0.3927,-0.4735,-0.5728,-0.6954,-0.7505,-0.8288,-0.9351,-0.9744,-1.0237,-1.0888,-1.1383,-1.1999,-1.2663,-1.2935,-1.3521,-1.4331,-1.4144,-1.4328,-1.4769,-1.4548,-1.4667,-1.4998,-1.5207,-1.5404,-1.5547,-1.5927,-1.6494,-1.7138,-1.7512,-1.772,-1.7922,0.0,0.0,0.0,0.0,0.0,0.0,0.0,0.0,3.3783,3.5005,3.4938,3.5265,3.6477,3.6254,3.5931,3.5731,3.6746,3.7404,3.7404,3.905,4.0307,4.0961,4.1283,4.1569,4.1877,4.1924,4.2012,4.2109,4.1773,4.1678,4.1696,4.0896,4.0338,4.0083,3.9826,3.9697,3.9622,3.8442,3.7792,3.7469,3.5808,3.4399,3.314,3.152,2.9686,2.781,2.6906,2.5384,2.3667,2.3188,2.2441,2.1525,2.0905,1.9826,1.8447,1.6886,1.567,1.4694,1.4272,1.4019,1.3803,1.3534,1.2974,1.2515,0.0,0.0,1.1796,1.1519,1.1251,1.0867,1.0469,0.985,0.9288,0.884,0.8501,0.8065,0.7293,0.6627,0.5759,0.448,0.3245,0.2016,0.0807,-0.0415,-0.1572,-0.2658,-0.3855,-0.4807,-0.5605,-0.6771,-0.758,-0.7948,-0.8889,-0.95,-0.9801,-1.0477,-1.1152,-1.1737,-1.2001,-1.2609,-1.3413,-1.3232,-1.3341,-1.3696,-1.3637,-1.3895,-1.4388,-1.47,-1.507,-1.5499,-1.5547,-1.5879,-1.6414,-1.7091,-1.6991,-1.6625,0.0,0.0,0.0,0.0,0.0,0.0,0.0,0.0,0.0,3.3491,3.3413,3.3585,3.4211,3.4393,3.4566,3.4893,3.6118,3.6982,3.7233,3.9393,4.0698,4.0665,4.1387,4.1732,4.166,4.1695,4.1551,4.1176,4.147,4.1394,4.0949,4.064,4.0338,4.0058,3.9499,3.922,3.9145,3.8015,3.7489,3.7266,3.5777,3.4629,3.353,3.2013,3.0258,2.8459,2.6822,2.502,0.0,2.2908,2.2142,2.1278,2.0802,1.9775,1.8596,1.7607,1.6508,1.5519,1.497,1.4684,0.0,0.0,1.3933,1.3703,1.3574,1.3243,1.2785,1.2349,1.1827,1.1306,1.095,1.0213,0.9557,0.0,0.8852,0.8249,0.7855,0.721,0.6432,0.5373,0.4339,0.3011,0.1091,0.0117,-0.0892,-0.2081,-0.2835,-0.3709,-0.4744,-0.571,-0.6538,-0.7394,-0.7857,-0.8527,-0.9377,-0.9557,-1.0029,-1.0861,-1.1135,-1.1557,-1.214,-1.2092,-1.2279,-1.2652,-1.2943,-1.3292,-1.363,-1.4256,-1.4592,-1.4867,-1.5309,-1.5642,-1.5879,-1.6447,-1.6426,-1.6197,0.0,0.0,0.0,0.0,0.0,0.0,0.0,0.0,0.0,0.0,3.2274,3.2262,3.2344,3.2676,3.3154,3.3811,3.5063,3.6067,3.6729,3.8996,4.0312,4.0315,4.1071,4.1363,4.1114,4.1219,4.0996,4.0323,4.0797,4.0706,4.0054,3.9974,3.9778,3.95,3.8894,3.8617,3.8567,3.7588,3.7086,3.686,3.5594,3.4491,3.3498,3.1933,3.031,2.8617,2.6777,2.4904,2.3264,2.2656,2.1789,2.0875,2.0442,1.9564,1.8576,1.8037,1.7145,1.6199,1.5379,0.0,0.0,1.4774,1.4657,1.4559,1.4456,1.4027,1.3562,1.3214,1.2501,1.1836,1.156,1.0708,1.0012,0.9887,0.9189,0.8563,0.8255,0.7666,0.6885,0.595,0.5079,0.3658,0.1596,0.0695,-0.0176,-0.1288,-0.196,-0.2755,-0.3769,-0.4608,-0.5491,-0.6587,-0.6965,-0.7658,-0.8639,-0.8807,-0.9258,-0.9919,-1.0257,-1.0604,-1.0937,-1.1071,-1.1327,-1.1688,-1.2175,-1.2516,-1.2856,-1.3582,-1.4004,-1.4244,-1.4914,-1.5261,-1.5452,-1.5832,-1.5934,-1.5842,0.0,0.0,0.0,0.0,0.0,0.0,0.0,0.0,0.0,0.0,0.0,0.0,0.0,3.1424,3.1634,3.2317,3.341,3.4614,3.5849,3.7405,3.8812,4.005,4.0151,4.021,4.0331,4.0487,4.0323,3.9822,3.9712,3.9503,3.9214,3.8704,3.8312,3.8065,3.804,3.804,3.799,3.7437,3.6933,3.6329,3.5203,3.392,3.2562,3.1094,2.9567,2.8106,2.6985,2.5373,2.3642,2.2704,2.1567,2.045,2.0022,1.9354,1.8608,1.8127,1.7455,1.6638,1.5678,1.5548,1.5606,1.5325,1.4937,1.4656,1.4943,1.4406,1.3966,1.4184,1.3474,1.2662,1.2419,1.1688,1.0904,1.0126,0.9678,0.9188,0.8333,0.774,0.704,0.6117,0.5099,0.4033,0.0,0.1595,0.0633,0.0,-0.1227,-0.2064,-0.2414,-0.3648,-0.4616,-0.5169,-0.6308,-0.7048,-0.7271,-0.8374,-0.892,-0.8975,-0.9428,-0.9785,-1.003,-1.0261,-1.0497,-1.0855,-1.1149,-1.1541,-1.2078,-1.2613,-1.3292,-1.3956,-1.4244,-1.464,-1.5131,-1.5404,-1.5458,-1.5366,0.0,0.0,0.0,0.0,0.0,0.0,0.0,0.0,0.0,0.0,0.0,0.0,0.0,0.0,0.0,0.0,3.3132,3.4116,3.4864,3.6714,3.7883,3.803,3.8539,3.8921,3.9043,3.8797,3.8604,3.8549,3.8663,3.8523,3.8165,3.8305,3.8261,3.799,3.7638,3.7462,3.7412,3.6483,3.5981,3.573,3.4625,3.3589,3.2506,3.0984,2.9569,2.8132,0.0,2.4378,2.284,2.1834,2.0751,1.9789,1.9507,1.8802,1.799,1.7544,1.7048,1.6635,1.6352,1.6109,1.5927,1.57,1.5529,1.5378,1.5329,1.5167,1.481,1.4145,1.3473,1.2798,1.2238,1.1619,1.1057,1.0587,1.0186,0.9681,0.8823,0.817,0.7422,0.6428,0.5704,0.0,0.0,0.0,0.0,0.0057,-0.0402,-0.1043,-0.2029,-0.2665,-0.3407,-0.4418,-0.5164,-0.5906,-0.6599,-0.7376,-0.7875,-0.8042,-0.8568,-0.9032,-0.939,-0.9524,-0.9731,-1.0019,-1.0462,-1.0953,-1.1492,-1.2029,-1.2613,-1.3195,-1.3619,-1.41,-1.4567,-1.4678,-1.4654,-1.4636,0.0,0.0,0.0,0.0,0.0,0.0,0.0,0.0,0.0,0.0,0.0,0.0,0.0,0.0,0.0,0.0,0.0,3.3024,3.3691,3.5081,3.6052,3.642,3.6764,3.6988,3.7122,3.6764,3.6516,3.6441,3.6741,3.6703,3.6405,3.6868,3.6978,3.681,3.6458,3.6307,3.6257,3.5508,3.4981,3.4575,3.3671,3.2657,3.1514,3.0204,2.8948,0.0,2.5696,2.4177,2.2812,2.1328,2.0296,1.9567,1.9286,1.8816,1.8173,1.7424,1.7245,1.7238,1.6915,1.6696,1.6465,1.6156,1.6027,1.5879,1.5642,1.5455,1.5149,1.4456,1.3662,1.2958,1.2462,1.1828,1.1263,1.097,1.0572,1.0012,0.9334,0.8618,0.7882,0.7,0.6192,0.533,0.0,0.0,0.0,0.0561,0.017,-0.0399,-0.1311,-0.1823,-0.2506,-0.3416,-0.4167,-0.4983,-0.5819,-0.6543,-0.7056,-0.7466,-0.7992,-0.8374,-0.8737,-0.8835,-0.908,-0.9327,-0.9871,-1.0314,-1.0659,-1.1296,-1.1883,-1.2419,-1.2797,-1.3273,-1.3802,-1.3872,-1.386,-1.39,0.0,0.0,0.0,0.0,0.0,0.0,0.0,0.0,0.0,0.0,0.0,0.0,0.0,0.0,0.0,0.0,0.0,0.0,3.2438,3.257,3.3422,3.519,3.4745,3.4527,3.4706,3.4496,3.4189,3.3751,3.4099,3.4223,3.4223,3.4488,3.465,3.465,3.465,3.465,3.465,3.46,3.3972,3.2943,3.2365,3.1185,2.9679,2.8874,2.7792,2.6612,2.5705,2.4707,2.3491,2.1381,2.0292,1.9761,1.9384,1.9256,1.9018,1.7835,1.8021,1.8358,1.7349,1.719,1.7185,1.673,1.64,1.6163,1.5866,1.5404,1.5008,1.4982,1.3988,1.3085,0.0,0.0,1.1536,1.1278,1.0773,1.0224,0.9682,0.906,0.8354,0.0,0.0,0.0,0.0,0.0,0.0,0.1514,0.0,-0.0056,-0.0336,-0.1234,-0.1851,-0.2188,-0.3304,-0.4198,-0.4819,-0.5759,-0.6533,-0.7153,-0.7607,-0.7877,-0.7988,-0.8237,-0.8528,-0.8775,-0.9327,-0.9575,-0.9624,-1.0413,-1.1051,-1.159,-1.1834,-1.2272,-1.277,-1.304,-1.31,-1.3165,0.0,0.0,0.0,0.0,0.0,0.0,0.0,0.0,0.0,0.0,0.0,0.0,0.0,0.0,0.0,0.0,0.0,0.0,3.0867,3.1364,3.1738,3.2009,3.2384,3.2738,3.3077,3.3111,3.3232,3.3496,3.3434,3.3424,3.3424,3.3488,3.3495,3.3495,3.3495,3.3495,3.347,3.3043,3.2466,3.1788,3.1235,3.0281,2.9038,2.8449,2.7689,2.6753,2.5467,2.4571,2.3746,2.2297,2.1239,2.0459,2.0131,1.9812,1.9482,1.9018,1.8676,1.8397,1.8159,1.7718,1.7246,1.6979,1.6683,1.6438,1.6109,1.5814,1.5421,1.4741,1.3883,1.3159,0.0,0.0,0.0,1.1543,1.1232,0.0,1.0062,0.9272,0.0,0.7981,0.0,0.628,0.5528,0.476,0.0,0.0,0.185,0.0897,-0.0056,-0.0336,-0.0897,-0.1851,-0.241,-0.3082,-0.3921,-0.4977,-0.5885,-0.6769,-0.689,-0.7116,-0.7434,-0.769,-0.7939,-0.8237,-0.8584,-0.8931,-0.9335,-0.9723,-1.0216,-1.0757,-1.1247,-1.1646,-1.1994,-1.2245,-1.2315,-1.2424,0.0,0.0,0.0,0.0,0.0,0.0,0.0,0.0,0.0,0.0,0.0,0.0,0.0,0.0,0.0,0.0,0.0,0.0,0.0,3.0059,3.0129,3.0148,3.0372,3.0543,3.0726,3.0726,3.0835,3.1084,3.1216,3.126,3.126,3.1512,3.1637,3.1637,3.1637,3.1637,3.1612,3.1286,3.0834,0.0,0.0,2.9001,2.8147,2.7595,2.7087,2.6526,2.5654,2.4856,2.4143,0.0,0.0,2.1113,2.1155,2.0826,2.0393,2.0164,0.0,1.945,1.9176,1.8799,1.8293,1.7684,1.7355,1.6961,1.6239,1.5774,1.5331,1.454,1.3736,0.0,1.2763,0.0,0.0,0.0,0.0,0.0,1.0649,0.9941,0.9253,0.0,0.7691,0.0,0.6246,0.5429,0.4589,0.0,0.2522,0.1458,0.0617,0.0224,-0.0336,-0.1009,-0.1683,-0.2515,-0.3548,-0.4381,-0.5124,-0.5896,-0.6052,-0.6401,-0.6836,-0.7141,-0.7391,-0.769,0.0,-0.8386,-0.8684,-0.908,-0.9575,-1.0068,-1.0364,-1.072,-1.1054,-1.1261,-1.1372,-1.1521,0.0,0.0,0.0,0.0,0.0,0.0,0.0,0.0,0.0,0.0,0.0,0.0,0.0,0.0,0.0,0.0,0.0,0.0,0.0,0.0,2.8689,2.9004,2.8727,2.8467,2.8261,2.8337,2.8279,2.8097,2.8574,2.8787,2.8787,2.9327,2.9553,2.9553,2.9553,2.9553,2.9553,2.9553,2.9227,2.8674,2.8197,2.767,2.7153,0.0,2.6396,2.6213,2.5945,2.5277,2.4543,0.0,2.3565,2.1878,2.229,2.2032,2.1596,2.1275,2.1105,2.0913,2.0264,2.0006,1.9732,1.8651,1.8192,1.7702,1.6416,1.5704,1.5134,1.443,0.0,1.3051,1.2936,1.2516,1.2103,1.1875,0.0,1.1711,1.1224,1.072,1.0129,0.9384,0.8374,0.7529,0.6966,0.6098,0.5318,0.476,0.3138,0.1962,0.1458,0.0673,0.0168,0.0,-0.1118,-0.2215,-0.3312,-0.3739,-0.4295,-0.485,-0.5225,-0.5687,-0.6237,-0.6542,-0.6792,-0.7135,-0.764,-0.7839,-0.7939,-0.8478,-0.8973,-0.9377,-0.9501,-0.9725,-1.0065,-1.0306,-1.0417,-1.0549,0.0,0.0,0.0,0.0,0.0,0.0,0.0,0.0,0.0,0.0,3.2168,3.1395,0.0,0.0,0.0,0.0,0.0,0.0,0.0,0.0,0.0,2.7421,2.765,2.7693,2.749,2.7943,2.8133,2.8097,2.8197,2.8247,2.8247,2.8348,2.8398,2.8398,2.8398,2.8398,2.8398,2.8398,2.8072,2.757,2.7469,2.7128,2.6625,2.6524,0.0,0.0,2.5816,2.5171,2.4543,2.4867,2.4233,2.3322,2.3487,2.3185,2.2711,2.2234,2.1961,2.1689,2.108,2.0732,2.0344,1.9415,1.9004,1.8426,1.7044,1.635,0.0,0.0,1.4007,1.3506,1.3469,1.3013,1.2555,1.2117,0.0,0.0,0.0,0.0,1.028,0.0,0.0,0.0,0.0,0.0,0.0,0.0,0.0,0.3474,0.2132,0.1683,0.1059,0.0055,-0.0714,-0.146,-0.2356,-0.2652,-0.324,-0.4152,-0.4239,-0.4684,-0.5441,-0.5687,-0.6087,-0.6537,-0.6892,0.0,-0.7391,-0.7939,-0.8187,-0.8322,-0.8878,-0.9132,-0.9258,-0.9603,-0.9758,-0.9864,0.0,0.0,0.0,0.0,0.0,0.0,0.0,3.2796,3.3155,3.3455,3.2946,3.2288,3.1663,3.1424,0.0,0.0,0.0,0.0,0.0,0.0,0.0,0.0,2.7062,2.7075,2.6901,2.7153,2.7278,2.7278,0.0,2.7278,2.7278,2.7278,2.7278,2.7278,2.7278,2.7278,2.7278,2.7278,2.7128,2.6876,2.6876,2.6725,2.6499,0.0,0.0,0.0,0.0,0.0,2.4944,2.5064,2.463,2.3989,2.3846,2.3574,2.3223,2.2915,2.2741,2.259,2.232,2.2134,2.1801,2.0695,2.0181,1.9426,1.7637,0.0,0.0,0.0,1.4312,1.397,1.3896,1.3618,0.0,0.0,0.0,0.0,0.0,0.0,0.0,0.0,0.0,0.0,0.0,0.0,0.0,0.0,0.0,0.4756,0.3194,0.2279,0.1318,0.0432,-0.016,-0.0792,-0.1452,-0.1695,-0.229,-0.3176,-0.3176,-0.3679,-0.4587,-0.4684,-0.5135,-0.5787,-0.6037,0.0,-0.6836,-0.7191,-0.764,-0.8024,-0.8265,-0.8482,-0.8645,-0.8931,-0.9063,-0.9165,0.0,0.0,0.0,0.0,0.0,0.0,0.0,3.3275,3.3754,3.3903,3.3933,3.3571,3.258,3.2072,3.1326,0.0,0.0,0.0,0.0,0.0,0.0,0.0,0.0,0.0,0.0,0.0,0.0,0.0,2.6499,0.0,0.0,0.0,0.0,0.0,2.6499,2.6499,2.6499,2.6499,2.6499,0.0,0.0,2.6499,0.0,0.0,0.0,0.0,0.0,0.0,2.5289,2.5305,2.4935,2.4374,2.4017,2.37,2.3401,2.3388,2.3381,2.3383,2.3474,2.3444,2.3135,2.2009,2.1289,2.0332,1.8262,1.7383,0.0,1.5138,1.4705,1.4525,1.4346,1.42,1.3908,0.0,1.3015,0.0,0.0,0.0,0.0,0.0,0.0,0.0,0.0,0.0,0.0,0.0,0.0,0.0,0.4117,0.2743,0.1726,0.1165,0.0627,0.0052,-0.0516,-0.0814,-0.1313,-0.2068,-0.2118,-0.2672,-0.3679,-0.3679,-0.4131,-0.4939,-0.5186,0.0,0.0,-0.6442,-0.6974,-0.7631,-0.753,-0.7767,-0.8127,-0.82,-0.8317,-0.8508,0.0,0.0,0.0,0.0,0.0,0.0,0.0,3.3994,3.4653,3.525,3.531,3.4976,3.4099,3.2787,3.151,0.0,0.0,0.0,0.0,0.0,0.0,0.0,0.0,0.0,0.0,0.0,0.0,2.6499,0.0,0.0,0.0,0.0,0.0,0.0,0.0,0.0,2.6499,2.6499,0.0,0.0,0.0,0.0,0.0,0.0,0.0,0.0,0.0,0.0,0.0,0.0,0.0,2.4793,2.4368,2.3749,2.3207,2.3533,0.0,0.0,2.4032,2.397,2.3684,2.2939,2.2136,2.1048,1.9094,0.0,1.7446,1.6007,1.5382,1.5133,1.5098,1.4773,1.4231,1.355,1.3248,1.293,0.0,0.0,0.0,0.0,0.0,0.0,0.0,0.0,0.0,0.0,0.0,0.0,0.4371,0.3339,0.2649,0.234,0.1816,0.1235,0.0658,0.0152,-0.0404,-0.0959,-0.1212,-0.1767,-0.2521,-0.2521,-0.3126,-0.4135,-0.4131,0.0,0.0,-0.5586,-0.603,-0.6468,-0.6524,-0.6911,-0.7464,-0.7307,-0.7554,-0.7988,0.0,0.0,0.0,0.0,0.0,0.0,3.3395,3.4053,3.4711,3.54,3.5519,3.5218,3.4437,3.3447,3.231,3.1205,0.0,0.0,0.0,0.0,0.0,0.0,0.0,0.0,0.0,0.0,2.6499,2.6499,2.6499,0.0,0.0,0.0,0.0,0.0,0.0,0.0,2.6499,2.6499,0.0,0.0,0.0,0.0,0.0,0.0,0.0,0.0,0.0,0.0,0.0,0.0,0.0,0.0,2.4636,2.3996,0.0,0.0,2.4041,2.4062,2.4572,2.4575,2.4198,2.3407,2.2814,2.1876,1.981,0.0,1.8309,1.6652,1.6053,1.5806,1.5611,1.5393,1.4956,1.4103,1.3805,0.0,1.3131,0.0,0.0,0.0,0.0,0.0,0.0,0.0,0.0,0.0,0.0,0.0,0.5702,0.4362,0.3535,0.3417,0.2549,0.1982,0.1767,0.106,0.0555,0.0151,-0.0252,-0.0808,-0.1464,-0.1767,-0.2322,-0.3025,-0.3229,0.0,0.0,-0.4788,-0.5232,-0.5858,-0.6079,-0.6386,-0.6715,-0.6707,-0.701,-0.7408,0.0,0.0,0.0,0.0,0.0,3.2736,3.3395,3.4053,3.4711,3.54,3.5519,3.531,3.4863,3.3898,3.2966,3.2092,3.0695,0.0,0.0,0.0,0.0,0.0,0.0,0.0,0.0,0.0,2.6499,2.6499,2.6499,2.6499,0.0,0.0,0.0,0.0,0.0,0.0,0.0,0.0,0.0,0.0,0.0,0.0,0.0,0.0,0.0,0.0,0.0,0.0,0.0,0.0,0.0,0.0,0.0,2.4479,2.4025,0.0,2.4366,2.4337,2.5108,2.5083,2.4706,2.3983,2.3396,2.25,0.0,0.0,1.8935,1.7254,1.6751,1.6491,1.6175,1.5994,1.561,1.4772,1.4479,1.4212,1.3788,0.0,0.0,0.0,0.0,0.0,0.0,0.0,0.0,0.0,0.0,0.0,0.7026,0.5746,0.4798,0.4386,0.3377,0.2874,0.2874,0.2019,0.1414,0.1161,0.0606,0.005,-0.0454,-0.091,-0.1414,-0.1969,-0.2271,0.0,0.0,-0.3901,-0.4385,-0.4992,-0.5402,-0.5681,-0.5935,-0.6109,-0.6428,-0.6833,0.0,0.0,0.0,0.0,0.0,0.0,3.3395,3.4053,3.4711,3.54,3.5519,3.5519,3.5489,3.4196,3.3237,3.3022,3.1203,0.0,0.0,0.0,0.0,0.0,0.0,0.0,0.0,0.0,2.6499,2.6499,2.6499,2.6499,2.6499,2.6499,2.6499,0.0,0.0,0.0,0.0,0.0,0.0,0.0,0.0,0.0,0.0,0.0,0.0,0.0,0.0,0.0,0.0,0.0,0.0,0.0,0.0,2.5194,2.4738,2.495,2.469,2.4597,2.555,2.552,2.5145,2.4859,2.3927,2.271,0.0,2.0234,1.9237,1.7931,1.7407,1.7132,1.6943,1.656,1.6105,1.5576,1.5336,1.4969,1.436,0.0,0.0,0.0,0.0,0.0,0.0,0.0,0.0,0.0,0.0,0.0,0.7988,0.749,0.6537,0.524,0.4386,0.3984,0.3984,0.2924,0.2269,0.1967,0.1464,0.091,0.0353,0.0101,-0.0303,-0.0858,0.0,0.0,0.0,-0.2943,-0.3355,-0.3786,-0.425,-0.4654,-0.5057,-0.5542,-0.5858,-0.6124,0.0,0.0,0.0,0.0,0.0,0.0,0.0,3.3006,3.3365,3.4053,3.4143,3.4143,3.4143,3.3304,3.2675,3.2524,3.1243,0.0,0.0,0.0,0.0,0.0,0.0,0.0,0.0,2.6739,2.6602,2.6499,2.6499,2.6499,2.6499,2.6499,2.6499,2.6499,2.6499,0.0,0.0,0.0,0.0,0.0,0.0,0.0,0.0,0.0,0.0,0.0,0.0,0.0,0.0,0.0,0.0,0.0,0.0,0.0,0.0,2.5885,2.5203,0.0,2.5084,2.4957,2.457,2.4136,2.3553,2.2704,2.1343,2.0454,1.9633,1.8492,1.7988,1.7632,1.7304,1.6943,1.6615,1.6311,1.6012,1.5658,0.0,0.0,0.0,0.0,0.0,0.0,0.0,0.0,0.0,0.0,0.0,0.0,0.8577,0.8038,0.7235,0.6037,0.5436,0.4985,0.4839,0.393,0.3377,0.3075,0.237,0.1716,0.1213,0.0757,0.0251,0.0,0.0,0.0,0.0,-0.2118,-0.2465,-0.2775,-0.3602,-0.3968,-0.4121,-0.479,-0.5146,-0.5369,0.0,0.0,0.0,0.0,0.0,0.0,0.0,3.2527,3.2736,3.3395,3.3484,3.3484,3.3484,3.2916,3.2437,3.2317,3.1397,0.0,0.0,0.0,0.0,0.0,0.0,0.0,2.7214,2.6875,2.6746,2.693,2.6836,2.6927,2.7102,2.7102,2.7002,2.6801,2.6801,2.67,0.0,0.0,0.0,0.0,0.0,0.0,2.6952,0.0,0.0,0.0,0.0,0.0,0.0,0.0,0.0,0.0,0.0,0.0,0.0,0.0,2.5733,2.4983,0.0,2.5166,2.4714,2.4046,2.3556,0.0,2.1527,2.0671,1.9941,1.9109,1.8738,1.8409,1.7906,1.7678,1.7411,1.6902,1.6699,0.0,0.0,0.0,0.0,0.0,0.0,0.0,0.0,0.0,0.0,0.0,0.0,0.0,0.9418,0.8882,0.8187,0.7335,0.6487,0.5937,0.5636,0.4935,0.4383,0.388,0.3254,0.2645,0.1999,0.1537,0.1031,0.0,0.0,0.0,0.0,-0.1321,-0.1631,-0.1876,-0.2787,-0.3128,-0.3183,-0.3991,-0.4344,-0.4523,0.0,0.0,0.0,0.0,0.0,0.0,0.0,3.2437,3.2647,3.3275,3.3365,3.3365,3.3365,3.2796,3.2408,3.2258,0.0,0.0,0.0,0.0,0.0,0.0,0.0,0.0,2.7523,2.7019,2.7052,2.7637,2.7435,2.7605,2.8097,2.8097,2.7821,2.7293,2.7293,2.7002,2.6499,0.0,0.0,0.0,0.0,0.0,0.0,0.0,0.0,0.0,0.0,0.0,0.0,0.0,0.0,0.0,0.0,0.0,0.0,0.0,0.0,0.0,0.0,2.5937,2.5364,2.4408,0.0,0.0,2.1818,2.0904,0.0,1.9767,1.9607,1.9328,1.8691,1.8651,1.8411,1.7452,1.737,0.0,0.0,0.0,0.0,0.0,0.0,0.0,0.0,0.0,0.0,0.0,0.0,0.0,1.0493,0.9953,0.9402,0.8886,0.7608,0.6769,0.6487,0.5977,0.5277,0.4479,0.4146,0.357,0.2738,0.2448,0.2046,0.0,0.0,0.0,0.0,-0.0461,-0.0821,-0.1077,-0.1794,-0.211,-0.2242,-0.3138,-0.3499,-0.3588,0.0,0.0,0.0,0.0,0.0,0.0,0.0,0.0,0.0,0.0,3.1959,3.1959,3.1959,3.1839,3.1721,0.0,0.0,0.0,0.0,0.0,0.0,0.0,0.0,0.0,2.7756,2.7456,2.7472,2.7822,2.7611,2.7784,2.8352,2.817,2.7821,2.7293,2.7293,2.7002,2.6499,2.6499,0.0,0.0,0.0,0.0,0.0,0.0,0.0,0.0,2.8411,2.8471,0.0,0.0,0.0,0.0,0.0,0.0,0.0,0.0,2.7053,2.6764,2.6785,0.0,2.517,2.4295,2.3677,2.3017,0.0,2.114,2.0477,2.0399,0.0,1.9889,1.926,1.9131,1.8929,1.8165,0.0,0.0,0.0,0.0,0.0,0.0,0.0,0.0,0.0,0.0,0.0,0.0,0.0,1.1619,1.1307,1.0473,0.9827,0.9493,0.8634,0.789,0.7329,0.6886,0.6301,0.5517,0.5124,0.4407,0.3448,0.3385,0.288,0.0,0.0,0.0,0.0813,0.0497,0.009,-0.0314,-0.0852,-0.1166,-0.1436,-0.2242,-0.2513,-0.2601,0.0,0.0,0.0,0.0,0.0,0.0,0.0,0.0,0.0,0.0,0.0,0.0,0.0,0.0,0.0,0.0,0.0,0.0,0.0,0.0,0.0,0.0,0.0,2.8702,2.8183,2.8153,2.8271,2.8498,2.8569,2.8835,2.9335,2.9186,2.8808,2.8142,2.7566,2.7002,2.6499,2.6568,2.6705,2.6875,2.7113,0.0,0.0,0.0,0.0,0.0,2.899,2.9081,0.0,2.9081,2.9081,2.899,0.0,0.0,0.0,0.0,2.7663,2.743,2.7364,2.6552,2.5481,2.4406,2.3853,2.328,2.2133,0.0,0.0,0.0,0.0,2.0552,1.979,1.9619,0.0,0.0,0.0,0.0,0.0,0.0,0.0,0.0,0.0,0.0,0.0,0.0,0.0,0.0,0.0,1.2277,1.2102,1.1157,1.0538,1.038,0.9685,0.884,0.7869,0.7555,0.7037,0.6272,0.5962,0.5297,0.4359,0.432,0.3776,0.0,0.0,0.0,0.1615,0.1436,0.1031,0.0448,0.009,-0.0224,-0.0493,-0.1256,-0.1525,-0.157,0.0,0.0,0.0,0.0,0.0,0.0,0.0,0.0,0.0,0.0,0.0,0.0,0.0,0.0,0.0,0.0,0.0,0.0,0.0,0.0,0.0,0.0,2.9591,2.9208,2.8898,2.8999,2.9217,2.9459,2.9777,3.014,3.0482,3.0444,2.9972,2.9085,2.79,2.7097,2.6602,2.6705,2.6875,2.7113,2.739,0.0,0.0,0.0,0.0,0.0,0.0,0.0,0.0,2.9713,2.9713,2.9651,2.9338,0.0,0.0,0.0,0.0,0.0,2.7987,2.7196,2.6189,2.4929,2.4345,2.379,2.2479,0.0,0.0,0.0,0.0,0.0,0.0,2.019,0.0,0.0,0.0,0.0,0.0,0.0,0.0,0.0,0.0,0.0,0.0,0.0,0.0,0.0,0.0,1.2893,1.2859,1.1938,1.1415,1.1339,1.0654,0.9736,0.8583,0.8242,0.7697,0.6901,0.6804,0.6287,0.5278,0.523,0.4696,0.3808,0.0,0.0,0.2422,0.2422,0.1973,0.1256,0.1031,0.0762,0.0448,-0.0224,-0.0493,-0.0583,0.0,0.0,0.0,0.0,0.0,0.0,0.0,0.0,0.0,0.0,0.0,0.0,0.0,0.0,0.0,0.0,0.0,0.0,0.0,0.0,0.0,3.0657,3.0054,2.9813,3.0053,2.9909,3.0147,3.0708,3.0601,3.0655,3.0898,3.0736,2.998,2.8743,2.8103,2.748,2.6909,2.6943,2.7146,2.7423,2.749,0.0,0.0,0.0,0.0,0.0,0.0,0.0,0.0,3.0387,3.0326,3.0174,3.0021,0.0,0.0,0.0,0.0,0.0,2.8541,2.8118,2.7439,2.6231,2.5272,2.4478,2.3697,2.2892,0.0,0.0,0.0,0.0,0.0,2.0874,0.0,0.0,0.0,0.0,0.0,0.0,0.0,0.0,0.0,0.0,0.0,0.0,0.0,0.0,0.0,1.3791,1.3623,1.2892,1.2302,1.1869,1.1391,1.0824,1.0255,0.9409,0.8625,0.7896,0.7692,0.7132,0.6192,0.6174,0.5675,0.4786,0.0,0.4255,0.3365,0.3365,0.2869,0.2018,0.1973,0.166,0.1166,0.0672,0.0493,0.0359,0.0,0.0,0.0,0.0,0.0,0.0,0.0,0.0,0.0,0.0,0.0,0.0,0.0,0.0,0.0,0.0,0.0,0.0,0.0,0.0,3.1219,3.1073,3.1038,3.0898,3.068,3.0853,3.1076,3.1408,3.1665,3.1703,3.1485,3.1187,3.0372,2.9116,2.8679,2.798,2.7146,2.7146,2.7315,2.7523,0.0,0.0,0.0,0.0,0.0,0.0,0.0,0.0,0.0,0.0,3.0806,3.0687,3.0538,0.0,0.0,0.0,0.0,0.0,2.9085,2.8798,2.8395,2.7674,2.659,2.5371,2.4255,2.3629,0.0,0.0,0.0,0.0,0.0,0.0,0.0,0.0,0.0,0.0,0.0,0.0,0.0,0.0,0.0,0.0,0.0,0.0,0.0,0.0,0.0,0.0,1.4311,1.36,1.2982,1.2493,1.1892,1.1366,1.095,1.0341,0.9607,0.8763,0.8637,0.8113,0.7143,0.7143,0.6738,0.5985,0.0,0.5364,0.4692,0.4379,0.3901,0.3314,0.2966,0.2662,0.2287,0.1705,0.1346,0.0986,0.0,0.0,0.0,0.0,0.0,0.0,0.0,0.0,0.0,0.0,0.0,0.0,0.0,0.0,0.0,0.0,0.0,0.0,0.0,3.1424,3.1336,3.1336,3.1812,3.1861,3.1415,3.1854,3.215,3.2257,3.2695,3.2624,3.2109,3.168,3.0821,2.9609,2.939,2.8621,2.7482,2.7482,2.759,2.7789,0.0,0.0,0.0,0.0,0.0,0.0,0.0,0.0,0.0,0.0,0.0,0.0,0.0,0.0,0.0,3.0357,3.0115,2.9901,2.9591,2.9401,2.918,2.8826,2.7632,2.6245,2.489,2.4371,0.0,0.0,0.0,0.0,0.0,0.0,0.0,0.0,0.0,0.0,0.0,0.0,0.0,0.0,0.0,0.0,0.0,0.0,0.0,0.0,0.0,0.0,1.4805,1.4171,1.3588,1.3114,1.2534,1.2034,1.1513,1.1312,1.0604,0.9422,0.9422,0.8949,0.7997,0.7997,0.7642,0.6984,0.6729,0.6337,0.5845,0.5276,0.486,0.445,0.3902,0.3526,0.3225,0.2652,0.2172,0.1692,0.0,0.0,0.0,0.0,0.0,0.0,0.0,0.0,0.0,0.0,0.0,0.0,0.0,0.0,0.0,0.0,0.0,0.0,0.0,3.1511,3.1511,3.1511,3.199,3.2371,3.2587,3.3035,3.3408,3.3665,3.3548,3.3227,3.2632,3.2237,3.1325,3.0054,3.0019,2.9274,2.8046,2.8046,2.8243,2.8536,2.8568,0.0,0.0,0.0,0.0,0.0,0.0,0.0,0.0,0.0,0.0,0.0,0.0,0.0,3.1014,3.0806,3.0628,3.0477,3.0115,2.9901,2.9623,2.918,2.808,2.6892,2.5913,2.5148,0.0,2.3281,0.0,0.0,0.0,0.0,0.0,0.0,0.0,0.0,0.0,0.0,0.0,0.0,0.0,0.0,0.0,0.0,0.0,0.0,0.0,0.0,1.5024,1.4682,1.4276,1.3648,1.3581,1.3173,1.2406,1.2393,1.1537,0.9876,0.9876,0.9374,0.8552,0.8552,0.8181,0.7518,0.7311,0.6978,0.6521,0.6008,0.5549,0.5095,0.4671,0.413,0.3546,0.3293,0.3077,0.2785,0.0,0.0,0.0,0.0,0.0,0.0,0.0,0.0,0.0,0.0,0.0,0.0,0.0,0.0,0.0,0.0,0.0,0.0,0.0,3.1511,3.1511,3.1511,3.2497,3.3092,3.3207,3.3574,3.3959,3.4332,3.3922,3.3577,3.3262,3.2528,3.1682,3.0746,3.026,2.9492,2.8541,2.8471,2.8541,2.8766,2.8931,2.931,0.0,0.0,0.0,0.0,0.0,0.0,0.0,0.0,3.1482,3.1424,3.1424,3.1336,3.122,3.1131,3.1043,3.0866,3.0598,3.0417,3.0205,2.9837,2.9268,0.0,0.0,2.6542,2.5949,2.4973,2.4341,0.0,0.0,0.0,0.0,0.0,0.0,0.0,0.0,0.0,0.0,0.0,0.0,0.0,0.0,0.0,0.0,0.0,0.0,0.0,1.6141,1.5589,1.5047,1.4577,1.4156,1.3618,1.2941,1.279,1.2221,1.1189,1.0885,1.0303,0.9572,0.945,0.9164,0.8746,0.8418,0.8139,0.7802,0.7237,0.6811,0.6446,0.5699,0.5074,0.4573,0.4239,0.3966,0.374,0.0,0.0,0.0,0.0,0.0,0.0,0.0,0.0,0.0,0.0,0.0,0.0,0.0,0.0,0.0,0.0,0.0,0.0,3.1511,3.1511,3.1511,3.1511,3.2557,3.3275,3.3484,3.3923,3.4383,3.4865,3.4332,3.4025,3.3922,3.2993,3.2168,3.1415,3.0601,2.9827,2.9026,2.8958,2.899,2.9153,2.9373,2.9654,0.0,0.0,0.0,0.0,0.0,0.0,0.0,0.0,3.1511,3.1511,3.1511,3.1453,3.1336,3.1336,3.1278,3.1132,3.1014,3.0836,3.0687,3.0387,0.0,0.0,2.8592,2.7908,2.7238,2.6215,2.5361,0.0,0.0,0.0,0.0,0.0,0.0,0.0,0.0,0.0,0.0,0.0,0.0,0.0,0.0,0.0,0.0,0.0,0.0,0.0,0.0,1.6229,1.5713,1.5332,1.4744,1.4201,1.3659,1.3404,1.3003,1.2489,1.2056,1.1347,1.048,1.0282,1.0005,0.9717,0.9368,0.9049,0.876,0.8221,0.7771,0.7288,0.6593,0.6025,0.5577,0.5252,0.4946,0.4688,0.0,0.0,0.0,0.0,0.0,0.0,0.0,0.0,0.0,0.0,0.0,0.0,0.0,0.0,0.0,0.0,0.0,0.0,3.1511,3.1511,3.1511,3.1511,3.2138,3.2826,3.3484,3.4174,3.4737,3.5195,3.4865,3.4698,3.4698,3.3694,3.2766,3.1972,3.1151,3.0337,2.9617,2.9617,2.9682,2.9808,2.9808,2.9993,3.0326,0.0,0.0,0.0,0.0,0.0,0.0,0.0,3.1511,3.1511,3.1511,3.1511,3.1511,3.1511,3.1424,3.1307,3.1307,3.122,3.1043,0.0,0.0,0.0,3.0205,2.9113,2.7858,2.6674,2.5892,2.5235,2.4638,0.0,0.0,0.0,0.0,0.0,0.0,0.0,0.0,0.0,0.0,0.0,0.0,0.0,0.0,0.0,0.0,0.0,0.0,1.6542,1.6158,1.5842,1.5417,1.501,1.4601,1.4258,1.3912,1.3499,1.3295,1.2489,1.1117,1.0919,1.0594,1.0218,0.9992,0.97,0.9284,0.8894,0.8246,0.748,0.7296,0.6949,0.6602,0.6325,0.6061,0.5743,0.0,0.0,0.0,0.0,0.0,0.0,0.0,0.0,0.0,0.0,0.0,0.0,0.0,0.0,0.0,0.0,0.0,0.0,3.1511,3.1511,3.1511,3.1511,3.2138,3.2587,3.2796,3.3934,3.4737,3.5195,3.5096,3.4997,3.4806,3.3621,3.2879,3.2489,3.1228,3.0438,3.0083,2.9988,2.9988,3.0021,3.0266,3.0417,3.0538,0.0,0.0,0.0,0.0,0.0,0.0,0.0,0.0,0.0,3.1511,3.1511,3.1511,3.1511,3.1482,3.1453,3.1453,3.1663,0.0,3.1871,0.0,0.0,0.0,3.0256,0.0,0.0,2.7158,2.6501,2.592,0.0,0.0,0.0,0.0,0.0,0.0,0.0,0.0,0.0,0.0,0.0,0.0,0.0,0.0,0.0,0.0,0.0,0.0,1.7696,1.732,1.6959,1.6438,1.6,1.5578,1.524,1.4883,1.4474,1.4294,1.3462,1.2157,1.1972,1.1626,1.1217,1.1031,1.0743,1.0331,0.9765,0.9236,0.8751,0.8399,0.8016,0.7603,0.7249,0.6972,0.6744,0.0,0.0,0.0,0.0,0.0,0.0,0.0,0.0,0.0,0.0,3.1511,3.1511,0.0,0.0,0.0,0.0,0.0,0.0,0.0,3.1511,3.1511,3.1511,3.1899,3.2228,3.2556,3.3636,3.4325,3.4618,3.4822,3.4726,3.4332,3.3499,3.2933,3.2545,3.1599,3.0951,3.0598,3.0536,3.0506,3.0506,3.0717,3.0806,3.0836,0.0,0.0,0.0,0.0,0.0,0.0,0.0,0.0,0.0,3.1511,3.169,3.1899,3.1899,3.1899,3.1899,3.1899,3.2139,0.0,3.2378,3.2257,3.2018,3.1602,0.0,0.0,0.0,0.0,2.7778,2.7213,0.0,0.0,0.0,0.0,0.0,0.0,0.0,0.0,0.0,0.0,0.0,0.0,0.0,0.0,0.0,0.0,0.0,0.0,1.861,1.824,1.7833,1.7389,1.6941,1.6577,1.6228,1.5842,1.5436,1.5294,1.4689,1.3716,1.3171,1.2673,1.2268,1.1898,1.1527,1.1105,1.0594,1.018,0.9841,0.9463,0.9084,0.8789,0.8437,0.8093,0.7787,0.0,0.0,0.0,0.0,0.0,0.0,0.0,0.0,0.0,0.0,3.1511,3.1511,0.0,0.0,0.0,0.0,0.0,0.0,0.0,3.154,3.154,3.1629,3.1569,3.1896,3.2613,3.3276,3.3608,3.3548,3.4116,3.4114,3.3484,3.336,3.3001,3.2377,3.2137,3.1722,3.1191,3.1132,3.1102,3.1102,3.1102,3.1102,3.1132,3.1278,0.0,0.0,0.0,0.0,0.0,0.0,0.0,0.0,3.1511,3.1959,3.2527,3.2527,3.2527,3.2527,3.2527,3.2527,0.0,3.2587,3.2497,0.0,3.1368,3.0716,3.0002,2.922,0.0,2.9014,0.0,0.0,0.0,0.0,0.0,0.0,0.0,0.0,0.0,0.0,0.0,0.0,0.0,0.0,0.0,0.0,0.0,0.0,0.0,1.9396,1.9031,1.861,1.8307,1.7901,1.751,1.7182,1.6837,1.6421,1.6316,1.6035,1.5594,1.4453,1.3695,1.3273,1.2709,1.2231,1.1811,1.144,1.1143,1.0893,1.0519,1.0218,0.9992,0.9803,0.9349,0.8856,0.0,0.0,0.0,0.0,0.0,0.0,0.0,0.0,0.0,0.0,0.0,0.0,0.0,0.0,0.0,0.0,0.0,0.0,0.0,3.178,3.1778,3.2405,3.2098,3.1972,3.2152,3.2788,3.2879,3.2364,3.3276,3.3634,3.3484,3.3454,3.3394,3.3214,3.2555,3.2168,3.199,3.1368,3.1102,3.1102,3.122,3.1248,3.1248,3.1424,3.1482,0.0,0.0,0.0,0.0,0.0,0.0,0.0,3.1511,3.1959,3.2527,3.2527,3.2527,3.2527,3.2527,3.2886,0.0,0.0,3.3245,3.3034,3.2228,3.1516,3.0866,3.0364,3.0029,0.0,0.0,0.0,0.0,0.0,0.0,0.0,0.0,0.0,0.0,0.0,0.0,0.0,0.0,0.0,0.0,0.0,0.0,0.0,2.041,2.0313,1.9987,1.9363,1.9144,1.8777,1.8273,1.809,1.7818,1.7407,1.7201,1.6959,1.6559,1.5401,1.4597,1.4057,1.3644,1.3353,1.3098,1.2673,1.2305,1.1972,1.1713,1.1292,1.0856,1.0781,1.0519,1.0105,0.0,0.0,0.0,0.0,0.0,0.0,0.0,0.0,0.0,0.0,0.0,0.0,0.0,0.0,0.0,0.0,0.0,0.0,0.0,0.0,3.2675,3.2851,3.272,3.2527,3.2191,3.2583,3.264,3.2302,3.3027,3.3276,3.3096,3.3457,3.3546,3.3484,3.3064,3.2706,3.2348,3.1634,3.1278,3.1307,3.1366,3.1424,3.1424,3.1482,3.1511,3.1511,3.1511,0.0,0.0,0.0,0.0,0.0,0.0,0.0,3.2527,3.2527,3.2527,3.2646,3.3036,0.0,0.0,3.412,0.0,3.3547,3.2796,3.2135,3.1538,3.119,0.0,0.0,0.0,0.0,0.0,0.0,0.0,0.0,0.0,0.0,0.0,0.0,0.0,0.0,0.0,0.0,0.0,0.0,0.0,2.187,2.125,2.1178,2.086,2.0248,2.0053,1.9639,1.9031,1.8965,1.8697,1.8226,1.8022,1.7696,1.7251,1.614,1.5417,1.501,1.4617,1.4294,1.3991,1.368,1.3368,1.2989,1.2806,1.2475,1.2083,1.2009,1.1713,1.1366,0.0,0.0,0.0,0.0,0.0,0.0,0.0,0.0,0.0,0.0,0.0,0.0,0.0,0.0,0.0,0.0,0.0,0.0,0.0,0.0,0.0,3.3268,3.3433,3.3264,3.2705,3.2718,3.2711,3.2711,3.327,3.3414,3.3243,3.3698,3.3849,3.3726,3.3726,3.3335,3.2647,3.1959,3.16,3.1511,3.1511,3.1511,3.1511,3.1511,3.1511,3.1511,3.1511,3.1511,3.1511,3.1511,0.0,0.0,0.0,0.0,3.2497,3.2557,3.2616,3.2884,3.3638,0.0,3.4364,3.5033,3.4607,0.0,3.3359,3.2629,3.2023,0.0,0.0,0.0,0.0,0.0,0.0,0.0,0.0,0.0,0.0,0.0,0.0,0.0,0.0,0.0,0.0,0.0,0.0,0.0,0.0,2.258,2.2125,2.1963,2.162,2.1083,2.0892,2.0474,1.9824,1.9813,1.9528,1.9065,1.8811,1.8442,1.7935,1.6994,1.6368,1.6,1.563,1.5223,1.4887,1.4653,1.4382,1.4093,1.3861,1.3644,1.3404,1.3258,1.2966,1.2599,0.0,0.0,0.0,0.0,0.0,0.0,0.0,0.0,0.0,0.0,3.3275,3.3275,0.0,0.0,0.0,0.0,0.0,0.0,3.4511,0.0,0.0,3.4354,3.4107,3.3956,3.3862,3.3433,3.3229,3.3229,3.4356,3.5125,3.5481,3.5034,3.4696,3.4541,3.4541,3.4087,3.3335,3.2647,3.2019,3.1511,3.1511,3.1511,3.1511,3.1511,3.1511,3.1511,3.1511,3.1511,3.1511,3.1511,3.1511,0.0,0.0,0.0,3.2497,3.2645,3.2704,3.2914,0.0,0.0,3.5187,0.0,3.5186,3.4324,0.0,0.0,3.2358,0.0,0.0,0.0,0.0,0.0,0.0,0.0,0.0,0.0,0.0,0.0,0.0,0.0,0.0,0.0,0.0,0.0,0.0,0.0,2.3825,2.3305,2.2955,2.2671,2.2273,2.1784,2.162,2.1305,2.0732,2.0539,2.0377,2.0161,1.9693,1.933,1.9077,1.863,1.792,1.6994,1.6612,1.6298,1.6053,1.5736,1.5488,1.524,1.5062,1.4724,1.4422,1.4386,1.415,1.3876,0.0,0.0,0.0,0.0,0.0,0.0,0.0,0.0,0.0,0.0,0.0,3.3634,0.0,0.0,0.0,3.4592,3.4686,3.5027,3.5674,3.5922,3.5889,3.5474,3.5015,3.4672,3.4482,3.3947,3.3834,3.4249,3.549,3.6365,3.6916,3.6875,3.6599,3.6128,3.5243,3.4423,3.3607,3.2946,3.2197,3.1511,3.1511,3.1511,3.1511,3.1511,3.1511,3.1511,3.1511,3.1511,3.1511,3.1511,3.1511,3.1511,3.1511,0.0,0.0,0.0,3.2364,3.2804,3.4168,3.5393,3.6381,0.0,3.5848,3.4966,3.4966,0.0,0.0,0.0,0.0,0.0,0.0,0.0,0.0,0.0,0.0,0.0,0.0,0.0,0.0,0.0,0.0,0.0,0.0,0.0,0.0,0.0,2.4939,2.4413,2.3783,2.3395,2.2975,2.258,2.2334,2.1963,2.1494,2.1305,2.1051,2.07,2.0442,2.0183,1.9901,1.9639,1.8944,1.7901,1.756,1.7251,1.7063,1.6716,1.6455,1.6245,1.6035,1.5824,1.5561,1.5561,1.533,1.5046,0.0,0.0,0.0,0.0,0.0,0.0,0.0,0.0,0.0,0.0,0.0,0.0,0.0,0.0,0.0,0.0,3.5686,3.5975,3.6476,3.6631,3.6658,3.6603,3.5918,3.5441,3.5224,3.4452,3.4309,3.4884,3.6281,3.7231,3.7662,3.8199,3.8153,3.7589,3.6075,3.4912,3.4122,3.3366,3.2584,3.1808,3.1599,3.1511,3.1511,3.1511,3.16,3.175,3.175,3.175,0.0,0.0,3.163,3.1511,3.1568,3.1655,0.0,0.0,0.0,0.0,0.0,0.0,3.6821,3.6821,3.608,3.5331,0.0,0.0,0.0,0.0,0.0,0.0,0.0,0.0,0.0,0.0,0.0,0.0,0.0,0.0,0.0,0.0,0.0,0.0,0.0,0.0,0.0,0.0,2.6215,2.5625,2.4862,2.4367,2.3846,2.3365,2.3035,2.2641,2.2187,2.2025,2.1683,2.1233,2.1178,2.1019,2.0709,2.0516,1.9966,1.9077,1.8576,1.824,1.8056,1.7716,1.7491,1.7267,1.7148,1.6941,1.6715,1.6715,1.6524,1.6228,0.0,0.0,0.0,0.0,0.0,0.0,0.0,0.0,0.0,0.0,0.0,0.0,3.5459,3.5561,3.5657,3.5688,3.5878,3.6132,3.6507,3.7059,3.7447,3.7623,3.6681,0.0,3.63,3.5117,3.4505,3.4538,3.6482,3.7476,3.7541,3.8447,3.8792,3.855,3.7064,3.5953,3.5095,3.4122,3.3366,3.2673,3.1808,3.1511,3.1511,3.1511,3.1899,3.2437,3.2437,0.0,0.0,0.0,0.0,0.0,0.0,0.0,3.1855,0.0,0.0,0.0,0.0,3.4944,0.0,3.5787,3.5433,0.0,0.0,0.0,0.0,0.0,0.0,0.0,0.0,0.0,0.0,0.0,0.0,0.0,0.0,0.0,0.0,0.0,0.0,0.0,0.0,0.0,0.0,0.0,2.7807,2.6931,2.6323,2.5743,2.5004,2.4099,2.3721,2.339,2.3035,2.2702,2.242,2.2135,2.1932,2.1753,2.162,2.1431,2.1146,2.0732,1.9671,1.9144,1.8998,1.8798,1.8596,1.8408,1.8408,1.8206,1.7901,1.7901,1.7662,1.7304,0.0,0.0,0.0,0.0,0.0,0.0,0.0,0.0,0.0,0.0,0.0,0.0,0.0,3.5878,3.591,3.591,3.6163,3.6538,3.7028,3.7419,3.7743,3.8151,3.7064,3.6574,3.6781,3.5547,3.509,3.5521,3.7122,3.8077,3.8488,3.9105,3.9328,3.9087,3.7613,3.6382,3.5339,3.4574,3.3695,3.2734,3.1983,3.1626,3.154,3.1959,3.2288,0.0,0.0,0.0,0.0,0.0,0.0,0.0,0.0,0.0,0.0,0.0,0.0,0.0,0.0,0.0,0.0,3.6152,3.5792,3.5295,0.0,0.0,0.0,0.0,0.0,0.0,0.0,0.0,0.0,0.0,0.0,0.0,0.0,0.0,0.0,0.0,0.0,0.0,0.0,0.0,0.0,0.0,0.0,2.8249,2.7626,2.7019,2.6274,2.5445,2.5037,2.4376,2.345,2.33,2.309,2.2787,2.2702,2.2549,2.2273,2.2211,2.1994,2.1706,2.1187,2.0581,1.9901,1.9726,1.9561,1.9396,1.9264,1.9131,1.9031,1.9031,1.8798,1.8496,0.0,0.0,0.0,0.0,0.0,0.0,0.0,0.0,0.0,3.6099,0.0,0.0,0.0,0.0,3.6289,3.6414,3.6662,3.6997,3.7535,3.7801,3.8119,3.8572,3.7642,3.7147,3.717,3.6095,3.5642,3.5819,3.6987,3.7849,3.85,3.8964,3.9201,3.9194,3.811,3.7046,3.607,3.5022,3.4111,3.3271,0.0,0.0,3.1657,0.0,0.0,0.0,0.0,0.0,0.0,0.0,0.0,0.0,0.0,0.0,0.0,0.0,0.0,0.0,3.471,0.0,0.0,0.0,0.0,3.5324,0.0,0.0,0.0,0.0,0.0,0.0,0.0,0.0,0.0,0.0,0.0,0.0,0.0,0.0,0.0,0.0,0.0,0.0,0.0,0.0,0.0,0.0,0.0,0.0,2.8943,2.8307,2.7527,2.6624,2.6025,2.5258,2.4327,2.4031,2.378,2.3514,2.3454,2.3275,2.298,2.2944,2.2818,2.2574,2.2396,2.1784,2.0901,2.0677,2.0516,2.0377,2.0248,2.015,2.002,2.002,1.9857,1.9594,0.0,0.0,0.0,0.0,0.0,0.0,0.0,0.0,3.7085,3.6349,0.0,0.0,0.0,0.0,0.0,3.7178,3.7328,3.7565,3.7915,3.8234,3.8572,3.9013,3.8507,3.7985,3.7526,3.6788,3.6051,3.5314,3.6028,3.6764,3.7492,3.7867,3.8388,3.8947,3.8535,3.7998,3.7259,3.5468,3.4618,3.4321,0.0,3.194,3.1828,0.0,0.0,0.0,3.3545,3.3545,0.0,3.3668,0.0,0.0,0.0,0.0,0.0,0.0,0.0,0.0,0.0,0.0,0.0,0.0,0.0,0.0,0.0,0.0,0.0,0.0,0.0,0.0,0.0,0.0,0.0,0.0,0.0,0.0,0.0,0.0,0.0,0.0,0.0,0.0,0.0,0.0,0.0,0.0,3.1423,3.0778,3.0186,2.9581,2.8648,2.7409,2.6624,2.6089,2.5767,2.4972,2.4478,2.4334,2.4189,2.4018,2.3842,2.3691,2.3569,2.342,2.3241,2.2702,2.1939,2.1721,2.1565,2.1463,2.1463,2.1242,2.0955,2.0924,2.0828,2.0635,0.0,0.0,0.0,0.0,0.0,0.0,3.9094,3.8842,3.8497,0.0,0.0,0.0,3.6969,3.7088,3.7328,3.7682,3.774,3.7943,3.8371,3.865,3.8958,3.9202,3.882,3.8346,3.7648,3.7003,3.6308,3.5509,3.6135,3.6558,3.6793,3.7394,3.7627,3.7529,3.7458,3.711,3.6625,3.5633,0.0,3.3957,3.2752,3.2219,0.0,0.0,0.0,0.0,0.0,3.4273,3.394,0.0,3.3848,3.2804,0.0,0.0,0.0,0.0,0.0,0.0,3.4739,0.0,0.0,0.0,0.0,0.0,0.0,0.0,0.0,0.0,0.0,0.0,0.0,0.0,0.0,0.0,0.0,0.0,0.0,0.0,0.0,0.0,0.0,0.0,0.0,0.0,0.0,0.0,3.2244,3.1875,3.1498,3.0421,2.9494,2.8706,2.8052,2.751,2.7102,2.635,2.5875,2.5644,2.5151,2.4765,2.4536,2.4478,2.4305,2.4044,2.4015,2.3783,2.3429,2.2823,2.2433,2.2255,2.2255,2.2194,2.2125,2.2025,2.187,2.169,0.0,0.0,0.0,0.0,0.0,4.1214,4.0543,4.0228,3.9818,0.0,0.0,0.0,3.8515,3.8378,3.8363,3.8624,3.842,3.8455,3.8876,3.9094,3.9309,3.952,3.9353,3.8933,3.8265,3.7594,3.6874,3.6096,3.6106,3.6295,3.6656,3.6928,3.7175,3.7295,3.7136,3.6744,3.6175,0.0,0.0,0.0,3.3104,0.0,0.0,3.2732,3.2984,0.0,0.0,0.0,3.427,3.5064,3.4507,0.0,0.0,0.0,0.0,0.0,0.0,0.0,0.0,0.0,0.0,0.0,0.0,0.0,3.4004,3.4103,3.4167,0.0,0.0,0.0,0.0,0.0,0.0,0.0,0.0,0.0,0.0,0.0,0.0,0.0,0.0,0.0,0.0,3.3617,3.3298,3.3193,3.29,3.2547,3.2191,3.1349,3.0685,3.0163,2.9435,2.8886,2.8568,2.7797,2.7145,2.6665,2.6217,2.5716,2.5244,2.5188,2.5076,2.4907,2.4794,2.4709,2.4595,2.4102,2.3547,2.3105,2.3105,2.3075,2.301,2.2944,2.2829,2.2713,0.0,0.0,0.0,4.2174,4.246,4.2453,4.1868,4.1494,4.105,0.0,4.0062,3.9998,4.0301,3.9962,3.9715,3.976,3.9313,3.9078,3.9342,3.9475,3.9659,3.9884,3.991,3.9623,3.9005,3.8294,3.755,3.6795,3.5994,3.596,3.6637,3.6464,3.6787,3.7461,3.716,0.0,0.0,0.0,0.0,3.4759,3.371,3.3222,0.0,0.0,3.3191,3.3728,3.4378,3.4594,3.4747,3.5514,3.5094,0.0,0.0,0.0,0.0,0.0,3.4643,0.0,0.0,0.0,0.0,0.0,0.0,0.0,3.4697,3.4682,3.4597,3.3802,0.0,0.0,0.0,0.0,0.0,0.0,0.0,0.0,0.0,0.0,0.0,0.0,0.0,0.0,3.457,3.4226,3.3924,3.3797,3.3455,3.3033,3.2547,3.2247,3.1938,3.1595,3.077,3.0216,3.0102,2.9201,2.8365,2.765,2.7425,2.6916,2.6128,2.5992,2.5853,2.577,2.5605,2.5522,2.5495,2.5384,2.4766,2.3959,2.3959,2.3872,2.3754,2.3754,2.3725,2.3725,0.0,0.0,4.2744,4.2744,4.2898,4.2956,4.2825,4.2671,4.2288,4.1571,4.0956,4.0631,4.0691,4.0823,4.0663,4.021,4.021,4.0074,3.9633,3.9729,3.9866,3.9884,4.0011,3.9724,3.9005,3.8294,3.755,3.6795,3.5994,3.5667,3.5836,3.578,3.5836,3.5912,3.5866,3.5673,3.5399,0.0,0.0,3.5678,3.4832,0.0,3.5031,3.4893,3.4932,3.5096,3.5789,3.6012,3.6041,3.6227,3.5837,3.524,0.0,0.0,0.0,3.4667,0.0,0.0,0.0,0.0,0.0,0.0,0.0,0.0,3.4805,3.5132,3.5266,0.0,0.0,0.0,0.0,0.0,0.0,0.0,0.0,0.0,0.0,0.0,0.0,0.0,0.0,0.0,3.4977,3.4715,3.4497,3.4349,3.3899,3.3513,3.3303,3.2873,3.252,3.2216,3.1845,3.153,3.1329,3.0559,3.0032,2.9714,2.9101,2.8376,2.7571,2.7382,2.6958,2.6365,2.6283,2.6229,2.6122,2.6095,2.5632,2.4935,2.4821,2.4736,2.4708,2.4593,2.4565,2.4536,0.0,0.0,4.3267,4.3325,4.3476,4.3595,4.3595,4.3446,4.3224,4.2861,4.2499,4.2298,4.2298,4.217,4.1976,4.1666,4.113,4.0668,4.0378,4.0137,3.9986,3.9986,4.0062,3.9943,3.9571,3.8464,3.7719,3.7347,3.6174,3.56,3.56,3.56,3.5577,3.5566,3.5566,3.5498,3.5383,0.0,3.5528,3.6,3.5349,0.0,3.605,3.5915,3.586,3.5957,3.6602,3.7025,3.7195,3.6844,3.6638,0.0,0.0,3.5096,3.5005,0.0,3.5105,3.5314,0.0,0.0,0.0,3.56,0.0,0.0,0.0,3.5659,3.59,3.5311,0.0,0.0,0.0,0.0,0.0,0.0,0.0,0.0,0.0,0.0,0.0,0.0,0.0,0.0,3.5475,3.5211,3.4977,3.4811,3.4374,3.4075,3.4,3.3507,3.3193,3.3033,3.2629,3.2355,3.2272,3.1771,3.1271,3.0739,3.0383,2.9735,2.8893,2.8782,2.85,2.8042,2.7692,2.7518,2.741,2.701,2.663,2.6258,2.5825,2.566,2.566,2.555,2.555,2.5495,4.3443,0.0,0.0,4.3831,4.401,4.4097,4.4097,4.3948,4.386,4.386,4.3994,4.406,4.406,4.3805,4.3618,4.3451,4.2515,4.1721,4.1283,4.078,4.0485,4.0316,4.018,4.018,4.0316,3.8734,3.7922,3.7922,3.6343,3.56,3.56,3.56,3.56,3.56,3.56,3.5554,3.5554,0.0,0.0,3.6171,0.0,3.6109,3.6529,3.6397,3.6442,3.6669,3.7351,3.7788,3.7939,3.739,3.7182,3.6999,3.5883,3.5684,0.0,0.0,0.0,0.0,0.0,0.0,0.0,0.0,0.0,3.5834,0.0,0.0,0.0,0.0,0.0,0.0,0.0,0.0,0.0,0.0,0.0,0.0,0.0,0.0,0.0,0.0,0.0,0.0,3.5888,3.5531,3.5206,3.4988,3.4636,3.4412,3.4412,3.4086,3.3848,3.3848,3.3324,3.2975,3.2949,3.2738,3.2269,3.1605,3.1551,3.1106,3.022,3.0167,3.0027,2.9773,2.9203,2.8962,2.8932,2.8261,2.7965,2.7769,2.6817,2.6443,2.6443,2.6443,2.6443,2.6443,4.3743,4.4039,0.0,0.0,4.4068,4.4097,4.4097,4.4068,4.4068,4.4068,4.4637,4.5035,4.5035,4.5656,4.5845,4.5202,4.5149,4.4288,4.2286,4.2083,4.1745,4.1102,4.0451,4.0417,4.1068,3.9005,3.7922,3.7922,3.6343,3.56,3.56,3.56,3.56,3.56,3.56,3.56,0.0,0.0,3.6461,0.0,3.7017,3.7045,0.0,3.6626,3.6967,3.7621,3.8374,3.8275,3.7725,0.0,3.7261,3.6764,0.0,3.6389,3.6,3.6176,0.0,0.0,0.0,0.0,0.0,0.0,3.5812,0.0,0.0,0.0,3.6374,3.5957,0.0,0.0,0.0,0.0,0.0,0.0,0.0,0.0,0.0,0.0,0.0,0.0,0.0,0.0,0.0,3.5411,3.478,3.4575,3.4309,3.4151,3.4151,3.4305,3.4399,3.4399,3.4,3.372,3.3591,3.3435,3.3272,3.3077,3.2886,3.2457,3.1826,3.1508,3.1067,3.048,3.0289,3.0258,3.0356,3.0269,2.9973,2.9354,2.7693,2.7019,2.7019,2.7019,2.7019,2.7019,4.3401,4.3574,0.0,0.0,4.4384,4.4384,4.4384,4.4384,4.4552,4.4961,4.5298,4.5803,4.6645,4.7076,4.7173,4.69,4.6553,4.5737,0.0,0.0,4.2151,4.1847,4.0722,4.0248,4.0527,3.9242,3.858,3.8628,3.7102,3.6401,3.6469,3.6026,3.606,3.6446,3.6378,0.0,3.7057,0.0,3.732,0.0,0.0,0.0,0.0,3.717,3.7584,3.8314,3.907,3.8785,3.8143,0.0,3.8242,0.0,0.0,0.0,0.0,0.0,0.0,0.0,0.0,0.0,0.0,0.0,0.0,0.0,3.6297,0.0,3.6781,0.0,0.0,0.0,0.0,0.0,0.0,0.0,3.5902,0.0,0.0,0.0,0.0,0.0,0.0,0.0,0.0,0.0,0.0,0.0,3.4398,3.4506,3.4506,3.4822,3.5001,3.4987,3.461,3.4341,3.4176,3.4025,3.3899,3.3771,3.3694,3.3483,3.3144,3.3016,3.2722,3.2361,3.1931,3.1767,3.1785,3.1343,3.1044,3.0758,3.0005,2.8965,2.7929,2.7929,2.7879,2.7835,4.3137,0.0,0.0,0.0,4.4615,4.4615,4.4615,4.4953,4.5399,4.594,4.6549,4.7327,4.8409,4.868,4.8785,0.0,4.8139,4.7293,0.0,0.0,4.3436,0.0,0.0,0.0,4.1001,3.9731,3.9103,3.92,3.7944,3.7365,3.7456,3.694,3.6975,3.7456,3.7365,3.7626,3.8148,0.0,3.7984,3.7984,3.7889,3.7841,3.7826,3.7809,3.8112,3.8706,3.9435,3.9124,3.8487,3.9054,3.8853,0.0,3.842,0.0,0.0,0.0,0.0,0.0,3.6265,0.0,0.0,0.0,0.0,0.0,0.0,0.0,0.0,0.0,0.0,0.0,0.0,0.0,0.0,0.0,0.0,0.0,0.0,0.0,0.0,0.0,0.0,0.0,0.0,0.0,0.0,3.3867,3.4361,3.4583,3.4357,3.5154,3.5476,3.5172,3.5101,3.4968,3.4715,3.4618,3.4497,3.4325,3.4325,3.4275,3.4176,3.4126,3.4075,3.3942,3.3401,3.32,3.3217,3.2668,3.2336,3.2199,3.2199,3.1141,2.9588,2.9187,2.8888,2.8621,4.324,4.3375,0.0,0.0,4.4615,4.4615,4.4615,4.5805,4.6718,4.6752,4.8612,4.9965,0.0,0.0,0.0,0.0,0.0,4.939,4.7906,0.0,4.6346,0.0,0.0,4.2557,0.0,0.0,3.9176,3.92,3.8642,3.8345,3.8368,3.8469,3.8469,3.8368,3.8345,3.8311,3.8299,3.8207,3.8207,3.8265,3.8207,3.8138,3.8122,0.0,3.8572,3.8706,3.9435,0.0,0.0,3.8639,3.8606,0.0,0.0,0.0,0.0,0.0,0.0,0.0,0.0,0.0,0.0,3.7202,0.0,0.0,0.0,0.0,3.7371,0.0,0.0,0.0,0.0,0.0,0.0,0.0,0.0,0.0,0.0,0.0,0.0,0.0,0.0,0.0,0.0,0.0,3.3582,3.3528,3.401,3.4001,3.3287,3.5056,3.5685,3.4853,3.5436,3.5622,3.5268,3.5268,3.5152,3.4859,3.4859,3.4859,3.4859,3.4715,3.4667,3.4667,3.4488,3.4513,3.4634,3.4601,3.4244,3.3733,3.3733,3.3201,3.2307,3.0919,2.9954,2.9266,0.0,0.0,0.0,0.0,0.0,4.4784,4.5263,4.6177,4.7158,4.8139,4.9323,0.0,0.0,5.1792,5.1928,0.0,0.0,5.0913,4.9458,4.8206,0.0,0.0,0.0,4.322,0.0,0.0,0.0,4.1057,3.9846,3.941,3.9655,3.9125,3.9159,3.9633,3.9455,3.9675,0.0,0.0,0.0,0.0,0.0,3.8958,3.8945,0.0,3.8881,3.8949,3.9691,3.9488,0.0,3.9421,3.9336,3.9073,3.958,3.9476,3.92,3.92,3.8714,3.8148,0.0,0.0,3.7215,3.7369,0.0,0.0,0.0,0.0,0.0,0.0,0.0,0.0,0.0,0.0,0.0,0.0,0.0,0.0,0.0,0.0,0.0,0.0,0.0,0.0,0.0,0.0,0.0,3.3079,3.36,3.4022,3.4304,3.5308,3.5948,3.5987,3.6208,3.6178,3.5832,3.58,3.5667,3.5476,3.5418,3.5373,3.5373,3.5327,3.5304,3.5304,3.5258,3.5258,3.5304,3.5304,3.5159,3.5003,3.5003,3.4533,3.3639,3.1813,3.0935,3.053,4.4497,0.0,0.0,0.0,4.493,4.5213,4.5721,4.7018,4.8308,0.0,5.0744,0.0,5.301,0.0,5.3416,0.0,5.2875,5.2198,5.0947,4.9763,0.0,4.8003,4.6099,4.5004,0.0,0.0,0.0,0.0,4.1359,4.0802,4.081,4.0311,4.0367,4.0845,4.0669,4.0837,4.1209,3.9893,3.9974,0.0,0.0,3.9845,0.0,0.0,3.9452,3.9219,0.0,3.9957,3.9593,4.0093,4.0007,3.9749,4.0226,4.0153,3.984,3.984,3.9579,3.9249,3.9295,3.878,0.0,3.846,3.8084,0.0,3.7952,0.0,0.0,0.0,0.0,0.0,0.0,0.0,0.0,0.0,0.0,0.0,0.0,3.7116,0.0,0.0,0.0,0.0,0.0,0.0,3.3075,3.3044,3.358,3.3998,0.0,3.5101,3.5589,3.5591,3.5852,3.5958,3.5932,3.5862,3.5895,3.6062,3.5932,3.5866,3.5866,3.5866,3.5866,3.5866,3.5866,3.5866,3.5866,3.5866,3.5866,3.5866,3.5866,3.556,3.4938,3.3203,3.2342,3.1901,4.6268,4.5746,4.5272,4.5206,4.5629,4.6,0.0,0.0,5.02,0.0,5.2807,5.4634,5.4668,5.5311,5.5447,5.4702,5.3991,5.3213,5.24,5.1657,0.0,0.0,4.8897,4.7865,4.7151,0.0,0.0,0.0,4.3069,4.2572,4.1929,4.198,4.1945,4.1823,4.1788,0.0,4.1486,3.9799,3.9887,4.1206,4.1071,4.0562,3.995,4.0619,4.0294,3.9532,4.026,4.0534,4.0534,4.0534,4.0534,4.0534,4.0534,4.0607,4.0704,4.0704,4.0823,4.0942,4.1093,4.0527,4.0006,4.025,3.9806,0.0,0.0,0.0,4.0161,0.0,0.0,0.0,0.0,0.0,0.0,0.0,0.0,0.0,0.0,0.0,0.0,0.0,0.0,0.0,0.0,3.3488,3.3364,3.3325,3.3882,3.3912,0.0,3.4398,3.4762,3.388,3.4571,3.5222,3.5747,3.5684,3.5968,3.6631,3.6471,3.6395,3.6395,3.636,3.6326,3.6326,3.6326,3.6326,3.6326,3.6326,3.6326,3.6326,3.6326,3.6326,3.6194,3.4993,3.4011,3.3317,4.5901,4.6421,4.6977,4.7465,4.7279,4.7404,0.0,0.0,0.0,0.0,5.4122,5.5212,5.5792,5.6031,5.5826,5.5042,5.4804,0.0,0.0,0.0,0.0,5.1393,4.9922,4.9154,4.9251,4.7202,4.6213,4.6335,0.0,4.3886,4.3871,4.2718,4.2225,4.2231,4.1579,4.1253,4.1105,3.9328,3.8722,3.8979,3.9546,3.9629,3.9524,0.0,4.0425,4.0266,4.0642,4.0799,4.0799,4.0799,4.0847,4.0953,4.0953,4.1059,4.1221,4.1221,4.1312,4.1426,4.1448,4.0911,4.0359,4.0489,4.0079,3.9716,0.0,0.0,0.0,0.0,0.0,0.0,0.0,0.0,0.0,0.0,0.0,0.0,0.0,0.0,0.0,3.761,0.0,0.0,3.4608,3.3909,3.3553,3.3538,3.3633,0.0,0.0,0.0,3.4973,3.5841,3.6023,3.6702,3.7979,3.7752,3.8042,3.8798,3.8032,3.765,3.7615,3.7056,3.6831,3.6831,3.6831,3.6831,3.6831,3.6831,3.6831,3.6831,3.6831,3.6831,3.6666,3.5456,3.4494,3.3727,4.7637,4.7935,4.8388,4.9036,0.0,0.0,4.9786,5.1257,0.0,5.3973,5.5343,0.0,5.6816,5.6952,5.6711,5.5854,5.5411,0.0,5.3562,0.0,0.0,5.2429,5.1352,5.074,5.0662,4.8943,0.0,4.8166,0.0,4.492,4.4785,4.3263,4.237,4.2053,4.1544,4.1127,4.0714,3.9627,3.8883,3.8479,3.9646,4.0106,0.0,4.0975,4.1294,4.1287,4.1451,4.1403,4.1198,4.1198,4.1244,4.1324,4.1324,4.1448,4.1626,4.1626,4.1758,4.1909,4.1909,4.1612,4.1315,4.1363,4.1167,4.0987,4.1163,4.1355,4.165,0.0,4.1831,4.1423,0.0,0.0,0.0,0.0,0.0,0.0,0.0,0.0,0.0,0.0,3.814,0.0,3.5758,3.4835,3.4183,3.3776,3.3671,0.0,0.0,0.0,3.4754,3.6266,3.6253,3.6926,3.8438,3.8274,3.8377,3.8766,3.8522,3.8408,3.8373,3.7968,3.7791,3.7755,3.7437,3.726,3.726,3.726,3.726,3.726,3.726,3.726,3.7206,3.6498,3.5828,3.5248,5.0085,4.9788,0.0,0.0,0.0,0.0,0.0,5.2438,0.0,5.4711,0.0,5.7774,5.7877,5.7977,5.7731,5.6936,0.0,5.5124,5.4399,5.433,5.4023,5.3401,5.2814,5.2288,5.1765,5.0573,4.9719,0.0,0.0,4.5774,4.5276,4.351,4.2355,4.1742,4.1451,0.0,0.0,4.0038,3.9567,3.9009,4.0565,4.1189,4.126,4.2067,4.2389,4.2389,4.2389,4.21,4.1692,4.1692,4.1692,4.1692,4.1692,4.1823,4.1959,4.1959,4.2163,4.2369,4.2369,4.2369,4.2409,4.2434,4.2474,4.257,4.2802,4.2899,4.2994,4.3123,4.2649,4.2187,0.0,0.0,0.0,0.0,0.0,0.0,0.0,0.0,0.0,0.0,0.0,0.0,3.7256,3.6017,3.494,3.3989,0.0,0.0,0.0,0.0,3.4513,3.6042,3.6173,3.693,3.8359,3.8309,3.8186,3.808,3.8724,3.9027,3.9045,3.9045,3.9045,3.9009,3.8168,3.781,3.781,3.7703,3.7667,3.7667,3.7667,3.7667,3.7667,3.7667,3.7448,3.7145,5.0544,0.0,0.0,0.0,0.0,5.4206,5.4993,5.5543,5.6276,5.7508,5.8159,5.8744,5.9371,5.9012,5.8444,5.7674,5.6749,0.0,0.0,0.0,0.0,5.4839,5.3626,5.2993,5.3092,5.1838,5.0865,0.0,0.0,0.0,4.6189,4.3413,4.2086,4.1904,0.0,0.0,3.8712,3.9348,0.0,3.9335,4.0944,4.1594,4.1667,4.2498,4.2787,4.2787,4.2787,4.2514,4.2184,4.2184,4.2184,4.2184,4.2184,4.2246,4.2313,4.2313,4.251,4.2688,4.2688,4.2765,4.2787,4.2806,4.2899,4.2992,4.3049,4.3087,4.3196,4.3323,4.2755,4.2204,4.2289,0.0,0.0,0.0,0.0,0.0,0.0,0.0,0.0,0.0,0.0,4.0077,0.0,3.7164,3.5031,0.0,0.0,0.0,0.0,0.0,3.5597,0.0,3.7744,0.0,0.0,0.0,4.0164,4.0111,4.0167,4.0203,4.0203,4.0275,4.0275,4.0239,3.9372,3.901,3.8938,3.8306,3.8,3.8,3.8,3.8,3.8,3.8,3.7966,3.7862,5.2365,0.0,0.0,0.0,0.0,0.0,0.0,5.8067,5.8466,5.8745,5.9327,5.9667,5.9601,5.9112,5.8485,5.7706,5.6723,5.5977,5.559,5.5496,5.5291,5.4957,5.3971,5.3387,5.3211,5.2228,5.1439,5.0879,0.0,0.0,0.0,0.0,0.0,4.1475,0.0,3.9,0.0,0.0,0.0,4.0777,4.1523,4.2105,4.2541,4.2886,4.3068,4.3068,4.3068,4.292,4.2729,4.2632,4.2593,4.2593,4.2593,4.2688,4.2765,4.2765,4.288,4.3012,4.3012,4.3031,4.3068,4.3068,4.3105,4.3142,4.3142,4.3214,4.3304,4.3394,4.31,4.2895,4.291,4.2249,0.0,0.0,0.0,0.0,0.0,0.0,0.0,0.0,0.0,0.0,0.0,0.0,0.0,0.0,0.0,0.0,0.0,0.0,3.5984,0.0,0.0,0.0,4.0972,0.0,4.0926,4.0876,4.1243,4.1408,4.1408,4.1462,4.1479,4.1443,4.0586,4.0221,4.0185,3.9365,3.9037,3.9,3.8547,3.8364,3.8364,3.8401,3.8401,3.8316,5.4722,5.5132,0.0,0.0,5.6828,5.8099,5.9385,6.014,6.0332,5.9719,6.0104,6.023,5.9632,5.8937,5.8287,5.768,5.6644,5.6042,5.6042,5.5787,5.5405,5.4879,5.4118,5.3482,5.3068,5.24,5.1706,0.0,0.0,0.0,0.0,0.0,0.0,0.0,0.0,0.0,0.0,0.0,4.0912,4.2081,4.2264,4.2702,4.3269,4.3269,4.3269,4.3269,4.3269,4.3269,4.3251,4.3069,4.2995,4.2957,4.2957,4.3031,4.3123,4.3123,4.316,4.3251,4.3251,4.3251,4.3269,4.3269,4.3269,4.3269,4.3269,4.334,4.3429,4.3429,4.3463,4.3515,4.3532,4.3018,0.0,0.0,0.0,0.0,0.0,0.0,0.0,0.0,0.0,0.0,4.024,0.0,0.0,0.0,0.0,0.0,3.4809,0.0,0.0,0.0,0.0,3.9882,4.1283,0.0,4.1251,4.1204,4.2014,4.2419,4.2419,4.2566,4.264,4.2603,4.1813,4.1319,4.1119,4.0509,4.0252,4.0142,3.9295,3.8964,3.8964,3.8832,3.8743,3.8676,0.0,0.0,0.0,0.0,0.0,5.9961,6.0705,6.1514,6.1751,6.1016,6.0474,6.0132,6.006,5.8868,5.8044,5.7972,5.7057,5.6546,5.6546,5.5839,5.541,5.5365,5.4061,5.3324,5.3339,5.2761,5.1742,0.0,0.0,4.8184,0.0,0.0,0.0,0.0,0.0,0.0,0.0,4.1739,4.2122,4.2326,4.3076,4.3407,4.348,4.348,4.348,4.348,4.348,4.348,4.348,4.3463,4.334,4.3178,4.3178,4.3196,4.3196,4.3196,4.3269,4.3394,4.3394,4.341,4.348,4.348,4.348,4.348,4.348,4.348,4.3497,4.3497,4.3497,4.3532,4.36,4.3526,4.3487,0.0,0.0,0.0,0.0,0.0,0.0,0.0,0.0,0.0,0.0,4.1446,0.0,0.0,3.7947,0.0,0.0,0.0,0.0,3.9039,3.9858,4.0671,4.1542,4.1542,4.1542,4.1557,4.2359,4.2752,4.2789,4.3494,4.3828,4.3791,4.2912,4.2094,4.1366,4.1369,4.1363,4.1267,4.0511,4.0243,4.0131,3.9338,3.9041,3.9041,0.0,0.0,0.0,0.0,0.0,0.0,0.0,6.2188,6.2066,6.1263,6.0856,6.0467,5.9962,5.9046,5.8279,5.7808,5.7319,5.7061,5.7061,5.6263,5.5588,5.5182,5.4183,5.3422,5.303,5.2808,5.1952,0.0,0.0,0.0,0.0,0.0,0.0,0.0,0.0,4.1809,4.1846,4.2176,4.258,4.3057,4.3351,4.3515,4.3515,4.3515,4.3515,4.3515,4.3515,4.3515,4.3515,4.3515,4.3463,4.3393,4.3393,4.3393,4.3393,4.3393,4.3428,4.3445,4.3445,4.348,4.3515,4.3515,4.3515,4.3515,4.3515,4.3532,4.3566,4.3566,4.3617,4.3704,4.3738,4.3751,4.3668,4.3267,0.0,0.0,0.0,0.0,0.0,0.0,0.0,0.0,0.0,0.0,0.0,0.0,0.0,0.0,0.0,0.0,0.0,3.864,0.0,4.0486,4.1819,4.1856,4.2343,4.3352,4.3675,4.3824,4.3824,4.4161,4.4281,4.4214,4.3849,4.3506,4.3096,4.27,4.2505,4.2445,4.1642,4.137,4.1333,4.0959,4.0846,4.0772,6.0322,0.0,6.1117,0.0,6.1495,6.1995,6.2581,6.2395,6.1953,6.1393,6.0817,6.0205,5.9583,5.8858,5.8239,5.7656,5.751,5.7461,5.7461,5.6394,5.5559,5.5073,5.4067,0.0,5.2886,5.285,5.2148,5.0664,5.0664,0.0,0.0,0.0,0.0,0.0,4.313,4.302,4.2983,4.2763,4.2983,4.3515,4.3515,4.3515,4.3515,4.3515,4.3515,4.3515,4.3515,4.3515,4.3515,4.3515,4.3515,4.3515,4.3515,4.3515,4.3515,4.3515,4.3515,4.3515,4.3515,4.3515,4.3532,4.3532,4.3566,4.3583,4.3583,4.3617,4.3667,4.3667,4.3734,4.3853,4.3869,4.3929,4.3816,4.3349,0.0,0.0,0.0,0.0,0.0,0.0,4.2625,4.2335,4.1037,4.1223,0.0,0.0,0.0,0.0,0.0,0.0,0.0,0.0,0.0,0.0,4.172,4.1996,4.2812,4.4242,4.4506,4.4619,4.4619,4.4619,4.4578,4.4496,4.4496,4.444,4.4317,4.3854,4.3632,4.3571,4.2799,4.2498,4.2461,4.2234,4.2109,4.2046,6.2622,6.2743,6.2743,6.2743,6.278,6.278,6.278,6.2144,6.1594,6.1594,6.0212,5.9126,5.8847,5.8093,5.7619,5.7583,5.7583,5.7583,5.7583,5.6088,5.5212,0.0,0.0,5.285,5.298,5.298,5.2276,5.0802,0.0,0.0,4.7076,0.0,4.5883,4.581,4.5039,4.4654,4.4618,4.3828,4.3515,4.3515,4.3515,4.3515,4.3515,4.3515,4.3515,4.3515,4.3515,4.3515,4.3515,4.3515,4.3515,4.3515,4.3515,4.3515,4.3515,4.3515,4.3515,4.3515,4.3515,4.3566,4.3617,4.3617,4.3684,4.3788,4.3788,4.3788,4.3804,4.3804,4.3869,4.3913,4.4008,4.4124,4.4258,4.4345,0.0,0.0,0.0,0.0,0.0,0.0,4.3368,4.2975,4.0454,4.112,0.0,0.0,0.0,0.0,0.0,0.0,0.0,3.99,3.99,0.0,4.1101,4.1946,4.2818,4.3613,4.4485,4.4914,4.4914,4.4914,4.484,4.4699,4.4699,4.4619,4.4496,4.4646,4.4661,4.4599,4.393,4.3687,4.3573,4.2689,4.2386,4.2386,6.2743,6.278,6.278,6.278,6.278,6.2622,6.2071,6.1741,6.119,6.0126,5.9515,5.8941,5.832,5.8027,5.7881,0.0,5.7881,5.7881,0.0,5.6379,5.5463,5.5463,5.3924,5.3082,5.3124,5.3124,5.2632,5.161,0.0,0.0,0.0,4.6819,4.6434,4.592,4.6195,4.5718,4.4654,4.4452,4.4011,4.3515,4.3515,4.3515,4.3515,4.3515,4.3515,4.3515,4.3515,4.3532,4.3583,4.3583,4.3634,4.3684,4.3684,4.3634,4.3583,4.3583,4.3634,4.3684,4.3684,4.3738,4.3754,4.3754,4.3783,4.3886,4.3886,4.3945,4.4039,4.4101,4.4192,4.4252,4.4281,4.4402,4.4541,4.4605,4.4789,0.0,0.0,0.0,0.0,0.0,4.2985,4.2671,4.1359,4.2008,0.0,0.0,0.0,0.0,0.0,0.0,0.0,0.0,4.009,0.0,4.1376,4.2186,4.3025,4.3863,4.475,4.5148,4.5114,4.5114,4.5045,4.4914,4.4914,4.4865,4.4789,4.4877,4.4914,4.4888,4.4718,4.4638,4.4638,4.4334,4.4258,4.4144,6.278,6.278,6.278,6.278,6.278,6.2548,6.1704,6.1337,6.0676,5.9368,5.8927,5.8547,5.8033,5.7997,0.0,5.7997,5.7997,5.7997,5.7997,5.6492,5.5596,5.5596,5.4069,5.3203,5.3203,5.3203,0.0,5.1977,5.0875,4.9407,4.7553,4.7553,4.7259,4.6801,4.7003,4.6526,4.5572,4.4948,4.4415,4.3938,4.3642,4.3549,4.3549,4.3583,4.36,4.36,4.36,4.3634,4.3667,4.3667,4.3734,4.3853,4.3853,4.3816,4.3779,4.3734,4.3767,4.3853,4.3886,4.3881,4.3913,4.3913,4.4008,4.4101,4.4116,4.4207,4.4258,4.4354,4.444,4.451,4.451,4.4685,4.4827,4.4827,4.4998,4.5114,4.5114,0.0,0.0,0.0,0.0,0.0,0.0,4.2454,4.297,0.0,0.0,0.0,0.0,0.0,0.0,4.1207,4.1207,4.1475,4.2001,4.2852,4.3541,4.4067,4.4919,4.5329,4.5288,4.5288,4.5246,4.5148,4.5148,4.5114,4.5068,4.5125,4.5148,4.5159,4.5213,4.5197,4.5197,4.5197,4.5197,4.512,6.278,6.278,6.278,6.278,6.2743,6.2438,6.163,6.0823,6.0052,5.9221,5.8474,5.7997,5.7997,5.7997,5.7997,5.7997,0.0,0.0,5.7997,5.6492,5.5596,5.5596,5.4069,5.3203,5.3203,5.3203,5.2821,5.1977,5.0455,4.9224,4.8379,4.8343,4.8306,4.8269,4.7516,4.7149,4.7021,4.5516,4.4856,4.4726,4.4078,4.3781,4.3798,4.3919,4.3968,4.4005,4.4005,4.3968,4.3968,4.3968,4.405,4.4114,4.4114,4.4203,4.4258,4.4013,4.3929,4.3945,4.4039,4.4079,4.414,4.4214,4.4408,4.4627,4.4697,4.4711,4.4711,4.4711,4.4783,4.4876,4.48,4.4978,4.5109,4.5033,4.5181,4.5298,4.5298,0.0,0.0,0.0,0.0,0.0,4.195,4.2714,4.3278,0.0,0.0,0.0,0.0,0.0,4.2188,4.2887,4.2926,4.2926,4.2926,4.3761,4.4221,4.4298,4.5065,4.541,4.541,4.541,4.5381,4.5408,4.5408,4.5339,4.5298,4.535,4.5408,4.5418,4.539,4.54,4.54,4.54,4.54,4.54,0.0,0.0,6.278,6.278,6.2291,6.1594,6.0823,6.0015,5.9208,5.84,5.8107,5.7997,5.7997,5.7997,5.7997,5.7997,5.7997,5.7997,5.7997,5.6492,5.5596,5.5596,5.4069,5.3203,5.3203,5.3203,5.2821,5.1977,5.0986,5.0105,4.928,4.86,4.8306,4.8306,4.8122,4.772,4.7224,4.6856,4.6377,4.584,4.5636,4.5631,4.5662,4.5695,4.5782,4.5848,4.5848,4.5881,4.5946,4.5946,4.6041,4.6202,4.6202,4.6263,4.6023,4.4573,4.4199,4.4296,4.4368,4.4397,4.4561,4.5161,4.5928,4.6571,4.6705,4.6694,4.6694,4.6694,4.6758,4.667,4.605,4.6042,4.5938,4.5339,4.5329,4.5371,4.5371,4.4729,4.419,0.0,4.3966,4.3915,4.3684,4.4509,4.5017,0.0,0.0,0.0,4.4979,4.4184,4.3483,4.3052,4.3052,4.3052,4.3052,4.3859,4.4598,4.529,4.5444,4.5541,4.5466,4.5466,4.5438,4.539,4.539,4.5381,4.5371,4.5381,4.539,4.539,4.54,4.54,4.54,4.54,4.54,4.54,6.278,6.278,6.278,6.278,6.2144,6.1337,6.0529,5.9722,5.8891,5.8107,5.7997,5.7997,5.7997,5.7997,5.7997,5.7997,5.7997,5.7997,5.7997,5.6492,5.5596,5.5596,5.4069,5.3203,5.3203,5.3203,5.2805,5.2059,5.123,5.0461,4.9709,4.8863,4.8439,4.8439,4.8439,4.8218,4.7886,4.7553,4.722,4.6792,4.6524,4.6422,4.6483,4.6552,4.6632,4.6732,4.6732,4.6763,4.6772,4.6772,4.69,4.7032,4.7032,4.7118,4.7013,4.5978,4.5697,4.5707,4.5817,4.5844,4.5919,4.6412,4.6932,4.7365,4.7504,4.754,4.754,4.7577,4.7624,4.7556,4.7099,4.6806,4.6459,4.6,4.5659,4.5438,4.5438,4.4793,4.432,4.432,4.4299,4.4316,4.4316,4.5094,4.5594,4.5594,4.5171,0.0,4.5556,4.5188,4.4726,4.4239,4.4239,4.4256,4.4273,4.4721,4.5192,4.5654,4.5654,4.5646,4.5582,4.5582,4.5565,4.5538,4.5538,4.5538,4.5538,4.5538,4.553,4.555,4.555,4.5532,4.5475,4.5475,4.5532,4.555,6.278,6.278,6.278,6.278,6.2034,6.119,6.0493,5.9612,5.8767,5.8107,5.7997,5.7997,5.7997,5.7997,5.7997,5.7997,5.7997,5.7997,5.7997,5.6492,5.5596,5.5596,5.4069,5.3188,5.3209,5.323,5.2962,5.2327,5.1497,5.0762,5.0065,4.9215,4.8735,4.8624,4.8624,4.8642,4.8623,4.8046,4.7819,4.7816,4.7239,4.7068,4.7161,4.7275,4.735,4.7423,4.7437,4.7437,4.7437,4.7437,4.7537,4.761,4.761,4.7717,4.7846,4.7921,4.7821,4.7653,4.7492,4.753,4.7669,4.7731,4.7831,4.7969,4.8087,4.8109,4.8121,4.8215,4.8258,4.8252,4.8137,4.7566,4.7021,4.6752,4.6033,4.5532,4.5532,0.0,4.4355,4.447,4.4509,4.4509,4.4509,4.5171,4.5594,4.5594,4.5603,4.5603,4.5603,4.5684,4.5693,4.5629,4.562,4.5629,4.5709,4.5711,4.5735,4.5735,4.5704,4.5704,4.5704,4.5704,4.5704,4.5704,4.5704,4.5704,4.5735,4.5735,4.5711,4.5709,4.5709,4.5684,4.5612,4.5612,4.5637,4.5709,6.278,6.278,6.278,6.278,6.1594,6.0529,6.0419,5.9134,5.8143,5.8033,5.7997,5.7997,5.7997,5.7997,5.7997,5.7997,5.7997,5.7997,5.7997,5.6492,5.5596,5.5596,5.4069,5.323,5.3277,5.338,5.3404,5.3276,5.2464,5.1688,5.0895,5.0065,4.9326,4.8587,4.8696,4.8804,4.8855,4.8793,4.8874,4.9022,4.8904,4.8977,4.9168,4.9242,4.9315,4.9386,4.9418,4.9446,4.9446,4.9446,4.95,4.9567,4.9619,4.9708,4.9794,4.9901,4.9912,4.9572,4.8052,4.8178,4.8758,4.8826,4.9411,4.9958,5.0063,5.0084,5.0084,5.0095,5.0106,4.9876,4.912,4.892,4.8413,4.6993,4.6118,4.5586,4.5586,0.0,4.4586,4.5325,4.5402,4.5402,4.5402,4.5518,4.5594,4.5594,4.5667,4.5693,4.5693,4.5695,4.5727,4.5758,4.5727,4.5711,4.5719,4.5758,4.5781,4.5781,4.5771,4.5786,4.5786,4.5786,4.5786,4.5786,4.5786,4.5771,4.5781,4.5781,4.575,4.5719,4.5719,4.5673,4.5665,4.5665,4.5673,4.5719,6.278,6.278,6.2658,6.2218,6.119,6.0272,5.9808,5.8767,5.7997,5.7997,5.7997,5.7997,5.7997,5.7997,5.7997,5.7997,5.8065,5.8088,5.8088,5.694,5.6073,5.5735,5.4559,5.376,5.3444,5.3504,5.3602,5.3737,5.292,5.2364,5.2048,5.1248,5.0653,5.0244,4.9867,4.9748,4.9745,4.9444,4.9384,4.9529,4.9537,4.9655,4.9835,4.9862,4.9879,4.9984,5.0025,5.0063,5.0063,5.0101,5.0151,5.02,5.0262,5.0321,5.0352,5.0446,5.0457,5.0254,4.9444,4.9483,4.9822,4.9854,5.0161,5.0478,5.0532,5.0542,5.0553,5.0584,5.0594,5.0479,5.0066,4.9653,4.9087,4.8318,4.7491,0.0,4.6932,4.624,4.5855,4.624,4.5893,4.5603,4.5667,4.5667,4.5637,4.5662,4.5687,4.5703,4.5766,4.5765,4.5778,4.5834,4.5807,4.5824,4.5824,4.588,4.5906,4.5906,4.5899,4.5917,4.5917,4.5917,4.5917,4.5917,4.5917,4.5899,4.5906,4.5906,4.5873,4.5824,4.5824,4.5771,4.5749,4.5749,4.5764,4.5824,6.278,6.278,6.2548,6.1741,6.0933,6.0126,5.9294,5.851,5.7997,5.7997,5.7997,5.7997,5.7997,5.802,5.8042,5.8042,5.8156,5.8223,5.8268,5.7589,5.6772,5.5843,5.4875,5.4132,5.3719,5.3738,5.3833,5.4017,5.342,5.3045,5.2945,5.2309,5.1935,5.1728,5.1136,5.0922,5.0847,5.0433,5.0287,5.036,5.043,5.0413,5.0342,5.038,5.0304,5.0163,5.0236,5.0259,5.0271,5.0344,5.039,5.0435,5.0446,5.0478,5.056,5.0762,5.0964,5.1041,5.0636,5.0685,5.0849,5.0849,5.0964,5.1129,5.1209,5.1219,5.1229,5.1279,5.1279,5.1202,5.101,5.0433,4.9856,4.9471,0.0,4.8125,4.8105,4.7412,4.6989,4.719,4.6621,4.6254,4.6287,4.6296,4.6312,4.6314,4.6136,4.6043,4.6134,4.5937,4.588,4.5953,4.5917,4.5932,4.5932,4.5997,4.6025,4.6025,4.6022,4.6037,4.6037,4.6037,4.6037,4.6037,4.6037,4.6056,4.6025,4.6025,4.5991,4.5932,4.5932,4.588,4.5854,4.5854,4.5874,4.5932,6.278,6.278,6.2548,6.1741,6.0933,6.0126,5.9294,5.851,5.7997,5.7997,5.7997,5.7997,5.7997,5.8111,5.8215,5.8215,5.8305,5.8415,5.8449,5.8412,5.7629,5.5971,5.4566,5.3925,5.4073,5.4107,5.4233,5.4337,5.43,5.3866,5.3078,5.3003,5.2606,5.1909,5.203,5.2069,5.2069,5.2157,5.2233,5.2303,5.237,5.198,5.1408,5.1529,5.1079,5.039,5.0457,5.0489,5.0489,5.0489,5.0489,5.05,5.0553,5.0612,5.0737,5.1557,5.2374,5.2644,5.1017,5.1191,5.1798,5.1798,5.2413,5.3,5.3,5.3,5.3,5.301,5.301,5.2779,5.1962,5.1769,5.1192,4.9663,0.0,0.0,4.8197,4.7465,4.7212,4.8103,4.815,4.8111,4.8111,4.8111,4.8089,4.8091,4.7434,4.7027,4.7094,4.6395,4.6025,4.6065,4.6017,4.5991,4.5991,4.6047,4.6108,4.6108,4.615,4.6208,4.6208,4.6208,4.6208,4.6208,4.6208,4.6146,4.6108,4.6108,4.6042,4.5991,4.5991,4.5991,4.5986,4.5986,4.5991,4.5991,6.278,6.278,6.2401,6.108,6.0603,5.9979,5.8657,5.8217,5.7997,5.7997,5.7997,5.802,5.8111,5.8156,5.8246,5.8378,5.8508,5.8656,5.8784,5.8902,5.8137,5.6362,5.5342,5.4722,5.4401,5.4434,5.4517,5.4698,5.4698,5.4547,5.4207,5.4207,5.4056,5.3732,5.3345,5.3205,5.3172,5.2751,5.2666,5.2729,5.2792,5.265,5.2441,5.2487,5.2307,5.2,5.2067,5.2099,5.2137,5.2169,5.2179,5.2179,5.22,5.221,5.2287,5.2615,5.2933,5.3038,5.2403,5.2451,5.2692,5.2692,5.2972,5.3203,5.3203,5.3203,5.3203,5.3203,5.3203,5.3087,5.2779,5.2692,5.2328,5.1212,0.0,5.0345,4.986,4.9059,4.8651,4.9079,4.8623,4.833,4.8345,4.8353,4.8375,4.8438,4.8141,4.8036,4.8116,4.7358,4.6695,4.6173,4.6144,4.613,4.6134,4.6162,4.6173,4.6176,4.6209,4.6184,4.6184,4.6194,4.6192,4.6184,4.6184,4.6206,4.6173,4.6173,4.6158,4.613,4.613,4.613,4.613,4.613,4.613,4.613,6.278,6.2622,6.1998,6.0639,6.0199,5.9575,5.8217,5.7997,5.7997,5.7997,5.8042,5.8088,5.8215,5.829,5.8422,5.8577,5.876,5.8962,5.9159,5.9346,5.8726,5.7116,5.6138,5.5484,5.5139,5.4874,5.4799,5.5,5.5,5.5,5.5028,5.5028,5.5028,5.499,5.4542,5.4291,5.4268,5.3773,5.363,5.3702,5.3725,5.3606,5.3448,5.3459,5.3316,5.3048,5.3091,5.3112,5.3151,5.3192,5.3203,5.3203,5.3203,5.3395,5.3626,5.3626,5.378,5.3972,5.3972,5.3972,5.3933,5.3664,5.3818,5.3972,5.3972,5.3972,5.3972,5.3972,5.3972,5.3895,5.3646,5.3608,5.3358,5.2569,5.2203,5.1845,5.1318,5.0524,5.0016,5.007,4.9536,4.9209,4.9239,4.9246,4.9272,4.9332,4.9104,4.8875,4.8725,4.7957,4.724,4.6662,4.6368,4.6212,4.6226,4.6228,4.6231,4.6233,4.6214,4.6222,4.6222,4.6228,4.6227,4.6222,4.6222,4.6212,4.6231,4.6231,4.6223,4.6212,4.6212,4.6212,4.6212,4.6212,4.6212,4.6212,6.278,6.2144,6.1337,6.0529,5.9735,5.8927,5.8107,5.7997,5.7997,5.7997,5.8111,5.8179,5.8179,5.8486,5.8739,5.8805,5.9061,5.9309,5.9598,5.9786,5.9441,5.835,5.6765,5.6062,5.6291,5.5455,5.5085,5.5197,5.5197,5.5223,5.5275,5.5275,5.5275,5.5288,5.5351,5.5389,5.5427,5.5449,5.5485,5.5523,5.5554,5.5116,5.4425,5.4489,5.3972,5.3241,5.3241,5.3241,5.3241,5.3241,5.3241,5.3241,5.3241,5.3818,5.4511,5.4511,5.5049,5.5703,5.5703,5.5703,5.5511,5.4703,5.5126,5.5703,5.5703,5.5703,5.5703,5.5703,5.5703,5.5455,5.4659,5.4515,5.4265,5.3513,5.2708,5.2133,5.2182,5.1525,5.1034,5.1108,5.1121,5.1088,5.108,5.1086,5.1147,5.1206,5.0398,4.9586,4.8839,4.8005,4.7553,4.7602,4.6788,4.6321,4.6321,4.6316,4.6312,4.6312,4.6319,4.6282,4.6282,4.6282,4.6282,4.6282,4.6282,4.6318,4.6312,4.6312,4.6269,4.6183,4.6183,4.6183,4.6183,4.6183,4.6183,4.6183,6.2071,6.1741,6.1153,5.9795,5.9368,5.8927,5.8107,5.7997,5.802,5.8111,5.8193,5.8268,5.8508,5.8698,5.8865,5.914,5.9327,5.9616,5.9847,6.0022,6.0,5.9786,5.8654,5.7543,5.6532,5.6318,5.5925,5.5401,5.5401,5.5413,5.5425,5.5425,5.5425,5.5425,5.5449,5.5511,5.552,5.5543,5.5615,5.566,5.5671,5.5528,5.5297,5.5318,5.5164,5.4934,5.4934,5.4934,5.4934,5.4934,5.4934,5.4934,5.4934,5.5126,5.5318,5.5318,5.5511,5.5703,5.5703,5.5703,5.5626,5.5395,5.5511,5.5703,5.5703,5.5703,5.5714,5.5756,5.5766,5.571,5.5518,5.548,5.5218,5.4452,5.418,5.3863,5.3325,5.2499,5.2,5.2064,5.1525,5.119,5.1234,5.1239,5.1252,5.1285,5.1089,5.0574,4.9776,4.9474,4.9051,4.8546,4.8276,4.7849,4.7224,4.6595,4.6319,4.6319,4.6284,4.6286,4.6286,4.6288,4.6288,4.6286,4.6286,4.6284,4.6319,4.6319,4.6279,4.6277,4.6277,4.6277,4.6277,4.6277,4.6277,4.6277,6.1741,6.1337,6.0713,5.9404,5.8927,5.8547,5.807,5.8042,5.8088,5.8215,5.8312,5.8486,5.8719,5.8925,5.914,5.9436,5.9732,5.9998,6.0152,6.0261,6.0412,6.0491,5.9915,5.8983,5.7711,5.706,5.6496,5.6057,5.5712,5.5531,5.5593,5.5593,5.5593,5.5593,5.5593,5.5615,5.5649,5.5649,5.5671,5.5703,5.5703,5.5703,5.5703,5.5703,5.5703,5.5703,5.5703,5.5703,5.5703,5.5703,5.5703,5.5703,5.5703,5.5703,5.5703,5.5703,5.5703,5.5703,5.5703,5.5703,5.5703,5.5703,5.5703,5.5703,5.5703,5.5724,5.5756,5.5787,5.5827,5.5866,5.5913,5.5977,5.5844,5.5389,5.5077,5.4789,5.4322,5.3497,5.299,5.3044,5.2269,5.1779,5.1856,5.1551,5.1327,5.135,5.1375,5.1156,5.0655,5.0307,4.9917,4.9412,4.9061,4.8632,4.8124,4.7576,4.699,4.6286,4.6288,4.6288,4.6288,4.6289,4.6289,4.6288,4.6288,4.6288,4.6286,4.6286,4.6286,4.6286,4.6286,4.6286,4.6286,4.6286,4.6286,4.6286,6.1667,6.0896,6.0126,5.9258,5.851,5.802,5.802,5.8111,5.8201,5.8223,5.8508,5.876,5.8845,5.9197,5.9505,5.9711,6.0129,6.0422,6.0436,6.0558,6.0623,6.0623,6.066,6.0327,5.9459,5.7848,5.699,5.6894,5.6126,5.5726,5.5703,5.5703,5.5703,5.5703,5.5703,5.5703,5.5703,5.5703,5.5703,5.5703,5.5703,5.5703,5.5703,5.5703,5.5703,5.5703,5.5703,5.5703,5.5703,5.5703,5.5703,5.5703,5.5703,5.5703,5.5703,5.5703,5.5703,5.5703,5.5703,5.5703,5.5703,5.5714,5.5714,5.5714,5.5714,5.5756,5.5797,5.5807,5.5885,5.5921,5.602,5.6056,5.6124,5.6206,5.5611,5.5158,5.5229,5.448,5.397,5.4008,5.3273,5.2737,5.2804,5.2106,5.1607,5.1508,5.1513,5.1479,5.1405,5.0702,5.0312,5.0312,4.9531,4.9101,4.9023,4.9023,4.8164,4.6523,4.6523,4.6523,4.6523,4.6523,4.6523,4.6523,4.6523,4.6484,4.6406,4.6406,4.6367,4.6289,4.6289,4.6289,4.6289,4.6289,4.6289,4.6289,6.0933,6.0529,5.9942,5.851,5.8198,5.8133,5.8133,5.8282,5.8415,5.8572,5.8719,5.8905,5.9234,5.9488,5.9727,5.9991,6.0313,6.048,6.0533,6.0623,6.0673,6.0673,6.0734,6.0681,6.0476,5.9438,5.8296,5.6962,5.6808,5.6346,5.5703,5.5703,5.5703,5.5703,5.5703,5.5703,5.5703,5.5703,5.5703,5.5703,5.5703,5.5703,5.5703,5.5703,5.5703,5.5703,5.5703,5.5703,5.5703,5.5703,5.5703,5.5703,5.5703,5.5703,5.5703,5.5703,5.5703,5.5703,5.5703,5.5703,5.5714,5.5766,5.5776,5.5776,5.5776,5.5807,5.5905,5.595,5.5977,5.6029,5.6141,5.6199,5.6253,5.6275,5.6173,5.6139,5.6199,5.5454,5.4937,5.4994,5.4225,5.3688,5.3736,5.3542,5.3154,5.2457,5.2419,5.2108,5.1445,5.1211,5.1133,5.1133,5.0976,5.0547,4.9922,4.9922,4.9375,4.8359,4.8359,4.8359,4.8359,4.8359,4.8359,4.8359,4.8359,4.7969,4.7305,4.7305,4.6914,4.6289,4.6289,4.6289,4.6289,4.6289,4.6289,4.6289,6.1227,6.0724,6.011,5.8897,5.8436,5.8327,5.8334,5.8443,5.8593,5.8821,5.8984,5.9197,5.9505,5.9777,6.0068,6.0342,6.0493,6.0597,6.0635,6.0697,6.0734,6.0734,6.0769,6.0781,6.0781,6.0358,5.9473,5.8204,5.7819,5.7165,5.6319,5.6319,5.6088,5.5703,5.5703,5.5703,5.5703,5.5703,5.5703,5.5742,5.6126,5.6329,5.6368,5.678,5.6934,5.6934,5.6934,5.6934,5.6934,5.6934,5.6934,5.6934,5.6934,5.6934,5.6934,5.6934,5.6934,5.6945,5.6939,5.6949,5.696,5.7012,5.7101,5.6898,5.602,5.5895,5.5959,5.6015,5.6102,5.6163,5.622,5.6314,5.6358,5.6398,5.6402,5.6475,5.6491,5.6123,5.5868,5.5917,5.5142,5.4444,5.4058,5.3982,5.3826,5.3359,5.332,5.3125,5.2656,5.2266,5.2031,5.2031,5.1601,5.1211,5.0781,5.0781,5.0547,5.0078,4.9297,4.8906,4.8906,4.8906,4.8906,4.8906,4.8906,4.8633,4.8203,4.8203,4.7695,4.6914,4.6914,4.668,4.6289,4.6289,4.6289,4.6289,6.1765,6.1114,6.0374,5.9587,5.8888,5.848,5.8529,5.8677,5.8862,5.9043,5.9271,5.9523,5.9744,6.0061,6.036,6.0585,6.0673,6.071,6.071,6.0757,6.0781,6.0781,6.0781,6.0781,6.0781,6.0781,6.0358,5.9511,5.8819,5.805,5.7231,5.7049,5.6599,5.5934,5.578,5.5703,5.5703,5.5857,5.5934,5.6011,5.6868,5.7214,5.7291,5.8011,5.8319,5.8319,5.8319,5.8319,5.8319,5.8319,5.8319,5.8319,5.8319,5.8319,5.8319,5.8319,5.828,5.8303,5.828,5.8312,5.8343,5.8432,5.8528,5.8243,5.6738,5.6455,5.6496,5.6551,5.666,5.6763,5.6752,5.6684,5.664,5.6702,5.6614,5.6519,5.6532,5.6502,5.6549,5.6594,5.5971,5.523,5.4491,5.4453,5.4375,5.4219,5.4219,5.4141,5.4023,5.332,5.2851,5.2695,5.1992,5.1562,5.1406,5.1406,5.1406,5.1367,5.0,4.9336,4.9336,4.9336,4.9336,4.9336,4.9336,4.9258,4.9101,4.9101,4.8594,4.7812,4.7812,4.7383,4.6719,4.6562,4.6523,4.6484,6.1947,6.1232,6.0512,5.97,5.9063,5.8656,5.8656,5.8922,5.9196,5.9308,5.9523,5.9777,6.0114,6.0428,6.0648,6.0673,6.0734,6.0769,6.0769,6.0781,6.0781,6.0781,6.0781,6.0781,6.0781,6.0781,6.0358,5.9511,5.9396,5.8934,5.8127,5.7357,5.6945,5.6791,5.6049,5.5703,5.5742,5.6522,5.683,5.6907,5.778,5.8127,5.8127,5.828,5.8319,5.8319,5.8319,5.8319,5.8319,5.8319,5.8319,5.8319,5.8319,5.8319,5.8319,5.8319,5.8286,5.8291,5.8301,5.8374,5.8491,5.8576,5.8626,5.8638,5.8464,5.8418,5.8425,5.8524,5.8554,5.8587,5.862,5.8067,5.7623,5.7609,5.7001,5.6502,5.6589,5.6595,5.6598,5.6599,5.6483,5.6367,5.625,5.625,5.5937,5.5195,5.5117,5.4805,5.4023,5.3906,5.3476,5.2734,5.2578,5.2148,5.1406,5.1406,5.1406,5.1406,5.1172,5.1055,5.1055,5.1055,5.1055,5.1055,5.1055,5.0664,5.0039,5.0039,4.9492,4.8711,4.8711,4.8633,4.8476,4.7695,4.7422,4.7305,6.2751,6.2128,6.1463,6.0676,6.005,5.9505,5.9079,5.9272,5.9492,5.9647,5.9826,6.0068,6.0299,6.0546,6.071,6.0746,6.0769,6.0781,6.0781,6.0781,6.0781,6.0781,6.0781,6.0781,6.0781,6.0781,6.0589,6.0242,6.0242,5.9781,5.8973,5.8588,5.8165,5.7703,5.7319,5.7165,5.7165,5.755,5.7742,5.778,5.8627,5.8973,5.9011,5.9511,5.9704,5.9704,5.9704,5.9704,5.9704,5.9704,5.9704,5.9704,5.9704,5.9704,5.9715,5.9738,5.9733,5.9777,5.9832,5.9891,5.9987,6.0093,6.0142,6.0222,6.0293,6.0322,6.0111,5.9158,5.8953,5.8987,5.9033,5.878,5.8365,5.7949,5.7528,5.7103,5.6675,5.66,5.6601,5.6601,5.6601,5.6601,5.6601,5.6601,5.6445,5.6055,5.6015,5.5859,5.5469,5.5,5.4531,5.4141,5.3672,5.3242,5.2851,5.2383,5.2148,5.2109,5.1641,5.1406,5.1406,5.1406,5.1406,5.1406,5.1406,5.1211,5.0859,5.0859,5.0391,4.9648,4.9648,4.9336,4.8866,4.8475,4.8317,4.8278]}]]